<?xml version="1.0" encoding="UTF-8" standalone="no" ?>
<gpx xmlns="http://www.topografix.com/GPX/1/1" xmlns:xsi="http://www.w3.org/2001/XMLSchema-instance" xsi:schemaLocation="http://www.topografix.com/GPX/1/1 http://www.topografix.com/GPX/1/1/gpx.xsd" version="1.1" creator="VisuGPX - https://www.visugpx.com">
  <metadata>
    <name>Valempoulieres,recherche</name>
  </metadata>
  <trk>
    <name><![CDATA[Valempoulieres,recherche_1]]></name>
    <extensions>
      <line xmlns="http://www.topografix.com/GPX/gpx_style/0/2">
        <color>0000FF</color>
        <width>4</width>
      </line>
    </extensions>
    <trkseg>
      <trkpt lat="46.8347" lon="5.87007">
        <ele>665.3</ele>
        <time>2021-07-02T11:34:09Z</time>
      </trkpt>
      <trkpt lat="46.83465" lon="5.87009">
        <ele>658.3</ele>
        <time>2021-07-02T11:35:00Z</time>
      </trkpt>
      <trkpt lat="46.83461" lon="5.87006">
        <ele>658.6</ele>
        <time>2021-07-02T11:35:05Z</time>
      </trkpt>
      <trkpt lat="46.83456" lon="5.87002">
        <ele>658.8</ele>
        <time>2021-07-02T11:35:10Z</time>
      </trkpt>
      <trkpt lat="46.83454" lon="5.86996">
        <ele>659.1</ele>
        <time>2021-07-02T11:35:15Z</time>
      </trkpt>
      <trkpt lat="46.8345" lon="5.86992">
        <ele>660.2</ele>
        <time>2021-07-02T11:35:20Z</time>
      </trkpt>
      <trkpt lat="46.83447" lon="5.86987">
        <ele>661.5</ele>
        <time>2021-07-02T11:35:26Z</time>
      </trkpt>
      <trkpt lat="46.83443" lon="5.86982">
        <ele>662.7</ele>
        <time>2021-07-02T11:35:32Z</time>
      </trkpt>
      <trkpt lat="46.8344" lon="5.86977">
        <ele>663.5</ele>
        <time>2021-07-02T11:35:38Z</time>
      </trkpt>
      <trkpt lat="46.83436" lon="5.86972">
        <ele>663.6</ele>
        <time>2021-07-02T11:35:43Z</time>
      </trkpt>
      <trkpt lat="46.83432" lon="5.86973">
        <ele>664.8</ele>
        <time>2021-07-02T11:35:53Z</time>
      </trkpt>
      <trkpt lat="46.83426" lon="5.86971">
        <ele>665.1</ele>
        <time>2021-07-02T11:36:13Z</time>
      </trkpt>
      <trkpt lat="46.83421" lon="5.86972">
        <ele>665.1</ele>
        <time>2021-07-02T11:36:19Z</time>
      </trkpt>
      <trkpt lat="46.83416" lon="5.86972">
        <ele>665.1</ele>
        <time>2021-07-02T11:36:24Z</time>
      </trkpt>
      <trkpt lat="46.83411" lon="5.86971">
        <ele>665.4</ele>
        <time>2021-07-02T11:36:28Z</time>
      </trkpt>
      <trkpt lat="46.83406" lon="5.86969">
        <ele>666.1</ele>
        <time>2021-07-02T11:36:32Z</time>
      </trkpt>
      <trkpt lat="46.834" lon="5.86969">
        <ele>666.6</ele>
        <time>2021-07-02T11:36:36Z</time>
      </trkpt>
      <trkpt lat="46.83395" lon="5.86965">
        <ele>667.3</ele>
        <time>2021-07-02T11:36:41Z</time>
      </trkpt>
      <trkpt lat="46.83391" lon="5.86961">
        <ele>668.2</ele>
        <time>2021-07-02T11:36:47Z</time>
      </trkpt>
      <trkpt lat="46.83386" lon="5.8696">
        <ele>668.4</ele>
        <time>2021-07-02T11:36:52Z</time>
      </trkpt>
      <trkpt lat="46.8338" lon="5.86959">
        <ele>668.2</ele>
        <time>2021-07-02T11:36:56Z</time>
      </trkpt>
      <trkpt lat="46.83375" lon="5.86958">
        <ele>668.2</ele>
        <time>2021-07-02T11:37:01Z</time>
      </trkpt>
      <trkpt lat="46.83371" lon="5.86955">
        <ele>667.8</ele>
        <time>2021-07-02T11:37:08Z</time>
      </trkpt>
      <trkpt lat="46.83367" lon="5.86951">
        <ele>667.8</ele>
        <time>2021-07-02T11:37:14Z</time>
      </trkpt>
      <trkpt lat="46.83362" lon="5.86949">
        <ele>668.5</ele>
        <time>2021-07-02T11:37:21Z</time>
      </trkpt>
      <trkpt lat="46.83358" lon="5.86944">
        <ele>668.9</ele>
        <time>2021-07-02T11:37:25Z</time>
      </trkpt>
      <trkpt lat="46.83354" lon="5.8694">
        <ele>669.2</ele>
        <time>2021-07-02T11:37:30Z</time>
      </trkpt>
      <trkpt lat="46.8335" lon="5.86938">
        <ele>668.8</ele>
        <time>2021-07-02T11:37:35Z</time>
      </trkpt>
      <trkpt lat="46.83345" lon="5.86934">
        <ele>668.4</ele>
        <time>2021-07-02T11:37:39Z</time>
      </trkpt>
      <trkpt lat="46.8334" lon="5.8693">
        <ele>668.6</ele>
        <time>2021-07-02T11:37:43Z</time>
      </trkpt>
      <trkpt lat="46.83336" lon="5.86927">
        <ele>668.5</ele>
        <time>2021-07-02T11:37:51Z</time>
      </trkpt>
      <trkpt lat="46.83331" lon="5.86922">
        <ele>668.4</ele>
        <time>2021-07-02T11:37:59Z</time>
      </trkpt>
      <trkpt lat="46.83328" lon="5.86916">
        <ele>666.8</ele>
        <time>2021-07-02T11:38:06Z</time>
      </trkpt>
      <trkpt lat="46.83325" lon="5.86912">
        <ele>665.5</ele>
        <time>2021-07-02T11:38:11Z</time>
      </trkpt>
      <trkpt lat="46.8332" lon="5.86909">
        <ele>664.5</ele>
        <time>2021-07-02T11:38:17Z</time>
      </trkpt>
      <trkpt lat="46.83315" lon="5.86906">
        <ele>664.9</ele>
        <time>2021-07-02T11:38:22Z</time>
      </trkpt>
      <trkpt lat="46.83311" lon="5.86903">
        <ele>664.9</ele>
        <time>2021-07-02T11:38:27Z</time>
      </trkpt>
      <trkpt lat="46.83306" lon="5.86906">
        <ele>665.2</ele>
        <time>2021-07-02T11:38:34Z</time>
      </trkpt>
      <trkpt lat="46.83302" lon="5.86906">
        <ele>665.4</ele>
        <time>2021-07-02T11:38:38Z</time>
      </trkpt>
      <trkpt lat="46.83297" lon="5.86904">
        <ele>665.4</ele>
        <time>2021-07-02T11:38:43Z</time>
      </trkpt>
      <trkpt lat="46.83292" lon="5.86904">
        <ele>665.3</ele>
        <time>2021-07-02T11:38:48Z</time>
      </trkpt>
      <trkpt lat="46.83288" lon="5.86905">
        <ele>665</ele>
        <time>2021-07-02T11:38:52Z</time>
      </trkpt>
      <trkpt lat="46.83283" lon="5.86904">
        <ele>664.6</ele>
        <time>2021-07-02T11:38:57Z</time>
      </trkpt>
      <trkpt lat="46.83281" lon="5.86898">
        <ele>663.6</ele>
        <time>2021-07-02T11:39:03Z</time>
      </trkpt>
      <trkpt lat="46.83281" lon="5.86891">
        <ele>663.4</ele>
        <time>2021-07-02T11:39:08Z</time>
      </trkpt>
      <trkpt lat="46.83279" lon="5.86885">
        <ele>663.4</ele>
        <time>2021-07-02T11:39:14Z</time>
      </trkpt>
      <trkpt lat="46.83275" lon="5.86881">
        <ele>663.2</ele>
        <time>2021-07-02T11:39:26Z</time>
      </trkpt>
      <trkpt lat="46.83269" lon="5.8688">
        <ele>663.5</ele>
        <time>2021-07-02T11:39:32Z</time>
      </trkpt>
      <trkpt lat="46.83264" lon="5.86883">
        <ele>664</ele>
        <time>2021-07-02T11:39:36Z</time>
      </trkpt>
      <trkpt lat="46.83259" lon="5.86879">
        <ele>663.9</ele>
        <time>2021-07-02T11:39:46Z</time>
      </trkpt>
      <trkpt lat="46.83256" lon="5.86873">
        <ele>664.3</ele>
        <time>2021-07-02T11:39:51Z</time>
      </trkpt>
      <trkpt lat="46.83252" lon="5.86872">
        <ele>663.7</ele>
        <time>2021-07-02T11:39:56Z</time>
      </trkpt>
      <trkpt lat="46.83247" lon="5.8687">
        <ele>663.3</ele>
        <time>2021-07-02T11:40:01Z</time>
      </trkpt>
      <trkpt lat="46.83243" lon="5.86866">
        <ele>663.8</ele>
        <time>2021-07-02T11:40:08Z</time>
      </trkpt>
      <trkpt lat="46.83239" lon="5.86862">
        <ele>664.6</ele>
        <time>2021-07-02T11:40:24Z</time>
      </trkpt>
      <trkpt lat="46.83234" lon="5.8686">
        <ele>665.1</ele>
        <time>2021-07-02T11:40:37Z</time>
      </trkpt>
      <trkpt lat="46.83228" lon="5.8686">
        <ele>665.6</ele>
        <time>2021-07-02T11:40:41Z</time>
      </trkpt>
      <trkpt lat="46.83223" lon="5.86858">
        <ele>665.7</ele>
        <time>2021-07-02T11:40:45Z</time>
      </trkpt>
      <trkpt lat="46.8322" lon="5.86853">
        <ele>664.4</ele>
        <time>2021-07-02T11:40:52Z</time>
      </trkpt>
      <trkpt lat="46.83215" lon="5.8685">
        <ele>663.2</ele>
        <time>2021-07-02T11:40:57Z</time>
      </trkpt>
      <trkpt lat="46.8321" lon="5.86849">
        <ele>662.4</ele>
        <time>2021-07-02T11:41:05Z</time>
      </trkpt>
      <trkpt lat="46.83206" lon="5.86847">
        <ele>663.9</ele>
        <time>2021-07-02T11:41:11Z</time>
      </trkpt>
      <trkpt lat="46.83201" lon="5.86843">
        <ele>665.2</ele>
        <time>2021-07-02T11:41:16Z</time>
      </trkpt>
      <trkpt lat="46.83196" lon="5.86842">
        <ele>666.5</ele>
        <time>2021-07-02T11:41:21Z</time>
      </trkpt>
      <trkpt lat="46.83193" lon="5.86837">
        <ele>668.1</ele>
        <time>2021-07-02T11:41:26Z</time>
      </trkpt>
      <trkpt lat="46.83191" lon="5.86831">
        <ele>670</ele>
        <time>2021-07-02T11:41:39Z</time>
      </trkpt>
      <trkpt lat="46.83186" lon="5.86829">
        <ele>667.1</ele>
        <time>2021-07-02T11:41:58Z</time>
      </trkpt>
      <trkpt lat="46.83181" lon="5.8683">
        <ele>666.1</ele>
        <time>2021-07-02T11:42:03Z</time>
      </trkpt>
      <trkpt lat="46.83175" lon="5.8683">
        <ele>665.2</ele>
        <time>2021-07-02T11:42:09Z</time>
      </trkpt>
      <trkpt lat="46.83174" lon="5.86824">
        <ele>663.7</ele>
        <time>2021-07-02T11:42:18Z</time>
      </trkpt>
      <trkpt lat="46.8317" lon="5.8682">
        <ele>662.3</ele>
        <time>2021-07-02T11:42:24Z</time>
      </trkpt>
      <trkpt lat="46.83166" lon="5.86817">
        <ele>662.2</ele>
        <time>2021-07-02T11:42:30Z</time>
      </trkpt>
      <trkpt lat="46.83162" lon="5.86812">
        <ele>662.4</ele>
        <time>2021-07-02T11:42:35Z</time>
      </trkpt>
      <trkpt lat="46.83161" lon="5.86805">
        <ele>662.3</ele>
        <time>2021-07-02T11:42:41Z</time>
      </trkpt>
      <trkpt lat="46.83161" lon="5.86799">
        <ele>662.7</ele>
        <time>2021-07-02T11:42:48Z</time>
      </trkpt>
      <trkpt lat="46.83162" lon="5.86792">
        <ele>664.7</ele>
        <time>2021-07-02T11:42:58Z</time>
      </trkpt>
      <trkpt lat="46.83163" lon="5.86785">
        <ele>667.5</ele>
        <time>2021-07-02T11:43:04Z</time>
      </trkpt>
      <trkpt lat="46.83159" lon="5.86785">
        <ele>669.1</ele>
        <time>2021-07-02T11:43:08Z</time>
      </trkpt>
      <trkpt lat="46.83155" lon="5.8678">
        <ele>672.7</ele>
        <time>2021-07-02T11:43:21Z</time>
      </trkpt>
      <trkpt lat="46.83155" lon="5.86773">
        <ele>673.2</ele>
        <time>2021-07-02T11:43:25Z</time>
      </trkpt>
      <trkpt lat="46.83154" lon="5.86766">
        <ele>673.2</ele>
        <time>2021-07-02T11:43:34Z</time>
      </trkpt>
      <trkpt lat="46.83149" lon="5.86764">
        <ele>671.4</ele>
        <time>2021-07-02T11:43:42Z</time>
      </trkpt>
      <trkpt lat="46.83145" lon="5.8676">
        <ele>669.6</ele>
        <time>2021-07-02T11:43:51Z</time>
      </trkpt>
      <trkpt lat="46.8314" lon="5.86756">
        <ele>669.1</ele>
        <time>2021-07-02T11:43:57Z</time>
      </trkpt>
      <trkpt lat="46.83138" lon="5.86751">
        <ele>667.8</ele>
        <time>2021-07-02T11:44:03Z</time>
      </trkpt>
      <trkpt lat="46.83136" lon="5.86744">
        <ele>666</ele>
        <time>2021-07-02T11:44:09Z</time>
      </trkpt>
      <trkpt lat="46.83133" lon="5.86739">
        <ele>664.3</ele>
        <time>2021-07-02T11:44:16Z</time>
      </trkpt>
      <trkpt lat="46.83128" lon="5.86736">
        <ele>663.7</ele>
        <time>2021-07-02T11:44:22Z</time>
      </trkpt>
      <trkpt lat="46.83123" lon="5.86734">
        <ele>663.5</ele>
        <time>2021-07-02T11:44:27Z</time>
      </trkpt>
      <trkpt lat="46.83118" lon="5.86734">
        <ele>663.3</ele>
        <time>2021-07-02T11:44:31Z</time>
      </trkpt>
      <trkpt lat="46.83113" lon="5.86731">
        <ele>663.1</ele>
        <time>2021-07-02T11:44:35Z</time>
      </trkpt>
      <trkpt lat="46.83109" lon="5.86727">
        <ele>663.3</ele>
        <time>2021-07-02T11:44:50Z</time>
      </trkpt>
      <trkpt lat="46.83105" lon="5.86732">
        <ele>665</ele>
        <time>2021-07-02T11:45:18Z</time>
      </trkpt>
      <trkpt lat="46.83107" lon="5.86726">
        <ele>666</ele>
        <time>2021-07-02T11:45:40Z</time>
      </trkpt>
      <trkpt lat="46.83103" lon="5.86724">
        <ele>666</ele>
        <time>2021-07-02T11:45:45Z</time>
      </trkpt>
      <trkpt lat="46.83098" lon="5.86722">
        <ele>666.1</ele>
        <time>2021-07-02T11:45:49Z</time>
      </trkpt>
      <trkpt lat="46.83093" lon="5.86719">
        <ele>665.8</ele>
        <time>2021-07-02T11:45:55Z</time>
      </trkpt>
      <trkpt lat="46.83089" lon="5.86714">
        <ele>665.5</ele>
        <time>2021-07-02T11:46:00Z</time>
      </trkpt>
      <trkpt lat="46.83084" lon="5.86709">
        <ele>664.8</ele>
        <time>2021-07-02T11:46:05Z</time>
      </trkpt>
      <trkpt lat="46.8308" lon="5.86707">
        <ele>663.3</ele>
        <time>2021-07-02T11:46:18Z</time>
      </trkpt>
      <trkpt lat="46.83077" lon="5.86702">
        <ele>663.2</ele>
        <time>2021-07-02T11:46:48Z</time>
      </trkpt>
      <trkpt lat="46.83072" lon="5.86699">
        <ele>662.7</ele>
        <time>2021-07-02T11:46:53Z</time>
      </trkpt>
      <trkpt lat="46.83068" lon="5.86697">
        <ele>661.4</ele>
        <time>2021-07-02T11:46:59Z</time>
      </trkpt>
      <trkpt lat="46.83064" lon="5.86703">
        <ele>662.3</ele>
        <time>2021-07-02T11:47:35Z</time>
      </trkpt>
      <trkpt lat="46.8306" lon="5.8671">
        <ele>664.5</ele>
        <time>2021-07-02T11:47:39Z</time>
      </trkpt>
      <trkpt lat="46.83055" lon="5.86713">
        <ele>665.7</ele>
        <time>2021-07-02T11:47:43Z</time>
      </trkpt>
      <trkpt lat="46.83053" lon="5.86719">
        <ele>666.8</ele>
        <time>2021-07-02T11:47:50Z</time>
      </trkpt>
      <trkpt lat="46.83056" lon="5.86725">
        <ele>667.3</ele>
        <time>2021-07-02T11:47:56Z</time>
      </trkpt>
      <trkpt lat="46.83059" lon="5.86732">
        <ele>667.8</ele>
        <time>2021-07-02T11:48:02Z</time>
      </trkpt>
      <trkpt lat="46.83063" lon="5.86736">
        <ele>668.2</ele>
        <time>2021-07-02T11:48:06Z</time>
      </trkpt>
      <trkpt lat="46.83066" lon="5.86729">
        <ele>670.2</ele>
        <time>2021-07-02T11:48:25Z</time>
      </trkpt>
      <trkpt lat="46.8307" lon="5.86725">
        <ele>670.9</ele>
        <time>2021-07-02T11:48:30Z</time>
      </trkpt>
      <trkpt lat="46.83073" lon="5.8673">
        <ele>670.9</ele>
        <time>2021-07-02T11:48:41Z</time>
      </trkpt>
      <trkpt lat="46.83076" lon="5.86736">
        <ele>671.2</ele>
        <time>2021-07-02T11:48:46Z</time>
      </trkpt>
      <trkpt lat="46.83079" lon="5.8674">
        <ele>671.5</ele>
        <time>2021-07-02T11:48:51Z</time>
      </trkpt>
      <trkpt lat="46.83084" lon="5.8674">
        <ele>672.1</ele>
        <time>2021-07-02T11:49:20Z</time>
      </trkpt>
      <trkpt lat="46.83089" lon="5.8674">
        <ele>671.5</ele>
        <time>2021-07-02T11:49:27Z</time>
      </trkpt>
      <trkpt lat="46.83092" lon="5.86734">
        <ele>672.2</ele>
        <time>2021-07-02T11:49:33Z</time>
      </trkpt>
      <trkpt lat="46.83088" lon="5.86731">
        <ele>674.6</ele>
        <time>2021-07-02T11:49:55Z</time>
      </trkpt>
      <trkpt lat="46.83084" lon="5.86727">
        <ele>678</ele>
        <time>2021-07-02T11:50:10Z</time>
      </trkpt>
      <trkpt lat="46.83086" lon="5.86734">
        <ele>678.2</ele>
        <time>2021-07-02T11:50:35Z</time>
      </trkpt>
      <trkpt lat="46.83086" lon="5.86742">
        <ele>678.1</ele>
        <time>2021-07-02T11:50:42Z</time>
      </trkpt>
      <trkpt lat="46.8309" lon="5.86742">
        <ele>674.7</ele>
        <time>2021-07-02T11:51:13Z</time>
      </trkpt>
      <trkpt lat="46.83093" lon="5.86746">
        <ele>673.9</ele>
        <time>2021-07-02T11:51:19Z</time>
      </trkpt>
      <trkpt lat="46.83093" lon="5.86753">
        <ele>674.5</ele>
        <time>2021-07-02T11:51:46Z</time>
      </trkpt>
      <trkpt lat="46.83095" lon="5.86759">
        <ele>673.7</ele>
        <time>2021-07-02T11:51:52Z</time>
      </trkpt>
      <trkpt lat="46.83098" lon="5.86765">
        <ele>673.2</ele>
        <time>2021-07-02T11:51:59Z</time>
      </trkpt>
      <trkpt lat="46.831" lon="5.86771">
        <ele>673.1</ele>
        <time>2021-07-02T11:52:05Z</time>
      </trkpt>
      <trkpt lat="46.83103" lon="5.86776">
        <ele>672.9</ele>
        <time>2021-07-02T11:52:10Z</time>
      </trkpt>
      <trkpt lat="46.83108" lon="5.8678">
        <ele>672.1</ele>
        <time>2021-07-02T11:52:15Z</time>
      </trkpt>
      <trkpt lat="46.83112" lon="5.8678">
        <ele>671.5</ele>
        <time>2021-07-02T11:52:19Z</time>
      </trkpt>
      <trkpt lat="46.83117" lon="5.86778">
        <ele>670.7</ele>
        <time>2021-07-02T11:52:24Z</time>
      </trkpt>
      <trkpt lat="46.83121" lon="5.86775">
        <ele>669.8</ele>
        <time>2021-07-02T11:52:33Z</time>
      </trkpt>
      <trkpt lat="46.83126" lon="5.8678">
        <ele>669.4</ele>
        <time>2021-07-02T11:52:38Z</time>
      </trkpt>
      <trkpt lat="46.8313" lon="5.86782">
        <ele>669</ele>
        <time>2021-07-02T11:52:42Z</time>
      </trkpt>
      <trkpt lat="46.83135" lon="5.86784">
        <ele>668.6</ele>
        <time>2021-07-02T11:52:48Z</time>
      </trkpt>
      <trkpt lat="46.83139" lon="5.86786">
        <ele>667.7</ele>
        <time>2021-07-02T11:52:54Z</time>
      </trkpt>
      <trkpt lat="46.83144" lon="5.86787">
        <ele>666.9</ele>
        <time>2021-07-02T11:52:58Z</time>
      </trkpt>
      <trkpt lat="46.83149" lon="5.86787">
        <ele>666.2</ele>
        <time>2021-07-02T11:53:05Z</time>
      </trkpt>
      <trkpt lat="46.83152" lon="5.86794">
        <ele>665.8</ele>
        <time>2021-07-02T11:53:10Z</time>
      </trkpt>
      <trkpt lat="46.8315" lon="5.86801">
        <ele>666.5</ele>
        <time>2021-07-02T11:53:48Z</time>
      </trkpt>
      <trkpt lat="46.83154" lon="5.86806">
        <ele>667</ele>
        <time>2021-07-02T11:53:54Z</time>
      </trkpt>
      <trkpt lat="46.83159" lon="5.86803">
        <ele>666.3</ele>
        <time>2021-07-02T11:53:59Z</time>
      </trkpt>
      <trkpt lat="46.83163" lon="5.86797">
        <ele>665.9</ele>
        <time>2021-07-02T11:54:03Z</time>
      </trkpt>
      <trkpt lat="46.83167" lon="5.86791">
        <ele>665.7</ele>
        <time>2021-07-02T11:54:07Z</time>
      </trkpt>
      <trkpt lat="46.83168" lon="5.86785">
        <ele>664.8</ele>
        <time>2021-07-02T11:54:13Z</time>
      </trkpt>
      <trkpt lat="46.83165" lon="5.86779">
        <ele>663.4</ele>
        <time>2021-07-02T11:54:19Z</time>
      </trkpt>
      <trkpt lat="46.83162" lon="5.86773">
        <ele>662.1</ele>
        <time>2021-07-02T11:54:25Z</time>
      </trkpt>
      <trkpt lat="46.83157" lon="5.86769">
        <ele>660.5</ele>
        <time>2021-07-02T11:54:31Z</time>
      </trkpt>
      <trkpt lat="46.83153" lon="5.86765">
        <ele>658.6</ele>
        <time>2021-07-02T11:54:37Z</time>
      </trkpt>
      <trkpt lat="46.83148" lon="5.86762">
        <ele>657.9</ele>
        <time>2021-07-02T11:54:45Z</time>
      </trkpt>
      <trkpt lat="46.83144" lon="5.86759">
        <ele>658.3</ele>
        <time>2021-07-02T11:54:50Z</time>
      </trkpt>
      <trkpt lat="46.83141" lon="5.86754">
        <ele>658.4</ele>
        <time>2021-07-02T11:54:57Z</time>
      </trkpt>
      <trkpt lat="46.83135" lon="5.8675">
        <ele>659</ele>
        <time>2021-07-02T11:55:05Z</time>
      </trkpt>
      <trkpt lat="46.83131" lon="5.86747">
        <ele>660</ele>
        <time>2021-07-02T11:55:09Z</time>
      </trkpt>
      <trkpt lat="46.83125" lon="5.86744">
        <ele>661.4</ele>
        <time>2021-07-02T11:55:14Z</time>
      </trkpt>
      <trkpt lat="46.8312" lon="5.86742">
        <ele>662.3</ele>
        <time>2021-07-02T11:55:19Z</time>
      </trkpt>
      <trkpt lat="46.83116" lon="5.86738">
        <ele>662.4</ele>
        <time>2021-07-02T11:55:25Z</time>
      </trkpt>
      <trkpt lat="46.83111" lon="5.86734">
        <ele>662.4</ele>
        <time>2021-07-02T11:55:29Z</time>
      </trkpt>
      <trkpt lat="46.83109" lon="5.86728">
        <ele>662.6</ele>
        <time>2021-07-02T11:55:34Z</time>
      </trkpt>
      <trkpt lat="46.83113" lon="5.86725">
        <ele>665.7</ele>
        <time>2021-07-02T11:56:01Z</time>
      </trkpt>
      <trkpt lat="46.83109" lon="5.86721">
        <ele>666.6</ele>
        <time>2021-07-02T11:57:12Z</time>
      </trkpt>
      <trkpt lat="46.83105" lon="5.86718">
        <ele>667.4</ele>
        <time>2021-07-02T11:57:17Z</time>
      </trkpt>
      <trkpt lat="46.83102" lon="5.86713">
        <ele>668.6</ele>
        <time>2021-07-02T11:57:26Z</time>
      </trkpt>
      <trkpt lat="46.83107" lon="5.86715">
        <ele>668.9</ele>
        <time>2021-07-02T11:57:36Z</time>
      </trkpt>
      <trkpt lat="46.8311" lon="5.8672">
        <ele>668.8</ele>
        <time>2021-07-02T11:57:41Z</time>
      </trkpt>
      <trkpt lat="46.83114" lon="5.86725">
        <ele>665.7</ele>
        <time>2021-07-02T11:58:49Z</time>
      </trkpt>
      <trkpt lat="46.83108" lon="5.86724">
        <ele>664.4</ele>
        <time>2021-07-02T11:58:59Z</time>
      </trkpt>
      <trkpt lat="46.83113" lon="5.86722">
        <ele>666.9</ele>
        <time>2021-07-02T11:59:42Z</time>
      </trkpt>
      <trkpt lat="46.83108" lon="5.86724">
        <ele>668.2</ele>
        <time>2021-07-02T12:00:04Z</time>
      </trkpt>
      <trkpt lat="46.83103" lon="5.86726">
        <ele>668.3</ele>
        <time>2021-07-02T12:00:13Z</time>
      </trkpt>
      <trkpt lat="46.83099" lon="5.86728">
        <ele>668.3</ele>
        <time>2021-07-02T12:00:19Z</time>
      </trkpt>
      <trkpt lat="46.83104" lon="5.86725">
        <ele>669.4</ele>
        <time>2021-07-02T12:00:37Z</time>
      </trkpt>
      <trkpt lat="46.83111" lon="5.86724">
        <ele>670.3</ele>
        <time>2021-07-02T12:00:52Z</time>
      </trkpt>
      <trkpt lat="46.83116" lon="5.86724">
        <ele>670</ele>
        <time>2021-07-02T12:01:30Z</time>
      </trkpt>
      <trkpt lat="46.83112" lon="5.86728">
        <ele>655.8</ele>
        <time>2021-07-02T12:07:56Z</time>
      </trkpt>
      <trkpt lat="46.83108" lon="5.86724">
        <ele>659.4</ele>
        <time>2021-07-02T12:08:32Z</time>
      </trkpt>
      <trkpt lat="46.83103" lon="5.86721">
        <ele>659.6</ele>
        <time>2021-07-02T12:08:39Z</time>
      </trkpt>
      <trkpt lat="46.83099" lon="5.86718">
        <ele>658.4</ele>
        <time>2021-07-02T12:08:46Z</time>
      </trkpt>
      <trkpt lat="46.83094" lon="5.86716">
        <ele>656.7</ele>
        <time>2021-07-02T12:08:52Z</time>
      </trkpt>
      <trkpt lat="46.8309" lon="5.86715">
        <ele>655.6</ele>
        <time>2021-07-02T12:08:56Z</time>
      </trkpt>
      <trkpt lat="46.83086" lon="5.86711">
        <ele>654.1</ele>
        <time>2021-07-02T12:09:00Z</time>
      </trkpt>
      <trkpt lat="46.83082" lon="5.86706">
        <ele>652.6</ele>
        <time>2021-07-02T12:09:04Z</time>
      </trkpt>
      <trkpt lat="46.83078" lon="5.86703">
        <ele>651</ele>
        <time>2021-07-02T12:09:09Z</time>
      </trkpt>
      <trkpt lat="46.83074" lon="5.867">
        <ele>650</ele>
        <time>2021-07-02T12:09:15Z</time>
      </trkpt>
      <trkpt lat="46.83069" lon="5.86697">
        <ele>649.4</ele>
        <time>2021-07-02T12:09:20Z</time>
      </trkpt>
      <trkpt lat="46.83065" lon="5.86694">
        <ele>649.2</ele>
        <time>2021-07-02T12:09:26Z</time>
      </trkpt>
      <trkpt lat="46.83061" lon="5.86689">
        <ele>649.5</ele>
        <time>2021-07-02T12:09:30Z</time>
      </trkpt>
      <trkpt lat="46.83058" lon="5.86685">
        <ele>649.8</ele>
        <time>2021-07-02T12:09:35Z</time>
      </trkpt>
      <trkpt lat="46.83054" lon="5.86679">
        <ele>650.9</ele>
        <time>2021-07-02T12:09:40Z</time>
      </trkpt>
      <trkpt lat="46.8305" lon="5.86675">
        <ele>652.3</ele>
        <time>2021-07-02T12:09:45Z</time>
      </trkpt>
      <trkpt lat="46.83046" lon="5.86671">
        <ele>653.4</ele>
        <time>2021-07-02T12:09:50Z</time>
      </trkpt>
      <trkpt lat="46.83042" lon="5.86666">
        <ele>655.2</ele>
        <time>2021-07-02T12:09:56Z</time>
      </trkpt>
      <trkpt lat="46.83038" lon="5.86661">
        <ele>657.1</ele>
        <time>2021-07-02T12:10:01Z</time>
      </trkpt>
      <trkpt lat="46.83034" lon="5.86656">
        <ele>658.8</ele>
        <time>2021-07-02T12:10:06Z</time>
      </trkpt>
      <trkpt lat="46.8303" lon="5.86653">
        <ele>659.7</ele>
        <time>2021-07-02T12:10:10Z</time>
      </trkpt>
      <trkpt lat="46.83026" lon="5.86648">
        <ele>660.7</ele>
        <time>2021-07-02T12:10:14Z</time>
      </trkpt>
      <trkpt lat="46.83023" lon="5.86643">
        <ele>661.9</ele>
        <time>2021-07-02T12:10:19Z</time>
      </trkpt>
      <trkpt lat="46.83019" lon="5.86638">
        <ele>662</ele>
        <time>2021-07-02T12:10:24Z</time>
      </trkpt>
      <trkpt lat="46.83014" lon="5.86636">
        <ele>661.3</ele>
        <time>2021-07-02T12:10:28Z</time>
      </trkpt>
      <trkpt lat="46.83009" lon="5.86635">
        <ele>660.6</ele>
        <time>2021-07-02T12:10:32Z</time>
      </trkpt>
      <trkpt lat="46.83004" lon="5.86632">
        <ele>660.2</ele>
        <time>2021-07-02T12:10:37Z</time>
      </trkpt>
      <trkpt lat="46.83" lon="5.86628">
        <ele>659.5</ele>
        <time>2021-07-02T12:10:41Z</time>
      </trkpt>
      <trkpt lat="46.82995" lon="5.86626">
        <ele>658.2</ele>
        <time>2021-07-02T12:10:47Z</time>
      </trkpt>
      <trkpt lat="46.8299" lon="5.86624">
        <ele>657.4</ele>
        <time>2021-07-02T12:10:52Z</time>
      </trkpt>
      <trkpt lat="46.82987" lon="5.86619">
        <ele>655.9</ele>
        <time>2021-07-02T12:11:00Z</time>
      </trkpt>
      <trkpt lat="46.82982" lon="5.86619">
        <ele>660.5</ele>
        <time>2021-07-02T12:11:41Z</time>
      </trkpt>
      <trkpt lat="46.82978" lon="5.86617">
        <ele>661.3</ele>
        <time>2021-07-02T12:11:47Z</time>
      </trkpt>
      <trkpt lat="46.82973" lon="5.86614">
        <ele>661.3</ele>
        <time>2021-07-02T12:11:52Z</time>
      </trkpt>
      <trkpt lat="46.82966" lon="5.86613">
        <ele>661</ele>
        <time>2021-07-02T12:11:56Z</time>
      </trkpt>
      <trkpt lat="46.82961" lon="5.86611">
        <ele>661.1</ele>
        <time>2021-07-02T12:12:00Z</time>
      </trkpt>
      <trkpt lat="46.82956" lon="5.86608">
        <ele>661.6</ele>
        <time>2021-07-02T12:12:04Z</time>
      </trkpt>
      <trkpt lat="46.82952" lon="5.86605">
        <ele>662.1</ele>
        <time>2021-07-02T12:12:08Z</time>
      </trkpt>
      <trkpt lat="46.82948" lon="5.86601">
        <ele>662.5</ele>
        <time>2021-07-02T12:12:13Z</time>
      </trkpt>
      <trkpt lat="46.82943" lon="5.86596">
        <ele>662.1</ele>
        <time>2021-07-02T12:12:19Z</time>
      </trkpt>
      <trkpt lat="46.82937" lon="5.86593">
        <ele>661</ele>
        <time>2021-07-02T12:12:23Z</time>
      </trkpt>
      <trkpt lat="46.82933" lon="5.8659">
        <ele>659.7</ele>
        <time>2021-07-02T12:12:28Z</time>
      </trkpt>
      <trkpt lat="46.82928" lon="5.86587">
        <ele>657.8</ele>
        <time>2021-07-02T12:12:34Z</time>
      </trkpt>
      <trkpt lat="46.82923" lon="5.86586">
        <ele>654.5</ele>
        <time>2021-07-02T12:12:43Z</time>
      </trkpt>
      <trkpt lat="46.82919" lon="5.86585">
        <ele>652.4</ele>
        <time>2021-07-02T12:12:51Z</time>
      </trkpt>
      <trkpt lat="46.82914" lon="5.8658">
        <ele>651.1</ele>
        <time>2021-07-02T12:12:56Z</time>
      </trkpt>
      <trkpt lat="46.82909" lon="5.86576">
        <ele>650</ele>
        <time>2021-07-02T12:13:00Z</time>
      </trkpt>
      <trkpt lat="46.82904" lon="5.86571">
        <ele>648.9</ele>
        <time>2021-07-02T12:13:04Z</time>
      </trkpt>
      <trkpt lat="46.829" lon="5.86566">
        <ele>647.9</ele>
        <time>2021-07-02T12:13:08Z</time>
      </trkpt>
      <trkpt lat="46.82896" lon="5.86563">
        <ele>647</ele>
        <time>2021-07-02T12:13:12Z</time>
      </trkpt>
      <trkpt lat="46.82893" lon="5.86559">
        <ele>646.2</ele>
        <time>2021-07-02T12:13:19Z</time>
      </trkpt>
      <trkpt lat="46.82889" lon="5.86555">
        <ele>648.1</ele>
        <time>2021-07-02T12:13:37Z</time>
      </trkpt>
      <trkpt lat="46.82885" lon="5.8655">
        <ele>651.2</ele>
        <time>2021-07-02T12:13:57Z</time>
      </trkpt>
      <trkpt lat="46.82881" lon="5.86547">
        <ele>652.4</ele>
        <time>2021-07-02T12:14:01Z</time>
      </trkpt>
      <trkpt lat="46.82875" lon="5.86543">
        <ele>653.6</ele>
        <time>2021-07-02T12:14:05Z</time>
      </trkpt>
      <trkpt lat="46.82871" lon="5.8654">
        <ele>654.9</ele>
        <time>2021-07-02T12:14:09Z</time>
      </trkpt>
      <trkpt lat="46.82866" lon="5.86539">
        <ele>655.8</ele>
        <time>2021-07-02T12:14:15Z</time>
      </trkpt>
      <trkpt lat="46.82861" lon="5.86539">
        <ele>656.7</ele>
        <time>2021-07-02T12:14:23Z</time>
      </trkpt>
      <trkpt lat="46.82856" lon="5.86536">
        <ele>656.1</ele>
        <time>2021-07-02T12:14:29Z</time>
      </trkpt>
      <trkpt lat="46.82851" lon="5.86533">
        <ele>655.1</ele>
        <time>2021-07-02T12:14:34Z</time>
      </trkpt>
      <trkpt lat="46.82847" lon="5.86532">
        <ele>652.9</ele>
        <time>2021-07-02T12:14:39Z</time>
      </trkpt>
      <trkpt lat="46.82841" lon="5.86531">
        <ele>649.9</ele>
        <time>2021-07-02T12:14:45Z</time>
      </trkpt>
      <trkpt lat="46.82837" lon="5.86528">
        <ele>647.6</ele>
        <time>2021-07-02T12:14:52Z</time>
      </trkpt>
      <trkpt lat="46.82832" lon="5.86525">
        <ele>647.5</ele>
        <time>2021-07-02T12:14:56Z</time>
      </trkpt>
      <trkpt lat="46.82827" lon="5.86522">
        <ele>647.5</ele>
        <time>2021-07-02T12:15:01Z</time>
      </trkpt>
      <trkpt lat="46.82824" lon="5.86517">
        <ele>647.3</ele>
        <time>2021-07-02T12:15:06Z</time>
      </trkpt>
      <trkpt lat="46.82819" lon="5.86513">
        <ele>646.9</ele>
        <time>2021-07-02T12:15:12Z</time>
      </trkpt>
      <trkpt lat="46.82815" lon="5.86511">
        <ele>646.1</ele>
        <time>2021-07-02T12:15:18Z</time>
      </trkpt>
      <trkpt lat="46.82811" lon="5.86506">
        <ele>645.7</ele>
        <time>2021-07-02T12:15:23Z</time>
      </trkpt>
      <trkpt lat="46.8281" lon="5.86499">
        <ele>645.1</ele>
        <time>2021-07-02T12:15:27Z</time>
      </trkpt>
      <trkpt lat="46.8281" lon="5.86491">
        <ele>644.4</ele>
        <time>2021-07-02T12:15:32Z</time>
      </trkpt>
      <trkpt lat="46.82811" lon="5.86484">
        <ele>643.7</ele>
        <time>2021-07-02T12:15:37Z</time>
      </trkpt>
      <trkpt lat="46.82814" lon="5.86477">
        <ele>643.3</ele>
        <time>2021-07-02T12:15:42Z</time>
      </trkpt>
      <trkpt lat="46.82816" lon="5.86471">
        <ele>643.2</ele>
        <time>2021-07-02T12:15:46Z</time>
      </trkpt>
      <trkpt lat="46.82816" lon="5.86463">
        <ele>643.2</ele>
        <time>2021-07-02T12:15:50Z</time>
      </trkpt>
      <trkpt lat="46.82816" lon="5.86456">
        <ele>643.4</ele>
        <time>2021-07-02T12:15:55Z</time>
      </trkpt>
      <trkpt lat="46.82817" lon="5.8645">
        <ele>644.1</ele>
        <time>2021-07-02T12:16:01Z</time>
      </trkpt>
      <trkpt lat="46.82821" lon="5.86444">
        <ele>644.5</ele>
        <time>2021-07-02T12:16:06Z</time>
      </trkpt>
      <trkpt lat="46.82825" lon="5.86441">
        <ele>644.7</ele>
        <time>2021-07-02T12:16:10Z</time>
      </trkpt>
      <trkpt lat="46.82828" lon="5.86435">
        <ele>644.2</ele>
        <time>2021-07-02T12:16:16Z</time>
      </trkpt>
      <trkpt lat="46.82832" lon="5.86432">
        <ele>643.4</ele>
        <time>2021-07-02T12:16:20Z</time>
      </trkpt>
      <trkpt lat="46.82837" lon="5.86429">
        <ele>642.4</ele>
        <time>2021-07-02T12:16:25Z</time>
      </trkpt>
      <trkpt lat="46.82841" lon="5.86425">
        <ele>641</ele>
        <time>2021-07-02T12:16:33Z</time>
      </trkpt>
      <trkpt lat="46.82845" lon="5.86421">
        <ele>640.2</ele>
        <time>2021-07-02T12:16:38Z</time>
      </trkpt>
      <trkpt lat="46.8285" lon="5.86418">
        <ele>639.3</ele>
        <time>2021-07-02T12:16:42Z</time>
      </trkpt>
      <trkpt lat="46.82856" lon="5.86415">
        <ele>638.3</ele>
        <time>2021-07-02T12:16:46Z</time>
      </trkpt>
      <trkpt lat="46.8286" lon="5.86414">
        <ele>637.3</ele>
        <time>2021-07-02T12:16:50Z</time>
      </trkpt>
      <trkpt lat="46.82865" lon="5.8641">
        <ele>636.4</ele>
        <time>2021-07-02T12:16:55Z</time>
      </trkpt>
      <trkpt lat="46.82869" lon="5.86407">
        <ele>636</ele>
        <time>2021-07-02T12:16:59Z</time>
      </trkpt>
      <trkpt lat="46.82874" lon="5.86404">
        <ele>635.8</ele>
        <time>2021-07-02T12:17:03Z</time>
      </trkpt>
      <trkpt lat="46.82879" lon="5.86402">
        <ele>635.8</ele>
        <time>2021-07-02T12:17:08Z</time>
      </trkpt>
      <trkpt lat="46.82883" lon="5.86399">
        <ele>635.6</ele>
        <time>2021-07-02T12:17:12Z</time>
      </trkpt>
      <trkpt lat="46.8289" lon="5.86396">
        <ele>635.2</ele>
        <time>2021-07-02T12:17:16Z</time>
      </trkpt>
      <trkpt lat="46.82895" lon="5.86394">
        <ele>635.1</ele>
        <time>2021-07-02T12:17:20Z</time>
      </trkpt>
      <trkpt lat="46.829" lon="5.86391">
        <ele>636.3</ele>
        <time>2021-07-02T12:17:31Z</time>
      </trkpt>
      <trkpt lat="46.82904" lon="5.86389">
        <ele>635.9</ele>
        <time>2021-07-02T12:17:35Z</time>
      </trkpt>
      <trkpt lat="46.8291" lon="5.86387">
        <ele>634.9</ele>
        <time>2021-07-02T12:17:40Z</time>
      </trkpt>
      <trkpt lat="46.82914" lon="5.86384">
        <ele>633.7</ele>
        <time>2021-07-02T12:17:45Z</time>
      </trkpt>
      <trkpt lat="46.82918" lon="5.86381">
        <ele>632.8</ele>
        <time>2021-07-02T12:17:50Z</time>
      </trkpt>
      <trkpt lat="46.82923" lon="5.86379">
        <ele>632.2</ele>
        <time>2021-07-02T12:17:55Z</time>
      </trkpt>
      <trkpt lat="46.82927" lon="5.86376">
        <ele>631.8</ele>
        <time>2021-07-02T12:18:01Z</time>
      </trkpt>
      <trkpt lat="46.82932" lon="5.86373">
        <ele>631.5</ele>
        <time>2021-07-02T12:18:06Z</time>
      </trkpt>
      <trkpt lat="46.82937" lon="5.8637">
        <ele>630.9</ele>
        <time>2021-07-02T12:18:11Z</time>
      </trkpt>
      <trkpt lat="46.82942" lon="5.86368">
        <ele>630.7</ele>
        <time>2021-07-02T12:18:16Z</time>
      </trkpt>
      <trkpt lat="46.82946" lon="5.86366">
        <ele>630.3</ele>
        <time>2021-07-02T12:18:20Z</time>
      </trkpt>
      <trkpt lat="46.82946" lon="5.86359">
        <ele>630.9</ele>
        <time>2021-07-02T12:18:27Z</time>
      </trkpt>
      <trkpt lat="46.82941" lon="5.86357">
        <ele>632.3</ele>
        <time>2021-07-02T12:18:32Z</time>
      </trkpt>
      <trkpt lat="46.82937" lon="5.86354">
        <ele>633.3</ele>
        <time>2021-07-02T12:18:38Z</time>
      </trkpt>
      <trkpt lat="46.82932" lon="5.86352">
        <ele>633.8</ele>
        <time>2021-07-02T12:18:44Z</time>
      </trkpt>
      <trkpt lat="46.82927" lon="5.86354">
        <ele>633.8</ele>
        <time>2021-07-02T12:18:50Z</time>
      </trkpt>
      <trkpt lat="46.82923" lon="5.86356">
        <ele>633.5</ele>
        <time>2021-07-02T12:18:55Z</time>
      </trkpt>
      <trkpt lat="46.82917" lon="5.86357">
        <ele>633.4</ele>
        <time>2021-07-02T12:18:59Z</time>
      </trkpt>
      <trkpt lat="46.82913" lon="5.86357">
        <ele>633.3</ele>
        <time>2021-07-02T12:19:03Z</time>
      </trkpt>
      <trkpt lat="46.82908" lon="5.86358">
        <ele>633.1</ele>
        <time>2021-07-02T12:19:09Z</time>
      </trkpt>
      <trkpt lat="46.82903" lon="5.8636">
        <ele>632.5</ele>
        <time>2021-07-02T12:19:16Z</time>
      </trkpt>
      <trkpt lat="46.82897" lon="5.86361">
        <ele>631.8</ele>
        <time>2021-07-02T12:19:21Z</time>
      </trkpt>
      <trkpt lat="46.82891" lon="5.86362">
        <ele>631.2</ele>
        <time>2021-07-02T12:19:26Z</time>
      </trkpt>
      <trkpt lat="46.82888" lon="5.86357">
        <ele>630.1</ele>
        <time>2021-07-02T12:19:33Z</time>
      </trkpt>
      <trkpt lat="46.82891" lon="5.86352">
        <ele>629.7</ele>
        <time>2021-07-02T12:19:38Z</time>
      </trkpt>
      <trkpt lat="46.82895" lon="5.86347">
        <ele>628.8</ele>
        <time>2021-07-02T12:19:45Z</time>
      </trkpt>
      <trkpt lat="46.82898" lon="5.86341">
        <ele>628.5</ele>
        <time>2021-07-02T12:19:57Z</time>
      </trkpt>
      <trkpt lat="46.82901" lon="5.86335">
        <ele>628.6</ele>
        <time>2021-07-02T12:20:01Z</time>
      </trkpt>
      <trkpt lat="46.82903" lon="5.86329">
        <ele>628.6</ele>
        <time>2021-07-02T12:20:05Z</time>
      </trkpt>
      <trkpt lat="46.82903" lon="5.86321">
        <ele>628.4</ele>
        <time>2021-07-02T12:20:11Z</time>
      </trkpt>
      <trkpt lat="46.82903" lon="5.86313">
        <ele>628.1</ele>
        <time>2021-07-02T12:20:16Z</time>
      </trkpt>
      <trkpt lat="46.82902" lon="5.86306">
        <ele>628.1</ele>
        <time>2021-07-02T12:20:21Z</time>
      </trkpt>
      <trkpt lat="46.82903" lon="5.86299">
        <ele>628.3</ele>
        <time>2021-07-02T12:20:27Z</time>
      </trkpt>
      <trkpt lat="46.82904" lon="5.86291">
        <ele>628.5</ele>
        <time>2021-07-02T12:20:32Z</time>
      </trkpt>
      <trkpt lat="46.82906" lon="5.86285">
        <ele>628.5</ele>
        <time>2021-07-02T12:20:37Z</time>
      </trkpt>
      <trkpt lat="46.82906" lon="5.86278">
        <ele>627.8</ele>
        <time>2021-07-02T12:20:42Z</time>
      </trkpt>
      <trkpt lat="46.82908" lon="5.8627">
        <ele>627.3</ele>
        <time>2021-07-02T12:20:47Z</time>
      </trkpt>
      <trkpt lat="46.82909" lon="5.86263">
        <ele>627.6</ele>
        <time>2021-07-02T12:20:52Z</time>
      </trkpt>
      <trkpt lat="46.82909" lon="5.86256">
        <ele>628.6</ele>
        <time>2021-07-02T12:20:56Z</time>
      </trkpt>
      <trkpt lat="46.8291" lon="5.86248">
        <ele>630</ele>
        <time>2021-07-02T12:21:01Z</time>
      </trkpt>
      <trkpt lat="46.82912" lon="5.86241">
        <ele>631.3</ele>
        <time>2021-07-02T12:21:06Z</time>
      </trkpt>
      <trkpt lat="46.82914" lon="5.86234">
        <ele>632.6</ele>
        <time>2021-07-02T12:21:11Z</time>
      </trkpt>
      <trkpt lat="46.82916" lon="5.86228">
        <ele>633.1</ele>
        <time>2021-07-02T12:21:15Z</time>
      </trkpt>
      <trkpt lat="46.82917" lon="5.86222">
        <ele>633.6</ele>
        <time>2021-07-02T12:21:20Z</time>
      </trkpt>
      <trkpt lat="46.82919" lon="5.86215">
        <ele>633.5</ele>
        <time>2021-07-02T12:21:31Z</time>
      </trkpt>
      <trkpt lat="46.82919" lon="5.86207">
        <ele>633.7</ele>
        <time>2021-07-02T12:21:38Z</time>
      </trkpt>
      <trkpt lat="46.82917" lon="5.86201">
        <ele>634.2</ele>
        <time>2021-07-02T12:21:45Z</time>
      </trkpt>
      <trkpt lat="46.82914" lon="5.86196">
        <ele>635.5</ele>
        <time>2021-07-02T12:21:52Z</time>
      </trkpt>
      <trkpt lat="46.8291" lon="5.86192">
        <ele>637.1</ele>
        <time>2021-07-02T12:21:58Z</time>
      </trkpt>
      <trkpt lat="46.82906" lon="5.86187">
        <ele>639.5</ele>
        <time>2021-07-02T12:22:05Z</time>
      </trkpt>
      <trkpt lat="46.82903" lon="5.86181">
        <ele>641.4</ele>
        <time>2021-07-02T12:22:12Z</time>
      </trkpt>
      <trkpt lat="46.82899" lon="5.86177">
        <ele>642.9</ele>
        <time>2021-07-02T12:22:17Z</time>
      </trkpt>
      <trkpt lat="46.82896" lon="5.86173">
        <ele>645.2</ele>
        <time>2021-07-02T12:22:24Z</time>
      </trkpt>
      <trkpt lat="46.82893" lon="5.86167">
        <ele>646.4</ele>
        <time>2021-07-02T12:22:30Z</time>
      </trkpt>
      <trkpt lat="46.8289" lon="5.86162">
        <ele>646.8</ele>
        <time>2021-07-02T12:22:35Z</time>
      </trkpt>
      <trkpt lat="46.82887" lon="5.86156">
        <ele>646.7</ele>
        <time>2021-07-02T12:22:44Z</time>
      </trkpt>
      <trkpt lat="46.82884" lon="5.8615">
        <ele>645.9</ele>
        <time>2021-07-02T12:22:50Z</time>
      </trkpt>
      <trkpt lat="46.82883" lon="5.86143">
        <ele>645</ele>
        <time>2021-07-02T12:22:55Z</time>
      </trkpt>
      <trkpt lat="46.82881" lon="5.86137">
        <ele>644.4</ele>
        <time>2021-07-02T12:23:01Z</time>
      </trkpt>
      <trkpt lat="46.82878" lon="5.86131">
        <ele>644.5</ele>
        <time>2021-07-02T12:23:07Z</time>
      </trkpt>
      <trkpt lat="46.82875" lon="5.86125">
        <ele>644.8</ele>
        <time>2021-07-02T12:23:14Z</time>
      </trkpt>
      <trkpt lat="46.82875" lon="5.86118">
        <ele>645.7</ele>
        <time>2021-07-02T12:23:21Z</time>
      </trkpt>
      <trkpt lat="46.82871" lon="5.86111">
        <ele>646.3</ele>
        <time>2021-07-02T12:23:26Z</time>
      </trkpt>
      <trkpt lat="46.82867" lon="5.86106">
        <ele>646.9</ele>
        <time>2021-07-02T12:23:30Z</time>
      </trkpt>
      <trkpt lat="46.82864" lon="5.86101">
        <ele>647.3</ele>
        <time>2021-07-02T12:23:38Z</time>
      </trkpt>
      <trkpt lat="46.82864" lon="5.86094">
        <ele>646.3</ele>
        <time>2021-07-02T12:23:50Z</time>
      </trkpt>
      <trkpt lat="46.82861" lon="5.86088">
        <ele>645.6</ele>
        <time>2021-07-02T12:23:57Z</time>
      </trkpt>
      <trkpt lat="46.82859" lon="5.86082">
        <ele>646.2</ele>
        <time>2021-07-02T12:24:02Z</time>
      </trkpt>
      <trkpt lat="46.82856" lon="5.86076">
        <ele>647.1</ele>
        <time>2021-07-02T12:24:07Z</time>
      </trkpt>
      <trkpt lat="46.82852" lon="5.86071">
        <ele>647.9</ele>
        <time>2021-07-02T12:24:13Z</time>
      </trkpt>
      <trkpt lat="46.82849" lon="5.86065">
        <ele>648.7</ele>
        <time>2021-07-02T12:24:20Z</time>
      </trkpt>
      <trkpt lat="46.82847" lon="5.86071">
        <ele>650</ele>
        <time>2021-07-02T12:24:37Z</time>
      </trkpt>
      <trkpt lat="46.82851" lon="5.86068">
        <ele>652</ele>
        <time>2021-07-02T12:24:49Z</time>
      </trkpt>
      <trkpt lat="46.82855" lon="5.86065">
        <ele>652.6</ele>
        <time>2021-07-02T12:24:53Z</time>
      </trkpt>
      <trkpt lat="46.82861" lon="5.86063">
        <ele>652.4</ele>
        <time>2021-07-02T12:24:57Z</time>
      </trkpt>
      <trkpt lat="46.82866" lon="5.86062">
        <ele>652.1</ele>
        <time>2021-07-02T12:25:01Z</time>
      </trkpt>
      <trkpt lat="46.82871" lon="5.86062">
        <ele>652.2</ele>
        <time>2021-07-02T12:25:08Z</time>
      </trkpt>
      <trkpt lat="46.82873" lon="5.86056">
        <ele>652.3</ele>
        <time>2021-07-02T12:25:12Z</time>
      </trkpt>
      <trkpt lat="46.82873" lon="5.86049">
        <ele>652.2</ele>
        <time>2021-07-02T12:25:19Z</time>
      </trkpt>
      <trkpt lat="46.82875" lon="5.86056">
        <ele>652.2</ele>
        <time>2021-07-02T12:25:31Z</time>
      </trkpt>
      <trkpt lat="46.8288" lon="5.86055">
        <ele>652.6</ele>
        <time>2021-07-02T12:25:41Z</time>
      </trkpt>
      <trkpt lat="46.82883" lon="5.8605">
        <ele>652.8</ele>
        <time>2021-07-02T12:25:46Z</time>
      </trkpt>
      <trkpt lat="46.82888" lon="5.86048">
        <ele>652.9</ele>
        <time>2021-07-02T12:25:50Z</time>
      </trkpt>
      <trkpt lat="46.82888" lon="5.86042">
        <ele>652.8</ele>
        <time>2021-07-02T12:25:57Z</time>
      </trkpt>
      <trkpt lat="46.82892" lon="5.86036">
        <ele>652.7</ele>
        <time>2021-07-02T12:26:06Z</time>
      </trkpt>
      <trkpt lat="46.82896" lon="5.86031">
        <ele>652.7</ele>
        <time>2021-07-02T12:26:11Z</time>
      </trkpt>
      <trkpt lat="46.82901" lon="5.86029">
        <ele>653.2</ele>
        <time>2021-07-02T12:26:15Z</time>
      </trkpt>
      <trkpt lat="46.82907" lon="5.86025">
        <ele>654.2</ele>
        <time>2021-07-02T12:26:19Z</time>
      </trkpt>
      <trkpt lat="46.82913" lon="5.86021">
        <ele>655.3</ele>
        <time>2021-07-02T12:26:23Z</time>
      </trkpt>
      <trkpt lat="46.8292" lon="5.86016">
        <ele>656.2</ele>
        <time>2021-07-02T12:26:27Z</time>
      </trkpt>
      <trkpt lat="46.82922" lon="5.86009">
        <ele>657.6</ele>
        <time>2021-07-02T12:26:31Z</time>
      </trkpt>
      <trkpt lat="46.82919" lon="5.86002">
        <ele>659.1</ele>
        <time>2021-07-02T12:26:35Z</time>
      </trkpt>
      <trkpt lat="46.82916" lon="5.85996">
        <ele>660.4</ele>
        <time>2021-07-02T12:26:39Z</time>
      </trkpt>
      <trkpt lat="46.82919" lon="5.85991">
        <ele>664.2</ele>
        <time>2021-07-02T12:26:50Z</time>
      </trkpt>
      <trkpt lat="46.82914" lon="5.85991">
        <ele>663.9</ele>
        <time>2021-07-02T12:26:59Z</time>
      </trkpt>
      <trkpt lat="46.82915" lon="5.85984">
        <ele>663.5</ele>
        <time>2021-07-02T12:27:12Z</time>
      </trkpt>
      <trkpt lat="46.82914" lon="5.85977">
        <ele>663.4</ele>
        <time>2021-07-02T12:27:16Z</time>
      </trkpt>
      <trkpt lat="46.82912" lon="5.8597">
        <ele>663.1</ele>
        <time>2021-07-02T12:27:22Z</time>
      </trkpt>
      <trkpt lat="46.82914" lon="5.85964">
        <ele>662.4</ele>
        <time>2021-07-02T12:27:29Z</time>
      </trkpt>
      <trkpt lat="46.8291" lon="5.85963">
        <ele>661.4</ele>
        <time>2021-07-02T12:27:39Z</time>
      </trkpt>
      <trkpt lat="46.82905" lon="5.85968">
        <ele>660.8</ele>
        <time>2021-07-02T12:27:43Z</time>
      </trkpt>
      <trkpt lat="46.82902" lon="5.85972">
        <ele>659.1</ele>
        <time>2021-07-02T12:27:48Z</time>
      </trkpt>
      <trkpt lat="46.82899" lon="5.85978">
        <ele>656.9</ele>
        <time>2021-07-02T12:27:52Z</time>
      </trkpt>
      <trkpt lat="46.82897" lon="5.85984">
        <ele>654.6</ele>
        <time>2021-07-02T12:27:57Z</time>
      </trkpt>
      <trkpt lat="46.82897" lon="5.85992">
        <ele>653.3</ele>
        <time>2021-07-02T12:28:02Z</time>
      </trkpt>
      <trkpt lat="46.82897" lon="5.85998">
        <ele>652.9</ele>
        <time>2021-07-02T12:28:07Z</time>
      </trkpt>
      <trkpt lat="46.82893" lon="5.86002">
        <ele>652.2</ele>
        <time>2021-07-02T12:28:18Z</time>
      </trkpt>
      <trkpt lat="46.82891" lon="5.85995">
        <ele>653.3</ele>
        <time>2021-07-02T12:28:36Z</time>
      </trkpt>
      <trkpt lat="46.82888" lon="5.8599">
        <ele>654.1</ele>
        <time>2021-07-02T12:28:41Z</time>
      </trkpt>
      <trkpt lat="46.82883" lon="5.85987">
        <ele>654.7</ele>
        <time>2021-07-02T12:28:46Z</time>
      </trkpt>
      <trkpt lat="46.82878" lon="5.85985">
        <ele>656.1</ele>
        <time>2021-07-02T12:28:53Z</time>
      </trkpt>
      <trkpt lat="46.82873" lon="5.85984">
        <ele>657.3</ele>
        <time>2021-07-02T12:28:58Z</time>
      </trkpt>
      <trkpt lat="46.82868" lon="5.85982">
        <ele>659.1</ele>
        <time>2021-07-02T12:29:06Z</time>
      </trkpt>
      <trkpt lat="46.82863" lon="5.8598">
        <ele>659.9</ele>
        <time>2021-07-02T12:29:10Z</time>
      </trkpt>
      <trkpt lat="46.82858" lon="5.85978">
        <ele>660.9</ele>
        <time>2021-07-02T12:29:14Z</time>
      </trkpt>
      <trkpt lat="46.82855" lon="5.85972">
        <ele>662.3</ele>
        <time>2021-07-02T12:29:19Z</time>
      </trkpt>
      <trkpt lat="46.82852" lon="5.85967">
        <ele>664.3</ele>
        <time>2021-07-02T12:29:26Z</time>
      </trkpt>
      <trkpt lat="46.82848" lon="5.85964">
        <ele>666.5</ele>
        <time>2021-07-02T12:29:32Z</time>
      </trkpt>
      <trkpt lat="46.82843" lon="5.85961">
        <ele>668.6</ele>
        <time>2021-07-02T12:29:38Z</time>
      </trkpt>
      <trkpt lat="46.82839" lon="5.85958">
        <ele>671.3</ele>
        <time>2021-07-02T12:29:44Z</time>
      </trkpt>
      <trkpt lat="46.82834" lon="5.85956">
        <ele>673.3</ele>
        <time>2021-07-02T12:29:49Z</time>
      </trkpt>
      <trkpt lat="46.8283" lon="5.8596">
        <ele>674.8</ele>
        <time>2021-07-02T12:29:56Z</time>
      </trkpt>
      <trkpt lat="46.82828" lon="5.85965">
        <ele>675.2</ele>
        <time>2021-07-02T12:30:01Z</time>
      </trkpt>
      <trkpt lat="46.82825" lon="5.85971">
        <ele>675.7</ele>
        <time>2021-07-02T12:30:06Z</time>
      </trkpt>
      <trkpt lat="46.82821" lon="5.85976">
        <ele>681.3</ele>
        <time>2021-07-02T12:30:54Z</time>
      </trkpt>
      <trkpt lat="46.8282" lon="5.85983">
        <ele>682.5</ele>
        <time>2021-07-02T12:31:01Z</time>
      </trkpt>
      <trkpt lat="46.82819" lon="5.8599">
        <ele>681.9</ele>
        <time>2021-07-02T12:31:08Z</time>
      </trkpt>
      <trkpt lat="46.82818" lon="5.85997">
        <ele>681.2</ele>
        <time>2021-07-02T12:31:14Z</time>
      </trkpt>
      <trkpt lat="46.82821" lon="5.86003">
        <ele>681.3</ele>
        <time>2021-07-02T12:31:23Z</time>
      </trkpt>
      <trkpt lat="46.82823" lon="5.86009">
        <ele>681.6</ele>
        <time>2021-07-02T12:31:29Z</time>
      </trkpt>
      <trkpt lat="46.82821" lon="5.86003">
        <ele>685.8</ele>
        <time>2021-07-02T12:37:59Z</time>
      </trkpt>
      <trkpt lat="46.82823" lon="5.85995">
        <ele>684.2</ele>
        <time>2021-07-02T12:38:03Z</time>
      </trkpt>
      <trkpt lat="46.82826" lon="5.85991">
        <ele>682.4</ele>
        <time>2021-07-02T12:38:16Z</time>
      </trkpt>
      <trkpt lat="46.82821" lon="5.85991">
        <ele>684.1</ele>
        <time>2021-07-02T12:38:33Z</time>
      </trkpt>
      <trkpt lat="46.82821" lon="5.85984">
        <ele>684</ele>
        <time>2021-07-02T12:38:43Z</time>
      </trkpt>
      <trkpt lat="46.82823" lon="5.85977">
        <ele>684.1</ele>
        <time>2021-07-02T12:38:50Z</time>
      </trkpt>
      <trkpt lat="46.82825" lon="5.8597">
        <ele>684.5</ele>
        <time>2021-07-02T12:38:56Z</time>
      </trkpt>
      <trkpt lat="46.82825" lon="5.85963">
        <ele>684.7</ele>
        <time>2021-07-02T12:39:01Z</time>
      </trkpt>
      <trkpt lat="46.8283" lon="5.85959">
        <ele>685.2</ele>
        <time>2021-07-02T12:39:07Z</time>
      </trkpt>
      <trkpt lat="46.82835" lon="5.85959">
        <ele>685.9</ele>
        <time>2021-07-02T12:39:12Z</time>
      </trkpt>
      <trkpt lat="46.8284" lon="5.85959">
        <ele>686.5</ele>
        <time>2021-07-02T12:39:17Z</time>
      </trkpt>
      <trkpt lat="46.82845" lon="5.85961">
        <ele>687</ele>
        <time>2021-07-02T12:39:21Z</time>
      </trkpt>
      <trkpt lat="46.8285" lon="5.85963">
        <ele>687.2</ele>
        <time>2021-07-02T12:39:26Z</time>
      </trkpt>
      <trkpt lat="46.82855" lon="5.85965">
        <ele>686.9</ele>
        <time>2021-07-02T12:39:30Z</time>
      </trkpt>
      <trkpt lat="46.82861" lon="5.85967">
        <ele>686.3</ele>
        <time>2021-07-02T12:39:34Z</time>
      </trkpt>
      <trkpt lat="46.82866" lon="5.85969">
        <ele>685.8</ele>
        <time>2021-07-02T12:39:39Z</time>
      </trkpt>
      <trkpt lat="46.8287" lon="5.85975">
        <ele>685.6</ele>
        <time>2021-07-02T12:39:44Z</time>
      </trkpt>
      <trkpt lat="46.82873" lon="5.8598">
        <ele>685</ele>
        <time>2021-07-02T12:39:51Z</time>
      </trkpt>
      <trkpt lat="46.82878" lon="5.85981">
        <ele>684.3</ele>
        <time>2021-07-02T12:39:58Z</time>
      </trkpt>
      <trkpt lat="46.82882" lon="5.85986">
        <ele>684</ele>
        <time>2021-07-02T12:40:04Z</time>
      </trkpt>
      <trkpt lat="46.82886" lon="5.85989">
        <ele>683.5</ele>
        <time>2021-07-02T12:40:09Z</time>
      </trkpt>
      <trkpt lat="46.82887" lon="5.85996">
        <ele>681.4</ele>
        <time>2021-07-02T12:40:18Z</time>
      </trkpt>
      <trkpt lat="46.82891" lon="5.85999">
        <ele>680.2</ele>
        <time>2021-07-02T12:40:22Z</time>
      </trkpt>
      <trkpt lat="46.82897" lon="5.86">
        <ele>678.9</ele>
        <time>2021-07-02T12:40:26Z</time>
      </trkpt>
      <trkpt lat="46.82901" lon="5.85995">
        <ele>675.7</ele>
        <time>2021-07-02T12:40:34Z</time>
      </trkpt>
      <trkpt lat="46.82903" lon="5.85989">
        <ele>671.5</ele>
        <time>2021-07-02T12:40:58Z</time>
      </trkpt>
      <trkpt lat="46.82906" lon="5.85984">
        <ele>671.6</ele>
        <time>2021-07-02T12:41:04Z</time>
      </trkpt>
      <trkpt lat="46.82905" lon="5.85977">
        <ele>671.6</ele>
        <time>2021-07-02T12:41:11Z</time>
      </trkpt>
      <trkpt lat="46.82903" lon="5.85971">
        <ele>670</ele>
        <time>2021-07-02T12:41:19Z</time>
      </trkpt>
      <trkpt lat="46.82905" lon="5.85964">
        <ele>668.8</ele>
        <time>2021-07-02T12:41:26Z</time>
      </trkpt>
      <trkpt lat="46.8291" lon="5.85962">
        <ele>668.3</ele>
        <time>2021-07-02T12:41:31Z</time>
      </trkpt>
      <trkpt lat="46.82914" lon="5.85964">
        <ele>667.9</ele>
        <time>2021-07-02T12:41:35Z</time>
      </trkpt>
      <trkpt lat="46.82918" lon="5.8597">
        <ele>667.3</ele>
        <time>2021-07-02T12:41:40Z</time>
      </trkpt>
      <trkpt lat="46.82921" lon="5.85977">
        <ele>666.6</ele>
        <time>2021-07-02T12:41:45Z</time>
      </trkpt>
      <trkpt lat="46.82925" lon="5.85972">
        <ele>665.1</ele>
        <time>2021-07-02T12:41:53Z</time>
      </trkpt>
      <trkpt lat="46.82929" lon="5.85969">
        <ele>665.2</ele>
        <time>2021-07-02T12:42:03Z</time>
      </trkpt>
      <trkpt lat="46.82931" lon="5.85963">
        <ele>665.7</ele>
        <time>2021-07-02T12:42:09Z</time>
      </trkpt>
      <trkpt lat="46.82932" lon="5.85955">
        <ele>666.2</ele>
        <time>2021-07-02T12:42:14Z</time>
      </trkpt>
      <trkpt lat="46.82932" lon="5.85948">
        <ele>666</ele>
        <time>2021-07-02T12:42:20Z</time>
      </trkpt>
      <trkpt lat="46.82935" lon="5.85942">
        <ele>666.6</ele>
        <time>2021-07-02T12:42:32Z</time>
      </trkpt>
      <trkpt lat="46.82931" lon="5.85939">
        <ele>665.5</ele>
        <time>2021-07-02T12:42:59Z</time>
      </trkpt>
      <trkpt lat="46.82929" lon="5.85933">
        <ele>664.8</ele>
        <time>2021-07-02T12:43:03Z</time>
      </trkpt>
      <trkpt lat="46.82928" lon="5.85927">
        <ele>664.4</ele>
        <time>2021-07-02T12:43:08Z</time>
      </trkpt>
      <trkpt lat="46.82924" lon="5.85922">
        <ele>664.5</ele>
        <time>2021-07-02T12:43:13Z</time>
      </trkpt>
      <trkpt lat="46.82921" lon="5.85917">
        <ele>663.6</ele>
        <time>2021-07-02T12:43:19Z</time>
      </trkpt>
      <trkpt lat="46.82919" lon="5.85912">
        <ele>663.4</ele>
        <time>2021-07-02T12:43:23Z</time>
      </trkpt>
      <trkpt lat="46.82917" lon="5.85905">
        <ele>663.6</ele>
        <time>2021-07-02T12:43:27Z</time>
      </trkpt>
      <trkpt lat="46.82914" lon="5.85899">
        <ele>663.9</ele>
        <time>2021-07-02T12:43:32Z</time>
      </trkpt>
      <trkpt lat="46.82911" lon="5.85893">
        <ele>664.7</ele>
        <time>2021-07-02T12:43:37Z</time>
      </trkpt>
      <trkpt lat="46.82909" lon="5.85886">
        <ele>664.6</ele>
        <time>2021-07-02T12:43:42Z</time>
      </trkpt>
      <trkpt lat="46.82908" lon="5.85879">
        <ele>664.3</ele>
        <time>2021-07-02T12:43:47Z</time>
      </trkpt>
      <trkpt lat="46.82907" lon="5.85872">
        <ele>664.2</ele>
        <time>2021-07-02T12:43:51Z</time>
      </trkpt>
      <trkpt lat="46.82905" lon="5.85864">
        <ele>664.1</ele>
        <time>2021-07-02T12:43:55Z</time>
      </trkpt>
      <trkpt lat="46.82903" lon="5.85857">
        <ele>664</ele>
        <time>2021-07-02T12:43:59Z</time>
      </trkpt>
      <trkpt lat="46.82905" lon="5.8585">
        <ele>664</ele>
        <time>2021-07-02T12:44:05Z</time>
      </trkpt>
      <trkpt lat="46.82906" lon="5.85844">
        <ele>663.6</ele>
        <time>2021-07-02T12:44:10Z</time>
      </trkpt>
      <trkpt lat="46.82906" lon="5.85837">
        <ele>663.8</ele>
        <time>2021-07-02T12:44:14Z</time>
      </trkpt>
      <trkpt lat="46.82908" lon="5.8583">
        <ele>664</ele>
        <time>2021-07-02T12:44:19Z</time>
      </trkpt>
      <trkpt lat="46.8291" lon="5.85824">
        <ele>663.4</ele>
        <time>2021-07-02T12:44:25Z</time>
      </trkpt>
      <trkpt lat="46.82911" lon="5.85817">
        <ele>663.2</ele>
        <time>2021-07-02T12:44:29Z</time>
      </trkpt>
      <trkpt lat="46.82912" lon="5.8581">
        <ele>663.3</ele>
        <time>2021-07-02T12:44:34Z</time>
      </trkpt>
      <trkpt lat="46.82913" lon="5.85802">
        <ele>663.6</ele>
        <time>2021-07-02T12:44:39Z</time>
      </trkpt>
      <trkpt lat="46.82914" lon="5.85794">
        <ele>664</ele>
        <time>2021-07-02T12:44:43Z</time>
      </trkpt>
      <trkpt lat="46.82915" lon="5.85787">
        <ele>664.3</ele>
        <time>2021-07-02T12:44:47Z</time>
      </trkpt>
      <trkpt lat="46.82915" lon="5.8578">
        <ele>664.7</ele>
        <time>2021-07-02T12:44:51Z</time>
      </trkpt>
      <trkpt lat="46.82916" lon="5.85772">
        <ele>665.1</ele>
        <time>2021-07-02T12:44:55Z</time>
      </trkpt>
      <trkpt lat="46.82917" lon="5.85765">
        <ele>665.4</ele>
        <time>2021-07-02T12:44:59Z</time>
      </trkpt>
      <trkpt lat="46.8292" lon="5.85758">
        <ele>665.6</ele>
        <time>2021-07-02T12:45:04Z</time>
      </trkpt>
      <trkpt lat="46.8292" lon="5.85751">
        <ele>665.5</ele>
        <time>2021-07-02T12:45:08Z</time>
      </trkpt>
      <trkpt lat="46.8292" lon="5.85743">
        <ele>665</ele>
        <time>2021-07-02T12:45:13Z</time>
      </trkpt>
      <trkpt lat="46.82922" lon="5.85737">
        <ele>664.6</ele>
        <time>2021-07-02T12:45:18Z</time>
      </trkpt>
      <trkpt lat="46.82923" lon="5.8573">
        <ele>664.1</ele>
        <time>2021-07-02T12:45:23Z</time>
      </trkpt>
      <trkpt lat="46.82923" lon="5.85723">
        <ele>663.4</ele>
        <time>2021-07-02T12:45:28Z</time>
      </trkpt>
      <trkpt lat="46.82923" lon="5.85716">
        <ele>663</ele>
        <time>2021-07-02T12:45:32Z</time>
      </trkpt>
      <trkpt lat="46.82924" lon="5.85708">
        <ele>662.9</ele>
        <time>2021-07-02T12:45:37Z</time>
      </trkpt>
      <trkpt lat="46.82926" lon="5.85701">
        <ele>663.2</ele>
        <time>2021-07-02T12:45:42Z</time>
      </trkpt>
      <trkpt lat="46.82928" lon="5.85694">
        <ele>662.7</ele>
        <time>2021-07-02T12:45:47Z</time>
      </trkpt>
      <trkpt lat="46.82931" lon="5.85688">
        <ele>661.8</ele>
        <time>2021-07-02T12:45:52Z</time>
      </trkpt>
      <trkpt lat="46.82931" lon="5.8568">
        <ele>660.7</ele>
        <time>2021-07-02T12:45:57Z</time>
      </trkpt>
      <trkpt lat="46.82933" lon="5.85673">
        <ele>659.6</ele>
        <time>2021-07-02T12:46:02Z</time>
      </trkpt>
      <trkpt lat="46.82934" lon="5.85666">
        <ele>658.5</ele>
        <time>2021-07-02T12:46:07Z</time>
      </trkpt>
      <trkpt lat="46.82935" lon="5.8566">
        <ele>657.8</ele>
        <time>2021-07-02T12:46:12Z</time>
      </trkpt>
      <trkpt lat="46.82936" lon="5.85653">
        <ele>657</ele>
        <time>2021-07-02T12:46:17Z</time>
      </trkpt>
      <trkpt lat="46.82936" lon="5.85645">
        <ele>655.9</ele>
        <time>2021-07-02T12:46:23Z</time>
      </trkpt>
      <trkpt lat="46.82936" lon="5.85637">
        <ele>654.9</ele>
        <time>2021-07-02T12:46:28Z</time>
      </trkpt>
      <trkpt lat="46.82938" lon="5.8563">
        <ele>653.9</ele>
        <time>2021-07-02T12:46:33Z</time>
      </trkpt>
      <trkpt lat="46.82939" lon="5.85623">
        <ele>653.4</ele>
        <time>2021-07-02T12:46:37Z</time>
      </trkpt>
      <trkpt lat="46.8294" lon="5.85616">
        <ele>653.4</ele>
        <time>2021-07-02T12:46:41Z</time>
      </trkpt>
      <trkpt lat="46.82941" lon="5.85608">
        <ele>653.7</ele>
        <time>2021-07-02T12:46:45Z</time>
      </trkpt>
      <trkpt lat="46.82941" lon="5.856">
        <ele>654.3</ele>
        <time>2021-07-02T12:46:49Z</time>
      </trkpt>
      <trkpt lat="46.82944" lon="5.85594">
        <ele>655.1</ele>
        <time>2021-07-02T12:46:53Z</time>
      </trkpt>
      <trkpt lat="46.82948" lon="5.8559">
        <ele>655.3</ele>
        <time>2021-07-02T12:46:57Z</time>
      </trkpt>
      <trkpt lat="46.82951" lon="5.85583">
        <ele>655.6</ele>
        <time>2021-07-02T12:47:02Z</time>
      </trkpt>
      <trkpt lat="46.82954" lon="5.85577">
        <ele>655.5</ele>
        <time>2021-07-02T12:47:08Z</time>
      </trkpt>
      <trkpt lat="46.82956" lon="5.85571">
        <ele>655</ele>
        <time>2021-07-02T12:47:13Z</time>
      </trkpt>
      <trkpt lat="46.82959" lon="5.85563">
        <ele>654.5</ele>
        <time>2021-07-02T12:47:18Z</time>
      </trkpt>
      <trkpt lat="46.8296" lon="5.85556">
        <ele>654.4</ele>
        <time>2021-07-02T12:47:22Z</time>
      </trkpt>
      <trkpt lat="46.82963" lon="5.85547">
        <ele>654.6</ele>
        <time>2021-07-02T12:47:26Z</time>
      </trkpt>
      <trkpt lat="46.82965" lon="5.8554">
        <ele>654.9</ele>
        <time>2021-07-02T12:47:30Z</time>
      </trkpt>
      <trkpt lat="46.82967" lon="5.85533">
        <ele>655.2</ele>
        <time>2021-07-02T12:47:34Z</time>
      </trkpt>
      <trkpt lat="46.82968" lon="5.85527">
        <ele>655.4</ele>
        <time>2021-07-02T12:47:38Z</time>
      </trkpt>
      <trkpt lat="46.82971" lon="5.8552">
        <ele>656.2</ele>
        <time>2021-07-02T12:47:43Z</time>
      </trkpt>
      <trkpt lat="46.82973" lon="5.85514">
        <ele>656.6</ele>
        <time>2021-07-02T12:47:48Z</time>
      </trkpt>
      <trkpt lat="46.82975" lon="5.85507">
        <ele>656.2</ele>
        <time>2021-07-02T12:47:53Z</time>
      </trkpt>
      <trkpt lat="46.82976" lon="5.855">
        <ele>655.2</ele>
        <time>2021-07-02T12:47:59Z</time>
      </trkpt>
      <trkpt lat="46.82977" lon="5.85492">
        <ele>653.7</ele>
        <time>2021-07-02T12:48:04Z</time>
      </trkpt>
      <trkpt lat="46.8298" lon="5.85486">
        <ele>652.8</ele>
        <time>2021-07-02T12:48:08Z</time>
      </trkpt>
      <trkpt lat="46.82982" lon="5.85481">
        <ele>652.3</ele>
        <time>2021-07-02T12:48:12Z</time>
      </trkpt>
      <trkpt lat="46.82983" lon="5.85474">
        <ele>651.8</ele>
        <time>2021-07-02T12:48:16Z</time>
      </trkpt>
      <trkpt lat="46.82984" lon="5.85466">
        <ele>651.1</ele>
        <time>2021-07-02T12:48:22Z</time>
      </trkpt>
      <trkpt lat="46.82987" lon="5.8546">
        <ele>650.8</ele>
        <time>2021-07-02T12:48:27Z</time>
      </trkpt>
      <trkpt lat="46.82989" lon="5.85454">
        <ele>649.9</ele>
        <time>2021-07-02T12:48:33Z</time>
      </trkpt>
      <trkpt lat="46.82992" lon="5.85447">
        <ele>648.1</ele>
        <time>2021-07-02T12:49:01Z</time>
      </trkpt>
      <trkpt lat="46.82995" lon="5.85441">
        <ele>648.7</ele>
        <time>2021-07-02T12:49:07Z</time>
      </trkpt>
      <trkpt lat="46.82998" lon="5.85435">
        <ele>649.1</ele>
        <time>2021-07-02T12:49:12Z</time>
      </trkpt>
      <trkpt lat="46.83001" lon="5.85427">
        <ele>649.3</ele>
        <time>2021-07-02T12:49:17Z</time>
      </trkpt>
      <trkpt lat="46.83005" lon="5.85421">
        <ele>649.8</ele>
        <time>2021-07-02T12:49:21Z</time>
      </trkpt>
      <trkpt lat="46.83008" lon="5.85415">
        <ele>650</ele>
        <time>2021-07-02T12:49:25Z</time>
      </trkpt>
      <trkpt lat="46.83011" lon="5.8541">
        <ele>650.2</ele>
        <time>2021-07-02T12:49:29Z</time>
      </trkpt>
      <trkpt lat="46.83013" lon="5.85404">
        <ele>650.1</ele>
        <time>2021-07-02T12:49:34Z</time>
      </trkpt>
      <trkpt lat="46.83014" lon="5.85397">
        <ele>649</ele>
        <time>2021-07-02T12:49:40Z</time>
      </trkpt>
      <trkpt lat="46.83016" lon="5.8539">
        <ele>648.3</ele>
        <time>2021-07-02T12:49:45Z</time>
      </trkpt>
      <trkpt lat="46.83018" lon="5.85383">
        <ele>647.6</ele>
        <time>2021-07-02T12:49:50Z</time>
      </trkpt>
      <trkpt lat="46.83021" lon="5.85376">
        <ele>647.3</ele>
        <time>2021-07-02T12:49:54Z</time>
      </trkpt>
      <trkpt lat="46.83024" lon="5.8537">
        <ele>646.6</ele>
        <time>2021-07-02T12:49:59Z</time>
      </trkpt>
      <trkpt lat="46.83027" lon="5.85362">
        <ele>646.1</ele>
        <time>2021-07-02T12:50:04Z</time>
      </trkpt>
      <trkpt lat="46.83029" lon="5.85356">
        <ele>645.4</ele>
        <time>2021-07-02T12:50:09Z</time>
      </trkpt>
      <trkpt lat="46.8303" lon="5.8535">
        <ele>645.1</ele>
        <time>2021-07-02T12:50:13Z</time>
      </trkpt>
      <trkpt lat="46.83031" lon="5.85343">
        <ele>645</ele>
        <time>2021-07-02T12:50:17Z</time>
      </trkpt>
      <trkpt lat="46.83031" lon="5.85336">
        <ele>645.3</ele>
        <time>2021-07-02T12:50:21Z</time>
      </trkpt>
      <trkpt lat="46.8303" lon="5.85329">
        <ele>645.9</ele>
        <time>2021-07-02T12:50:25Z</time>
      </trkpt>
      <trkpt lat="46.8303" lon="5.85322">
        <ele>646.5</ele>
        <time>2021-07-02T12:50:29Z</time>
      </trkpt>
      <trkpt lat="46.83031" lon="5.85315">
        <ele>646.6</ele>
        <time>2021-07-02T12:50:34Z</time>
      </trkpt>
      <trkpt lat="46.83032" lon="5.85309">
        <ele>646.2</ele>
        <time>2021-07-02T12:50:39Z</time>
      </trkpt>
      <trkpt lat="46.83034" lon="5.85302">
        <ele>645.7</ele>
        <time>2021-07-02T12:50:44Z</time>
      </trkpt>
      <trkpt lat="46.83036" lon="5.85296">
        <ele>645.1</ele>
        <time>2021-07-02T12:50:49Z</time>
      </trkpt>
      <trkpt lat="46.83037" lon="5.85288">
        <ele>644.1</ele>
        <time>2021-07-02T12:50:55Z</time>
      </trkpt>
      <trkpt lat="46.83037" lon="5.85279">
        <ele>643.1</ele>
        <time>2021-07-02T12:51:00Z</time>
      </trkpt>
      <trkpt lat="46.83037" lon="5.85272">
        <ele>642.4</ele>
        <time>2021-07-02T12:51:04Z</time>
      </trkpt>
      <trkpt lat="46.83037" lon="5.85264">
        <ele>641.6</ele>
        <time>2021-07-02T12:51:09Z</time>
      </trkpt>
      <trkpt lat="46.83039" lon="5.85258">
        <ele>640.3</ele>
        <time>2021-07-02T12:51:14Z</time>
      </trkpt>
      <trkpt lat="46.83041" lon="5.85251">
        <ele>639.4</ele>
        <time>2021-07-02T12:51:19Z</time>
      </trkpt>
      <trkpt lat="46.83042" lon="5.85244">
        <ele>638</ele>
        <time>2021-07-02T12:51:24Z</time>
      </trkpt>
      <trkpt lat="46.83044" lon="5.85238">
        <ele>636.8</ele>
        <time>2021-07-02T12:51:29Z</time>
      </trkpt>
      <trkpt lat="46.83044" lon="5.8523">
        <ele>636</ele>
        <time>2021-07-02T12:51:34Z</time>
      </trkpt>
      <trkpt lat="46.83043" lon="5.85224">
        <ele>635.8</ele>
        <time>2021-07-02T12:51:38Z</time>
      </trkpt>
      <trkpt lat="46.83044" lon="5.85216">
        <ele>635.8</ele>
        <time>2021-07-02T12:51:43Z</time>
      </trkpt>
      <trkpt lat="46.83045" lon="5.85209">
        <ele>635.7</ele>
        <time>2021-07-02T12:51:48Z</time>
      </trkpt>
      <trkpt lat="46.83046" lon="5.85201">
        <ele>635.4</ele>
        <time>2021-07-02T12:51:53Z</time>
      </trkpt>
      <trkpt lat="46.83046" lon="5.85193">
        <ele>635</ele>
        <time>2021-07-02T12:51:58Z</time>
      </trkpt>
      <trkpt lat="46.83046" lon="5.85185">
        <ele>635.1</ele>
        <time>2021-07-02T12:52:02Z</time>
      </trkpt>
      <trkpt lat="46.83046" lon="5.85178">
        <ele>635.3</ele>
        <time>2021-07-02T12:52:06Z</time>
      </trkpt>
      <trkpt lat="46.83047" lon="5.85171">
        <ele>635.6</ele>
        <time>2021-07-02T12:52:10Z</time>
      </trkpt>
      <trkpt lat="46.83047" lon="5.85164">
        <ele>635.8</ele>
        <time>2021-07-02T12:52:15Z</time>
      </trkpt>
      <trkpt lat="46.83047" lon="5.85156">
        <ele>635.9</ele>
        <time>2021-07-02T12:52:20Z</time>
      </trkpt>
      <trkpt lat="46.83048" lon="5.85149">
        <ele>636</ele>
        <time>2021-07-02T12:52:24Z</time>
      </trkpt>
      <trkpt lat="46.8305" lon="5.85142">
        <ele>635.5</ele>
        <time>2021-07-02T12:52:29Z</time>
      </trkpt>
      <trkpt lat="46.83051" lon="5.85135">
        <ele>634.3</ele>
        <time>2021-07-02T12:52:34Z</time>
      </trkpt>
      <trkpt lat="46.83053" lon="5.85128">
        <ele>633.2</ele>
        <time>2021-07-02T12:52:39Z</time>
      </trkpt>
      <trkpt lat="46.83053" lon="5.85121">
        <ele>633</ele>
        <time>2021-07-02T12:52:43Z</time>
      </trkpt>
      <trkpt lat="46.83056" lon="5.85115">
        <ele>632.7</ele>
        <time>2021-07-02T12:52:49Z</time>
      </trkpt>
      <trkpt lat="46.83059" lon="5.85108">
        <ele>632.1</ele>
        <time>2021-07-02T12:52:54Z</time>
      </trkpt>
      <trkpt lat="46.83062" lon="5.85103">
        <ele>631.7</ele>
        <time>2021-07-02T12:52:58Z</time>
      </trkpt>
      <trkpt lat="46.83065" lon="5.85097">
        <ele>631.3</ele>
        <time>2021-07-02T12:53:02Z</time>
      </trkpt>
      <trkpt lat="46.83068" lon="5.85092">
        <ele>630.7</ele>
        <time>2021-07-02T12:53:07Z</time>
      </trkpt>
      <trkpt lat="46.8307" lon="5.85086">
        <ele>630.7</ele>
        <time>2021-07-02T12:53:11Z</time>
      </trkpt>
      <trkpt lat="46.83075" lon="5.85081">
        <ele>631.1</ele>
        <time>2021-07-02T12:53:16Z</time>
      </trkpt>
      <trkpt lat="46.83079" lon="5.85077">
        <ele>631.5</ele>
        <time>2021-07-02T12:53:20Z</time>
      </trkpt>
      <trkpt lat="46.83082" lon="5.85073">
        <ele>631.7</ele>
        <time>2021-07-02T12:53:24Z</time>
      </trkpt>
      <trkpt lat="46.83086" lon="5.85069">
        <ele>632.5</ele>
        <time>2021-07-02T12:53:28Z</time>
      </trkpt>
      <trkpt lat="46.83089" lon="5.85063">
        <ele>633.6</ele>
        <time>2021-07-02T12:53:33Z</time>
      </trkpt>
      <trkpt lat="46.83095" lon="5.85063">
        <ele>634.3</ele>
        <time>2021-07-02T12:53:39Z</time>
      </trkpt>
      <trkpt lat="46.831" lon="5.85061">
        <ele>634.2</ele>
        <time>2021-07-02T12:53:43Z</time>
      </trkpt>
      <trkpt lat="46.83104" lon="5.85058">
        <ele>634.2</ele>
        <time>2021-07-02T12:53:47Z</time>
      </trkpt>
      <trkpt lat="46.83109" lon="5.85055">
        <ele>634</ele>
        <time>2021-07-02T12:53:52Z</time>
      </trkpt>
      <trkpt lat="46.83113" lon="5.85051">
        <ele>633.9</ele>
        <time>2021-07-02T12:53:56Z</time>
      </trkpt>
      <trkpt lat="46.83117" lon="5.85047">
        <ele>633.9</ele>
        <time>2021-07-02T12:54:00Z</time>
      </trkpt>
      <trkpt lat="46.83122" lon="5.85045">
        <ele>633.8</ele>
        <time>2021-07-02T12:54:05Z</time>
      </trkpt>
      <trkpt lat="46.83127" lon="5.85042">
        <ele>634.2</ele>
        <time>2021-07-02T12:54:10Z</time>
      </trkpt>
      <trkpt lat="46.83131" lon="5.85038">
        <ele>634.4</ele>
        <time>2021-07-02T12:54:14Z</time>
      </trkpt>
      <trkpt lat="46.83133" lon="5.85032">
        <ele>634.6</ele>
        <time>2021-07-02T12:54:18Z</time>
      </trkpt>
      <trkpt lat="46.83137" lon="5.85026">
        <ele>634.8</ele>
        <time>2021-07-02T12:54:23Z</time>
      </trkpt>
      <trkpt lat="46.83141" lon="5.85021">
        <ele>634.7</ele>
        <time>2021-07-02T12:54:28Z</time>
      </trkpt>
      <trkpt lat="46.83143" lon="5.85014">
        <ele>634.7</ele>
        <time>2021-07-02T12:54:33Z</time>
      </trkpt>
      <trkpt lat="46.83143" lon="5.85007">
        <ele>634.8</ele>
        <time>2021-07-02T12:54:39Z</time>
      </trkpt>
      <trkpt lat="46.83147" lon="5.8501">
        <ele>633.7</ele>
        <time>2021-07-02T12:55:42Z</time>
      </trkpt>
      <trkpt lat="46.83149" lon="5.85004">
        <ele>632.3</ele>
        <time>2021-07-02T12:55:48Z</time>
      </trkpt>
      <trkpt lat="46.83149" lon="5.84996">
        <ele>631.4</ele>
        <time>2021-07-02T12:55:53Z</time>
      </trkpt>
      <trkpt lat="46.8315" lon="5.84989">
        <ele>631</ele>
        <time>2021-07-02T12:55:57Z</time>
      </trkpt>
      <trkpt lat="46.8315" lon="5.84982">
        <ele>631.1</ele>
        <time>2021-07-02T12:56:01Z</time>
      </trkpt>
      <trkpt lat="46.8315" lon="5.84974">
        <ele>631.3</ele>
        <time>2021-07-02T12:56:06Z</time>
      </trkpt>
      <trkpt lat="46.83151" lon="5.84968">
        <ele>630.6</ele>
        <time>2021-07-02T12:56:12Z</time>
      </trkpt>
      <trkpt lat="46.83152" lon="5.84961">
        <ele>629.5</ele>
        <time>2021-07-02T12:56:17Z</time>
      </trkpt>
      <trkpt lat="46.83153" lon="5.84953">
        <ele>628.7</ele>
        <time>2021-07-02T12:56:21Z</time>
      </trkpt>
      <trkpt lat="46.83153" lon="5.84947">
        <ele>628</ele>
        <time>2021-07-02T12:56:25Z</time>
      </trkpt>
      <trkpt lat="46.83154" lon="5.84939">
        <ele>627.3</ele>
        <time>2021-07-02T12:56:30Z</time>
      </trkpt>
      <trkpt lat="46.83155" lon="5.84932">
        <ele>626.7</ele>
        <time>2021-07-02T12:56:34Z</time>
      </trkpt>
      <trkpt lat="46.83156" lon="5.84925">
        <ele>626.3</ele>
        <time>2021-07-02T12:56:38Z</time>
      </trkpt>
      <trkpt lat="46.83158" lon="5.84919">
        <ele>626</ele>
        <time>2021-07-02T12:56:42Z</time>
      </trkpt>
      <trkpt lat="46.83159" lon="5.84911">
        <ele>625.8</ele>
        <time>2021-07-02T12:56:47Z</time>
      </trkpt>
      <trkpt lat="46.8316" lon="5.84904">
        <ele>625.5</ele>
        <time>2021-07-02T12:56:53Z</time>
      </trkpt>
      <trkpt lat="46.83162" lon="5.84897">
        <ele>624.7</ele>
        <time>2021-07-02T12:56:58Z</time>
      </trkpt>
      <trkpt lat="46.83165" lon="5.84891">
        <ele>624</ele>
        <time>2021-07-02T12:57:03Z</time>
      </trkpt>
      <trkpt lat="46.83168" lon="5.84885">
        <ele>623.2</ele>
        <time>2021-07-02T12:57:09Z</time>
      </trkpt>
      <trkpt lat="46.8317" lon="5.84879">
        <ele>622.5</ele>
        <time>2021-07-02T12:57:14Z</time>
      </trkpt>
      <trkpt lat="46.83173" lon="5.84872">
        <ele>622</ele>
        <time>2021-07-02T12:57:19Z</time>
      </trkpt>
      <trkpt lat="46.83177" lon="5.84867">
        <ele>621.6</ele>
        <time>2021-07-02T12:57:24Z</time>
      </trkpt>
      <trkpt lat="46.8318" lon="5.84862">
        <ele>621.3</ele>
        <time>2021-07-02T12:57:29Z</time>
      </trkpt>
      <trkpt lat="46.83183" lon="5.84855">
        <ele>621</ele>
        <time>2021-07-02T12:57:33Z</time>
      </trkpt>
      <trkpt lat="46.83186" lon="5.84848">
        <ele>621.3</ele>
        <time>2021-07-02T12:57:37Z</time>
      </trkpt>
      <trkpt lat="46.83189" lon="5.84842">
        <ele>621.8</ele>
        <time>2021-07-02T12:57:41Z</time>
      </trkpt>
      <trkpt lat="46.83193" lon="5.84837">
        <ele>622.2</ele>
        <time>2021-07-02T12:57:46Z</time>
      </trkpt>
      <trkpt lat="46.83197" lon="5.84832">
        <ele>622.2</ele>
        <time>2021-07-02T12:57:51Z</time>
      </trkpt>
      <trkpt lat="46.83199" lon="5.84826">
        <ele>623.1</ele>
        <time>2021-07-02T12:58:05Z</time>
      </trkpt>
      <trkpt lat="46.83202" lon="5.8482">
        <ele>626.8</ele>
        <time>2021-07-02T12:58:38Z</time>
      </trkpt>
      <trkpt lat="46.83204" lon="5.84813">
        <ele>625.5</ele>
        <time>2021-07-02T12:58:42Z</time>
      </trkpt>
      <trkpt lat="46.83205" lon="5.84806">
        <ele>624.4</ele>
        <time>2021-07-02T12:58:47Z</time>
      </trkpt>
      <trkpt lat="46.83205" lon="5.84798">
        <ele>623.7</ele>
        <time>2021-07-02T12:58:52Z</time>
      </trkpt>
      <trkpt lat="46.83205" lon="5.84791">
        <ele>622.5</ele>
        <time>2021-07-02T13:00:20Z</time>
      </trkpt>
      <trkpt lat="46.83208" lon="5.84785">
        <ele>621.4</ele>
        <time>2021-07-02T13:00:27Z</time>
      </trkpt>
      <trkpt lat="46.8321" lon="5.84779">
        <ele>620.7</ele>
        <time>2021-07-02T13:00:31Z</time>
      </trkpt>
      <trkpt lat="46.83211" lon="5.84771">
        <ele>620.2</ele>
        <time>2021-07-02T13:00:35Z</time>
      </trkpt>
      <trkpt lat="46.83211" lon="5.84764">
        <ele>619.4</ele>
        <time>2021-07-02T13:00:40Z</time>
      </trkpt>
      <trkpt lat="46.83212" lon="5.84757">
        <ele>618.9</ele>
        <time>2021-07-02T13:00:45Z</time>
      </trkpt>
      <trkpt lat="46.83213" lon="5.84751">
        <ele>619.1</ele>
        <time>2021-07-02T13:00:52Z</time>
      </trkpt>
      <trkpt lat="46.83216" lon="5.84745">
        <ele>620.8</ele>
        <time>2021-07-02T13:00:59Z</time>
      </trkpt>
      <trkpt lat="46.83221" lon="5.84742">
        <ele>621.9</ele>
        <time>2021-07-02T13:01:04Z</time>
      </trkpt>
      <trkpt lat="46.83226" lon="5.8474">
        <ele>623.1</ele>
        <time>2021-07-02T13:01:09Z</time>
      </trkpt>
      <trkpt lat="46.83231" lon="5.84741">
        <ele>623.7</ele>
        <time>2021-07-02T13:01:14Z</time>
      </trkpt>
      <trkpt lat="46.83236" lon="5.84743">
        <ele>623.6</ele>
        <time>2021-07-02T13:01:19Z</time>
      </trkpt>
      <trkpt lat="46.8324" lon="5.84746">
        <ele>623.1</ele>
        <time>2021-07-02T13:01:24Z</time>
      </trkpt>
      <trkpt lat="46.83246" lon="5.84747">
        <ele>622.5</ele>
        <time>2021-07-02T13:01:30Z</time>
      </trkpt>
      <trkpt lat="46.8325" lon="5.84749">
        <ele>622.6</ele>
        <time>2021-07-02T13:01:34Z</time>
      </trkpt>
      <trkpt lat="46.83255" lon="5.84751">
        <ele>623.2</ele>
        <time>2021-07-02T13:01:39Z</time>
      </trkpt>
      <trkpt lat="46.8326" lon="5.84752">
        <ele>624</ele>
        <time>2021-07-02T13:01:45Z</time>
      </trkpt>
      <trkpt lat="46.83265" lon="5.84751">
        <ele>624.1</ele>
        <time>2021-07-02T13:01:50Z</time>
      </trkpt>
      <trkpt lat="46.8327" lon="5.84749">
        <ele>623.7</ele>
        <time>2021-07-02T13:01:55Z</time>
      </trkpt>
      <trkpt lat="46.83273" lon="5.84744">
        <ele>622.6</ele>
        <time>2021-07-02T13:02:03Z</time>
      </trkpt>
      <trkpt lat="46.83277" lon="5.84741">
        <ele>621.4</ele>
        <time>2021-07-02T13:02:11Z</time>
      </trkpt>
      <trkpt lat="46.83282" lon="5.84739">
        <ele>621.4</ele>
        <time>2021-07-02T13:02:16Z</time>
      </trkpt>
      <trkpt lat="46.83287" lon="5.8474">
        <ele>621.9</ele>
        <time>2021-07-02T13:02:20Z</time>
      </trkpt>
      <trkpt lat="46.83292" lon="5.84741">
        <ele>622.6</ele>
        <time>2021-07-02T13:02:25Z</time>
      </trkpt>
      <trkpt lat="46.83297" lon="5.84741">
        <ele>623.6</ele>
        <time>2021-07-02T13:02:31Z</time>
      </trkpt>
      <trkpt lat="46.83302" lon="5.8474">
        <ele>624.1</ele>
        <time>2021-07-02T13:02:36Z</time>
      </trkpt>
      <trkpt lat="46.83307" lon="5.8474">
        <ele>624.1</ele>
        <time>2021-07-02T13:02:42Z</time>
      </trkpt>
      <trkpt lat="46.83312" lon="5.84739">
        <ele>622.7</ele>
        <time>2021-07-02T13:02:51Z</time>
      </trkpt>
      <trkpt lat="46.83315" lon="5.84734">
        <ele>622.1</ele>
        <time>2021-07-02T13:02:57Z</time>
      </trkpt>
      <trkpt lat="46.83319" lon="5.84728">
        <ele>621.8</ele>
        <time>2021-07-02T13:03:01Z</time>
      </trkpt>
      <trkpt lat="46.83322" lon="5.84722">
        <ele>621.5</ele>
        <time>2021-07-02T13:03:06Z</time>
      </trkpt>
      <trkpt lat="46.83324" lon="5.84716">
        <ele>621.3</ele>
        <time>2021-07-02T13:03:12Z</time>
      </trkpt>
      <trkpt lat="46.83328" lon="5.84712">
        <ele>621.1</ele>
        <time>2021-07-02T13:03:19Z</time>
      </trkpt>
      <trkpt lat="46.83333" lon="5.8471">
        <ele>621.1</ele>
        <time>2021-07-02T13:03:25Z</time>
      </trkpt>
      <trkpt lat="46.83337" lon="5.84706">
        <ele>621.2</ele>
        <time>2021-07-02T13:03:30Z</time>
      </trkpt>
      <trkpt lat="46.8334" lon="5.84701">
        <ele>621</ele>
        <time>2021-07-02T13:03:37Z</time>
      </trkpt>
      <trkpt lat="46.83345" lon="5.84698">
        <ele>620.5</ele>
        <time>2021-07-02T13:03:46Z</time>
      </trkpt>
      <trkpt lat="46.83349" lon="5.84695">
        <ele>620.1</ele>
        <time>2021-07-02T13:04:19Z</time>
      </trkpt>
      <trkpt lat="46.83354" lon="5.84693">
        <ele>621.3</ele>
        <time>2021-07-02T13:04:24Z</time>
      </trkpt>
      <trkpt lat="46.83354" lon="5.84686">
        <ele>622.2</ele>
        <time>2021-07-02T13:04:40Z</time>
      </trkpt>
      <trkpt lat="46.83356" lon="5.8468">
        <ele>621.4</ele>
        <time>2021-07-02T13:04:53Z</time>
      </trkpt>
      <trkpt lat="46.83361" lon="5.84675">
        <ele>620</ele>
        <time>2021-07-02T13:05:04Z</time>
      </trkpt>
      <trkpt lat="46.83365" lon="5.84671">
        <ele>618.9</ele>
        <time>2021-07-02T13:05:09Z</time>
      </trkpt>
      <trkpt lat="46.8337" lon="5.8467">
        <ele>618.3</ele>
        <time>2021-07-02T13:05:15Z</time>
      </trkpt>
      <trkpt lat="46.83376" lon="5.84668">
        <ele>618.2</ele>
        <time>2021-07-02T13:05:19Z</time>
      </trkpt>
      <trkpt lat="46.8338" lon="5.84663">
        <ele>618.1</ele>
        <time>2021-07-02T13:05:25Z</time>
      </trkpt>
      <trkpt lat="46.83384" lon="5.8466">
        <ele>618.1</ele>
        <time>2021-07-02T13:05:30Z</time>
      </trkpt>
      <trkpt lat="46.83386" lon="5.84654">
        <ele>617.2</ele>
        <time>2021-07-02T13:05:43Z</time>
      </trkpt>
      <trkpt lat="46.83391" lon="5.84655">
        <ele>616.4</ele>
        <time>2021-07-02T13:05:52Z</time>
      </trkpt>
      <trkpt lat="46.83386" lon="5.84653">
        <ele>615.5</ele>
        <time>2021-07-02T13:05:58Z</time>
      </trkpt>
      <trkpt lat="46.83391" lon="5.84651">
        <ele>614.2</ele>
        <time>2021-07-02T13:06:14Z</time>
      </trkpt>
      <trkpt lat="46.83395" lon="5.84652">
        <ele>614.1</ele>
        <time>2021-07-02T13:06:26Z</time>
      </trkpt>
      <trkpt lat="46.834" lon="5.84655">
        <ele>613.9</ele>
        <time>2021-07-02T13:06:33Z</time>
      </trkpt>
      <trkpt lat="46.83405" lon="5.84657">
        <ele>613.9</ele>
        <time>2021-07-02T13:06:39Z</time>
      </trkpt>
      <trkpt lat="46.8341" lon="5.84659">
        <ele>614.2</ele>
        <time>2021-07-02T13:06:48Z</time>
      </trkpt>
      <trkpt lat="46.83415" lon="5.84658">
        <ele>615.6</ele>
        <time>2021-07-02T13:06:54Z</time>
      </trkpt>
      <trkpt lat="46.83418" lon="5.84653">
        <ele>617.6</ele>
        <time>2021-07-02T13:07:04Z</time>
      </trkpt>
      <trkpt lat="46.83422" lon="5.8465">
        <ele>618.3</ele>
        <time>2021-07-02T13:07:10Z</time>
      </trkpt>
      <trkpt lat="46.83428" lon="5.84651">
        <ele>619</ele>
        <time>2021-07-02T13:07:15Z</time>
      </trkpt>
      <trkpt lat="46.83434" lon="5.84654">
        <ele>619.3</ele>
        <time>2021-07-02T13:07:19Z</time>
      </trkpt>
      <trkpt lat="46.8344" lon="5.84657">
        <ele>619.3</ele>
        <time>2021-07-02T13:07:23Z</time>
      </trkpt>
      <trkpt lat="46.83444" lon="5.84661">
        <ele>619.6</ele>
        <time>2021-07-02T13:07:28Z</time>
      </trkpt>
      <trkpt lat="46.83446" lon="5.84668">
        <ele>620.1</ele>
        <time>2021-07-02T13:07:35Z</time>
      </trkpt>
      <trkpt lat="46.83447" lon="5.84675">
        <ele>619.8</ele>
        <time>2021-07-02T13:07:43Z</time>
      </trkpt>
      <trkpt lat="46.83449" lon="5.84681">
        <ele>619.6</ele>
        <time>2021-07-02T13:07:47Z</time>
      </trkpt>
      <trkpt lat="46.83452" lon="5.84687">
        <ele>619.7</ele>
        <time>2021-07-02T13:07:51Z</time>
      </trkpt>
      <trkpt lat="46.83454" lon="5.84694">
        <ele>619.8</ele>
        <time>2021-07-02T13:07:57Z</time>
      </trkpt>
      <trkpt lat="46.83457" lon="5.84699">
        <ele>620.6</ele>
        <time>2021-07-02T13:08:02Z</time>
      </trkpt>
      <trkpt lat="46.83461" lon="5.84703">
        <ele>621.8</ele>
        <time>2021-07-02T13:08:06Z</time>
      </trkpt>
      <trkpt lat="46.83465" lon="5.84706">
        <ele>623.4</ele>
        <time>2021-07-02T13:08:11Z</time>
      </trkpt>
      <trkpt lat="46.83467" lon="5.84712">
        <ele>624.9</ele>
        <time>2021-07-02T13:08:16Z</time>
      </trkpt>
      <trkpt lat="46.83468" lon="5.84719">
        <ele>625.8</ele>
        <time>2021-07-02T13:08:21Z</time>
      </trkpt>
      <trkpt lat="46.8347" lon="5.84725">
        <ele>629.1</ele>
        <time>2021-07-02T13:08:38Z</time>
      </trkpt>
      <trkpt lat="46.83471" lon="5.84731">
        <ele>628.9</ele>
        <time>2021-07-02T13:08:43Z</time>
      </trkpt>
      <trkpt lat="46.83471" lon="5.84739">
        <ele>628.3</ele>
        <time>2021-07-02T13:08:48Z</time>
      </trkpt>
      <trkpt lat="46.8347" lon="5.84746">
        <ele>627.8</ele>
        <time>2021-07-02T13:08:54Z</time>
      </trkpt>
      <trkpt lat="46.83475" lon="5.84748">
        <ele>627.6</ele>
        <time>2021-07-02T13:08:59Z</time>
      </trkpt>
      <trkpt lat="46.83479" lon="5.84746">
        <ele>628.2</ele>
        <time>2021-07-02T13:09:04Z</time>
      </trkpt>
      <trkpt lat="46.83482" lon="5.84741">
        <ele>628.7</ele>
        <time>2021-07-02T13:09:12Z</time>
      </trkpt>
      <trkpt lat="46.83487" lon="5.8474">
        <ele>629.1</ele>
        <time>2021-07-02T13:09:20Z</time>
      </trkpt>
      <trkpt lat="46.83492" lon="5.8474">
        <ele>628.6</ele>
        <time>2021-07-02T13:09:26Z</time>
      </trkpt>
      <trkpt lat="46.83497" lon="5.84737">
        <ele>627.3</ele>
        <time>2021-07-02T13:09:33Z</time>
      </trkpt>
      <trkpt lat="46.83501" lon="5.84732">
        <ele>626.4</ele>
        <time>2021-07-02T13:09:39Z</time>
      </trkpt>
      <trkpt lat="46.83505" lon="5.84728">
        <ele>625.8</ele>
        <time>2021-07-02T13:09:45Z</time>
      </trkpt>
      <trkpt lat="46.83508" lon="5.84723">
        <ele>625.1</ele>
        <time>2021-07-02T13:09:50Z</time>
      </trkpt>
      <trkpt lat="46.83513" lon="5.84719">
        <ele>624.6</ele>
        <time>2021-07-02T13:09:55Z</time>
      </trkpt>
      <trkpt lat="46.83517" lon="5.84715">
        <ele>624.8</ele>
        <time>2021-07-02T13:09:59Z</time>
      </trkpt>
      <trkpt lat="46.83521" lon="5.84711">
        <ele>625.5</ele>
        <time>2021-07-02T13:10:04Z</time>
      </trkpt>
      <trkpt lat="46.83526" lon="5.84708">
        <ele>626.3</ele>
        <time>2021-07-02T13:10:09Z</time>
      </trkpt>
      <trkpt lat="46.8353" lon="5.84705">
        <ele>627</ele>
        <time>2021-07-02T13:10:14Z</time>
      </trkpt>
      <trkpt lat="46.83535" lon="5.84701">
        <ele>627.6</ele>
        <time>2021-07-02T13:10:19Z</time>
      </trkpt>
      <trkpt lat="46.83539" lon="5.84696">
        <ele>627.7</ele>
        <time>2021-07-02T13:10:24Z</time>
      </trkpt>
      <trkpt lat="46.83543" lon="5.84692">
        <ele>627.6</ele>
        <time>2021-07-02T13:10:29Z</time>
      </trkpt>
      <trkpt lat="46.83548" lon="5.84689">
        <ele>627.4</ele>
        <time>2021-07-02T13:10:34Z</time>
      </trkpt>
      <trkpt lat="46.83552" lon="5.84685">
        <ele>627.4</ele>
        <time>2021-07-02T13:10:39Z</time>
      </trkpt>
      <trkpt lat="46.83558" lon="5.84683">
        <ele>627.4</ele>
        <time>2021-07-02T13:10:44Z</time>
      </trkpt>
      <trkpt lat="46.83562" lon="5.84681">
        <ele>627.5</ele>
        <time>2021-07-02T13:10:48Z</time>
      </trkpt>
      <trkpt lat="46.83567" lon="5.84677">
        <ele>627.5</ele>
        <time>2021-07-02T13:10:52Z</time>
      </trkpt>
      <trkpt lat="46.83571" lon="5.84675">
        <ele>627.6</ele>
        <time>2021-07-02T13:10:56Z</time>
      </trkpt>
      <trkpt lat="46.83576" lon="5.84672">
        <ele>628.2</ele>
        <time>2021-07-02T13:11:00Z</time>
      </trkpt>
      <trkpt lat="46.83582" lon="5.84669">
        <ele>628.9</ele>
        <time>2021-07-02T13:11:04Z</time>
      </trkpt>
      <trkpt lat="46.83588" lon="5.84665">
        <ele>629</ele>
        <time>2021-07-02T13:11:08Z</time>
      </trkpt>
      <trkpt lat="46.83592" lon="5.84661">
        <ele>629.1</ele>
        <time>2021-07-02T13:11:13Z</time>
      </trkpt>
      <trkpt lat="46.83596" lon="5.84658">
        <ele>628.7</ele>
        <time>2021-07-02T13:11:19Z</time>
      </trkpt>
      <trkpt lat="46.83601" lon="5.84656">
        <ele>628.2</ele>
        <time>2021-07-02T13:11:23Z</time>
      </trkpt>
      <trkpt lat="46.83604" lon="5.84651">
        <ele>626.9</ele>
        <time>2021-07-02T13:11:30Z</time>
      </trkpt>
      <trkpt lat="46.83608" lon="5.84647">
        <ele>626.7</ele>
        <time>2021-07-02T13:11:34Z</time>
      </trkpt>
      <trkpt lat="46.83613" lon="5.84645">
        <ele>626.7</ele>
        <time>2021-07-02T13:11:38Z</time>
      </trkpt>
      <trkpt lat="46.83618" lon="5.84643">
        <ele>627</ele>
        <time>2021-07-02T13:11:42Z</time>
      </trkpt>
      <trkpt lat="46.83622" lon="5.84638">
        <ele>627.3</ele>
        <time>2021-07-02T13:11:48Z</time>
      </trkpt>
      <trkpt lat="46.83624" lon="5.84633">
        <ele>627</ele>
        <time>2021-07-02T13:11:54Z</time>
      </trkpt>
      <trkpt lat="46.83626" lon="5.84627">
        <ele>625.8</ele>
        <time>2021-07-02T13:11:59Z</time>
      </trkpt>
      <trkpt lat="46.8363" lon="5.84623">
        <ele>624.5</ele>
        <time>2021-07-02T13:12:05Z</time>
      </trkpt>
      <trkpt lat="46.83634" lon="5.84625">
        <ele>623.1</ele>
        <time>2021-07-02T13:12:13Z</time>
      </trkpt>
      <trkpt lat="46.83638" lon="5.84621">
        <ele>621.8</ele>
        <time>2021-07-02T13:12:37Z</time>
      </trkpt>
      <trkpt lat="46.83641" lon="5.84615">
        <ele>622.1</ele>
        <time>2021-07-02T13:12:41Z</time>
      </trkpt>
      <trkpt lat="46.83645" lon="5.84611">
        <ele>622.5</ele>
        <time>2021-07-02T13:12:45Z</time>
      </trkpt>
      <trkpt lat="46.83649" lon="5.84605">
        <ele>622.9</ele>
        <time>2021-07-02T13:12:49Z</time>
      </trkpt>
      <trkpt lat="46.83653" lon="5.84599">
        <ele>623.4</ele>
        <time>2021-07-02T13:12:53Z</time>
      </trkpt>
      <trkpt lat="46.83657" lon="5.84593">
        <ele>624</ele>
        <time>2021-07-02T13:12:57Z</time>
      </trkpt>
      <trkpt lat="46.83659" lon="5.84585">
        <ele>624.8</ele>
        <time>2021-07-02T13:13:01Z</time>
      </trkpt>
      <trkpt lat="46.83662" lon="5.84579">
        <ele>625.6</ele>
        <time>2021-07-02T13:13:05Z</time>
      </trkpt>
      <trkpt lat="46.83666" lon="5.84574">
        <ele>626.4</ele>
        <time>2021-07-02T13:13:11Z</time>
      </trkpt>
      <trkpt lat="46.8367" lon="5.84572">
        <ele>626.7</ele>
        <time>2021-07-02T13:13:16Z</time>
      </trkpt>
      <trkpt lat="46.83675" lon="5.84573">
        <ele>626.4</ele>
        <time>2021-07-02T13:13:21Z</time>
      </trkpt>
      <trkpt lat="46.83678" lon="5.84578">
        <ele>625.9</ele>
        <time>2021-07-02T13:13:26Z</time>
      </trkpt>
      <trkpt lat="46.83681" lon="5.84585">
        <ele>624.7</ele>
        <time>2021-07-02T13:13:40Z</time>
      </trkpt>
      <trkpt lat="46.83685" lon="5.84589">
        <ele>624.5</ele>
        <time>2021-07-02T13:13:46Z</time>
      </trkpt>
      <trkpt lat="46.8369" lon="5.84593">
        <ele>624.4</ele>
        <time>2021-07-02T13:13:51Z</time>
      </trkpt>
      <trkpt lat="46.83694" lon="5.84597">
        <ele>624.3</ele>
        <time>2021-07-02T13:13:55Z</time>
      </trkpt>
      <trkpt lat="46.83698" lon="5.84603">
        <ele>623.9</ele>
        <time>2021-07-02T13:14:00Z</time>
      </trkpt>
      <trkpt lat="46.83699" lon="5.8461">
        <ele>624.2</ele>
        <time>2021-07-02T13:14:07Z</time>
      </trkpt>
      <trkpt lat="46.837" lon="5.84617">
        <ele>624.7</ele>
        <time>2021-07-02T13:14:13Z</time>
      </trkpt>
      <trkpt lat="46.83696" lon="5.84613">
        <ele>629.3</ele>
        <time>2021-07-02T13:14:56Z</time>
      </trkpt>
      <trkpt lat="46.83692" lon="5.84608">
        <ele>631.1</ele>
        <time>2021-07-02T13:15:17Z</time>
      </trkpt>
      <trkpt lat="46.83688" lon="5.84604">
        <ele>631.3</ele>
        <time>2021-07-02T13:15:22Z</time>
      </trkpt>
      <trkpt lat="46.83688" lon="5.84597">
        <ele>631.7</ele>
        <time>2021-07-02T13:15:32Z</time>
      </trkpt>
      <trkpt lat="46.83688" lon="5.8459">
        <ele>631.7</ele>
        <time>2021-07-02T13:15:45Z</time>
      </trkpt>
      <trkpt lat="46.83684" lon="5.84593">
        <ele>630.7</ele>
        <time>2021-07-02T13:15:58Z</time>
      </trkpt>
      <trkpt lat="46.83679" lon="5.84588">
        <ele>632.8</ele>
        <time>2021-07-02T13:16:20Z</time>
      </trkpt>
      <trkpt lat="46.83675" lon="5.84583">
        <ele>633.6</ele>
        <time>2021-07-02T13:16:24Z</time>
      </trkpt>
      <trkpt lat="46.83671" lon="5.84579">
        <ele>634.2</ele>
        <time>2021-07-02T13:16:29Z</time>
      </trkpt>
      <trkpt lat="46.83668" lon="5.84573">
        <ele>634.2</ele>
        <time>2021-07-02T13:16:35Z</time>
      </trkpt>
      <trkpt lat="46.83674" lon="5.84574">
        <ele>632.6</ele>
        <time>2021-07-02T13:16:39Z</time>
      </trkpt>
      <trkpt lat="46.83678" lon="5.84576">
        <ele>631.4</ele>
        <time>2021-07-02T13:16:43Z</time>
      </trkpt>
      <trkpt lat="46.83682" lon="5.84571">
        <ele>629.6</ele>
        <time>2021-07-02T13:16:50Z</time>
      </trkpt>
      <trkpt lat="46.83682" lon="5.84564">
        <ele>628.9</ele>
        <time>2021-07-02T13:16:54Z</time>
      </trkpt>
      <trkpt lat="46.83684" lon="5.84558">
        <ele>628.3</ele>
        <time>2021-07-02T13:16:58Z</time>
      </trkpt>
      <trkpt lat="46.83687" lon="5.84553">
        <ele>627.7</ele>
        <time>2021-07-02T13:17:03Z</time>
      </trkpt>
      <trkpt lat="46.83692" lon="5.84551">
        <ele>627.5</ele>
        <time>2021-07-02T13:17:09Z</time>
      </trkpt>
      <trkpt lat="46.83697" lon="5.84547">
        <ele>627.6</ele>
        <time>2021-07-02T13:17:17Z</time>
      </trkpt>
      <trkpt lat="46.83701" lon="5.84544">
        <ele>627.7</ele>
        <time>2021-07-02T13:17:21Z</time>
      </trkpt>
      <trkpt lat="46.83706" lon="5.84541">
        <ele>627.7</ele>
        <time>2021-07-02T13:17:25Z</time>
      </trkpt>
      <trkpt lat="46.8371" lon="5.84538">
        <ele>627.7</ele>
        <time>2021-07-02T13:17:30Z</time>
      </trkpt>
      <trkpt lat="46.83715" lon="5.84534">
        <ele>627.7</ele>
        <time>2021-07-02T13:17:36Z</time>
      </trkpt>
      <trkpt lat="46.83719" lon="5.84529">
        <ele>627.7</ele>
        <time>2021-07-02T13:17:40Z</time>
      </trkpt>
      <trkpt lat="46.83722" lon="5.84524">
        <ele>627.4</ele>
        <time>2021-07-02T13:17:44Z</time>
      </trkpt>
      <trkpt lat="46.83727" lon="5.84522">
        <ele>626.5</ele>
        <time>2021-07-02T13:17:50Z</time>
      </trkpt>
      <trkpt lat="46.83732" lon="5.84521">
        <ele>625.6</ele>
        <time>2021-07-02T13:17:57Z</time>
      </trkpt>
      <trkpt lat="46.83738" lon="5.8452">
        <ele>624.7</ele>
        <time>2021-07-02T13:18:03Z</time>
      </trkpt>
      <trkpt lat="46.83742" lon="5.84519">
        <ele>624.1</ele>
        <time>2021-07-02T13:18:07Z</time>
      </trkpt>
      <trkpt lat="46.83747" lon="5.84518">
        <ele>623.1</ele>
        <time>2021-07-02T13:18:12Z</time>
      </trkpt>
      <trkpt lat="46.83753" lon="5.84517">
        <ele>622.7</ele>
        <time>2021-07-02T13:18:16Z</time>
      </trkpt>
      <trkpt lat="46.8376" lon="5.84515">
        <ele>622.8</ele>
        <time>2021-07-02T13:18:20Z</time>
      </trkpt>
      <trkpt lat="46.83764" lon="5.84513">
        <ele>623.2</ele>
        <time>2021-07-02T13:18:24Z</time>
      </trkpt>
      <trkpt lat="46.83769" lon="5.84512">
        <ele>623.6</ele>
        <time>2021-07-02T13:18:32Z</time>
      </trkpt>
      <trkpt lat="46.83774" lon="5.84513">
        <ele>623.4</ele>
        <time>2021-07-02T13:18:38Z</time>
      </trkpt>
      <trkpt lat="46.83779" lon="5.84514">
        <ele>623.2</ele>
        <time>2021-07-02T13:18:43Z</time>
      </trkpt>
      <trkpt lat="46.83785" lon="5.84513">
        <ele>623.2</ele>
        <time>2021-07-02T13:18:47Z</time>
      </trkpt>
      <trkpt lat="46.83791" lon="5.84511">
        <ele>623.4</ele>
        <time>2021-07-02T13:19:09Z</time>
      </trkpt>
      <trkpt lat="46.83797" lon="5.84512">
        <ele>623.2</ele>
        <time>2021-07-02T13:19:13Z</time>
      </trkpt>
      <trkpt lat="46.83803" lon="5.84513">
        <ele>622.9</ele>
        <time>2021-07-02T13:19:17Z</time>
      </trkpt>
      <trkpt lat="46.83809" lon="5.84515">
        <ele>622.9</ele>
        <time>2021-07-02T13:19:21Z</time>
      </trkpt>
      <trkpt lat="46.83814" lon="5.84516">
        <ele>622.7</ele>
        <time>2021-07-02T13:19:25Z</time>
      </trkpt>
      <trkpt lat="46.83818" lon="5.84513">
        <ele>622.9</ele>
        <time>2021-07-02T13:19:30Z</time>
      </trkpt>
      <trkpt lat="46.83822" lon="5.84507">
        <ele>625.1</ele>
        <time>2021-07-02T13:19:37Z</time>
      </trkpt>
      <trkpt lat="46.83826" lon="5.84502">
        <ele>625.9</ele>
        <time>2021-07-02T13:19:41Z</time>
      </trkpt>
      <trkpt lat="46.83827" lon="5.84494">
        <ele>626.4</ele>
        <time>2021-07-02T13:19:45Z</time>
      </trkpt>
      <trkpt lat="46.83826" lon="5.84487">
        <ele>626.4</ele>
        <time>2021-07-02T13:19:49Z</time>
      </trkpt>
      <trkpt lat="46.83826" lon="5.8448">
        <ele>626.4</ele>
        <time>2021-07-02T13:19:53Z</time>
      </trkpt>
      <trkpt lat="46.83827" lon="5.84472">
        <ele>625.7</ele>
        <time>2021-07-02T13:19:59Z</time>
      </trkpt>
      <trkpt lat="46.8383" lon="5.84468">
        <ele>624.4</ele>
        <time>2021-07-02T13:20:04Z</time>
      </trkpt>
      <trkpt lat="46.83835" lon="5.84463">
        <ele>623</ele>
        <time>2021-07-02T13:20:09Z</time>
      </trkpt>
      <trkpt lat="46.83839" lon="5.84461">
        <ele>622.1</ele>
        <time>2021-07-02T13:20:14Z</time>
      </trkpt>
      <trkpt lat="46.83845" lon="5.84458">
        <ele>621.8</ele>
        <time>2021-07-02T13:20:27Z</time>
      </trkpt>
      <trkpt lat="46.83854" lon="5.84455">
        <ele>622.1</ele>
        <time>2021-07-02T13:20:31Z</time>
      </trkpt>
      <trkpt lat="46.8386" lon="5.84453">
        <ele>622.1</ele>
        <time>2021-07-02T13:20:48Z</time>
      </trkpt>
      <trkpt lat="46.83865" lon="5.84455">
        <ele>621.7</ele>
        <time>2021-07-02T13:20:52Z</time>
      </trkpt>
      <trkpt lat="46.8387" lon="5.84458">
        <ele>621.8</ele>
        <time>2021-07-02T13:20:57Z</time>
      </trkpt>
      <trkpt lat="46.83874" lon="5.84461">
        <ele>622.2</ele>
        <time>2021-07-02T13:21:02Z</time>
      </trkpt>
      <trkpt lat="46.83879" lon="5.84465">
        <ele>622.6</ele>
        <time>2021-07-02T13:21:08Z</time>
      </trkpt>
      <trkpt lat="46.83884" lon="5.84464">
        <ele>622.6</ele>
        <time>2021-07-02T13:21:14Z</time>
      </trkpt>
      <trkpt lat="46.83888" lon="5.84463">
        <ele>621.7</ele>
        <time>2021-07-02T13:21:41Z</time>
      </trkpt>
      <trkpt lat="46.83894" lon="5.84461">
        <ele>625.5</ele>
        <time>2021-07-02T13:21:55Z</time>
      </trkpt>
      <trkpt lat="46.83902" lon="5.84465">
        <ele>626.3</ele>
        <time>2021-07-02T13:22:06Z</time>
      </trkpt>
      <trkpt lat="46.83907" lon="5.84469">
        <ele>626.4</ele>
        <time>2021-07-02T13:22:10Z</time>
      </trkpt>
      <trkpt lat="46.83912" lon="5.84473">
        <ele>626.3</ele>
        <time>2021-07-02T13:22:16Z</time>
      </trkpt>
      <trkpt lat="46.83916" lon="5.84475">
        <ele>625.4</ele>
        <time>2021-07-02T13:22:22Z</time>
      </trkpt>
      <trkpt lat="46.83921" lon="5.84476">
        <ele>624.5</ele>
        <time>2021-07-02T13:22:27Z</time>
      </trkpt>
      <trkpt lat="46.83924" lon="5.8448">
        <ele>623.3</ele>
        <time>2021-07-02T13:22:32Z</time>
      </trkpt>
      <trkpt lat="46.83926" lon="5.84487">
        <ele>620.8</ele>
        <time>2021-07-02T13:22:38Z</time>
      </trkpt>
      <trkpt lat="46.83929" lon="5.84493">
        <ele>619</ele>
        <time>2021-07-02T13:22:44Z</time>
      </trkpt>
      <trkpt lat="46.83934" lon="5.84491">
        <ele>616.8</ele>
        <time>2021-07-02T13:22:51Z</time>
      </trkpt>
      <trkpt lat="46.83939" lon="5.8449">
        <ele>615</ele>
        <time>2021-07-02T13:23:05Z</time>
      </trkpt>
      <trkpt lat="46.83944" lon="5.84489">
        <ele>614.9</ele>
        <time>2021-07-02T13:23:11Z</time>
      </trkpt>
      <trkpt lat="46.83949" lon="5.8449">
        <ele>615</ele>
        <time>2021-07-02T13:23:16Z</time>
      </trkpt>
      <trkpt lat="46.83946" lon="5.84496">
        <ele>615.2</ele>
        <time>2021-07-02T13:23:28Z</time>
      </trkpt>
      <trkpt lat="46.83949" lon="5.84502">
        <ele>615.1</ele>
        <time>2021-07-02T13:23:35Z</time>
      </trkpt>
      <trkpt lat="46.83951" lon="5.84508">
        <ele>615.1</ele>
        <time>2021-07-02T13:23:41Z</time>
      </trkpt>
      <trkpt lat="46.83954" lon="5.84514">
        <ele>615</ele>
        <time>2021-07-02T13:23:45Z</time>
      </trkpt>
      <trkpt lat="46.83956" lon="5.84521">
        <ele>614.8</ele>
        <time>2021-07-02T13:23:49Z</time>
      </trkpt>
      <trkpt lat="46.8396" lon="5.84528">
        <ele>615.1</ele>
        <time>2021-07-02T13:23:53Z</time>
      </trkpt>
      <trkpt lat="46.83964" lon="5.84529">
        <ele>615.4</ele>
        <time>2021-07-02T13:23:59Z</time>
      </trkpt>
      <trkpt lat="46.83965" lon="5.84536">
        <ele>614.9</ele>
        <time>2021-07-02T13:24:10Z</time>
      </trkpt>
      <trkpt lat="46.83966" lon="5.84543">
        <ele>615.6</ele>
        <time>2021-07-02T13:24:14Z</time>
      </trkpt>
      <trkpt lat="46.83968" lon="5.8455">
        <ele>616.7</ele>
        <time>2021-07-02T13:24:18Z</time>
      </trkpt>
      <trkpt lat="46.83969" lon="5.84557">
        <ele>617.6</ele>
        <time>2021-07-02T13:24:23Z</time>
      </trkpt>
      <trkpt lat="46.83972" lon="5.84563">
        <ele>616.3</ele>
        <time>2021-07-02T13:24:34Z</time>
      </trkpt>
      <trkpt lat="46.83975" lon="5.84568">
        <ele>615.8</ele>
        <time>2021-07-02T13:24:38Z</time>
      </trkpt>
      <trkpt lat="46.83977" lon="5.84576">
        <ele>615.8</ele>
        <time>2021-07-02T13:24:42Z</time>
      </trkpt>
      <trkpt lat="46.83978" lon="5.84583">
        <ele>616</ele>
        <time>2021-07-02T13:24:47Z</time>
      </trkpt>
      <trkpt lat="46.83978" lon="5.8459">
        <ele>615.8</ele>
        <time>2021-07-02T13:24:52Z</time>
      </trkpt>
      <trkpt lat="46.83981" lon="5.84596">
        <ele>615.4</ele>
        <time>2021-07-02T13:24:57Z</time>
      </trkpt>
      <trkpt lat="46.83986" lon="5.84602">
        <ele>615.3</ele>
        <time>2021-07-02T13:25:01Z</time>
      </trkpt>
      <trkpt lat="46.8399" lon="5.84607">
        <ele>615</ele>
        <time>2021-07-02T13:25:05Z</time>
      </trkpt>
      <trkpt lat="46.83993" lon="5.84613">
        <ele>614.6</ele>
        <time>2021-07-02T13:25:12Z</time>
      </trkpt>
      <trkpt lat="46.83994" lon="5.8462">
        <ele>614.2</ele>
        <time>2021-07-02T13:25:18Z</time>
      </trkpt>
      <trkpt lat="46.83995" lon="5.84626">
        <ele>613.6</ele>
        <time>2021-07-02T13:25:24Z</time>
      </trkpt>
      <trkpt lat="46.83999" lon="5.84633">
        <ele>614</ele>
        <time>2021-07-02T13:25:28Z</time>
      </trkpt>
      <trkpt lat="46.84003" lon="5.84638">
        <ele>616.3</ele>
        <time>2021-07-02T13:25:37Z</time>
      </trkpt>
      <trkpt lat="46.84006" lon="5.84642">
        <ele>617.6</ele>
        <time>2021-07-02T13:25:42Z</time>
      </trkpt>
      <trkpt lat="46.84006" lon="5.8465">
        <ele>619.2</ele>
        <time>2021-07-02T13:25:47Z</time>
      </trkpt>
      <trkpt lat="46.84008" lon="5.84657">
        <ele>620.9</ele>
        <time>2021-07-02T13:25:52Z</time>
      </trkpt>
      <trkpt lat="46.84008" lon="5.84665">
        <ele>623</ele>
        <time>2021-07-02T13:25:58Z</time>
      </trkpt>
      <trkpt lat="46.84009" lon="5.84673">
        <ele>625.1</ele>
        <time>2021-07-02T13:26:04Z</time>
      </trkpt>
      <trkpt lat="46.84009" lon="5.84679">
        <ele>627.3</ele>
        <time>2021-07-02T13:26:11Z</time>
      </trkpt>
      <trkpt lat="46.84011" lon="5.84687">
        <ele>627.7</ele>
        <time>2021-07-02T13:26:18Z</time>
      </trkpt>
      <trkpt lat="46.84015" lon="5.84687">
        <ele>627.9</ele>
        <time>2021-07-02T13:26:26Z</time>
      </trkpt>
      <trkpt lat="46.84016" lon="5.84694">
        <ele>628</ele>
        <time>2021-07-02T13:26:34Z</time>
      </trkpt>
      <trkpt lat="46.84019" lon="5.847">
        <ele>627.7</ele>
        <time>2021-07-02T13:26:41Z</time>
      </trkpt>
      <trkpt lat="46.84022" lon="5.84706">
        <ele>626.4</ele>
        <time>2021-07-02T13:26:47Z</time>
      </trkpt>
      <trkpt lat="46.84024" lon="5.84712">
        <ele>624.4</ele>
        <time>2021-07-02T13:26:54Z</time>
      </trkpt>
      <trkpt lat="46.84025" lon="5.84719">
        <ele>623.3</ele>
        <time>2021-07-02T13:27:00Z</time>
      </trkpt>
      <trkpt lat="46.84025" lon="5.84726">
        <ele>623.2</ele>
        <time>2021-07-02T13:27:04Z</time>
      </trkpt>
      <trkpt lat="46.84026" lon="5.84733">
        <ele>623.3</ele>
        <time>2021-07-02T13:27:08Z</time>
      </trkpt>
      <trkpt lat="46.84027" lon="5.8474">
        <ele>623.3</ele>
        <time>2021-07-02T13:27:13Z</time>
      </trkpt>
      <trkpt lat="46.84031" lon="5.84746">
        <ele>623.9</ele>
        <time>2021-07-02T13:27:18Z</time>
      </trkpt>
      <trkpt lat="46.84035" lon="5.8475">
        <ele>625.5</ele>
        <time>2021-07-02T13:27:26Z</time>
      </trkpt>
      <trkpt lat="46.84038" lon="5.84755">
        <ele>626.6</ele>
        <time>2021-07-02T13:27:34Z</time>
      </trkpt>
      <trkpt lat="46.84042" lon="5.84759">
        <ele>626.7</ele>
        <time>2021-07-02T13:27:40Z</time>
      </trkpt>
      <trkpt lat="46.84047" lon="5.84761">
        <ele>626.5</ele>
        <time>2021-07-02T13:27:45Z</time>
      </trkpt>
      <trkpt lat="46.84051" lon="5.84765">
        <ele>626.1</ele>
        <time>2021-07-02T13:27:50Z</time>
      </trkpt>
      <trkpt lat="46.84056" lon="5.84769">
        <ele>625.5</ele>
        <time>2021-07-02T13:27:55Z</time>
      </trkpt>
      <trkpt lat="46.84058" lon="5.84775">
        <ele>625.3</ele>
        <time>2021-07-02T13:27:59Z</time>
      </trkpt>
      <trkpt lat="46.8406" lon="5.84782">
        <ele>625.4</ele>
        <time>2021-07-02T13:28:04Z</time>
      </trkpt>
      <trkpt lat="46.84063" lon="5.84787">
        <ele>626</ele>
        <time>2021-07-02T13:28:10Z</time>
      </trkpt>
      <trkpt lat="46.84065" lon="5.84794">
        <ele>626.7</ele>
        <time>2021-07-02T13:28:17Z</time>
      </trkpt>
      <trkpt lat="46.84065" lon="5.84802">
        <ele>627</ele>
        <time>2021-07-02T13:28:21Z</time>
      </trkpt>
      <trkpt lat="46.84064" lon="5.84809">
        <ele>625.9</ele>
        <time>2021-07-02T13:28:32Z</time>
      </trkpt>
      <trkpt lat="46.84069" lon="5.84807">
        <ele>623.1</ele>
        <time>2021-07-02T13:28:50Z</time>
      </trkpt>
      <trkpt lat="46.84072" lon="5.84812">
        <ele>623.2</ele>
        <time>2021-07-02T13:29:02Z</time>
      </trkpt>
      <trkpt lat="46.84076" lon="5.84817">
        <ele>625.2</ele>
        <time>2021-07-02T13:29:08Z</time>
      </trkpt>
      <trkpt lat="46.84078" lon="5.84823">
        <ele>626.8</ele>
        <time>2021-07-02T13:29:13Z</time>
      </trkpt>
      <trkpt lat="46.8408" lon="5.84828">
        <ele>628.2</ele>
        <time>2021-07-02T13:29:17Z</time>
      </trkpt>
      <trkpt lat="46.84082" lon="5.84835">
        <ele>630.6</ele>
        <time>2021-07-02T13:29:22Z</time>
      </trkpt>
      <trkpt lat="46.84086" lon="5.84839">
        <ele>633.2</ele>
        <time>2021-07-02T13:29:27Z</time>
      </trkpt>
      <trkpt lat="46.84089" lon="5.84845">
        <ele>635</ele>
        <time>2021-07-02T13:29:31Z</time>
      </trkpt>
      <trkpt lat="46.84091" lon="5.84852">
        <ele>636.4</ele>
        <time>2021-07-02T13:29:37Z</time>
      </trkpt>
      <trkpt lat="46.84094" lon="5.84857">
        <ele>636.2</ele>
        <time>2021-07-02T13:29:42Z</time>
      </trkpt>
      <trkpt lat="46.84095" lon="5.84865">
        <ele>635.8</ele>
        <time>2021-07-02T13:29:48Z</time>
      </trkpt>
      <trkpt lat="46.84097" lon="5.84871">
        <ele>635.2</ele>
        <time>2021-07-02T13:29:54Z</time>
      </trkpt>
      <trkpt lat="46.841" lon="5.84877">
        <ele>634.6</ele>
        <time>2021-07-02T13:30:03Z</time>
      </trkpt>
      <trkpt lat="46.84104" lon="5.84881">
        <ele>634.6</ele>
        <time>2021-07-02T13:30:10Z</time>
      </trkpt>
      <trkpt lat="46.84106" lon="5.84887">
        <ele>633.8</ele>
        <time>2021-07-02T13:30:17Z</time>
      </trkpt>
      <trkpt lat="46.84109" lon="5.84893">
        <ele>632.6</ele>
        <time>2021-07-02T13:30:23Z</time>
      </trkpt>
      <trkpt lat="46.8411" lon="5.849">
        <ele>631.2</ele>
        <time>2021-07-02T13:30:28Z</time>
      </trkpt>
      <trkpt lat="46.84109" lon="5.84908">
        <ele>629.6</ele>
        <time>2021-07-02T13:30:32Z</time>
      </trkpt>
      <trkpt lat="46.84108" lon="5.84918">
        <ele>628</ele>
        <time>2021-07-02T13:30:36Z</time>
      </trkpt>
      <trkpt lat="46.84112" lon="5.84917">
        <ele>627.9</ele>
        <time>2021-07-02T13:30:49Z</time>
      </trkpt>
      <trkpt lat="46.8411" lon="5.84924">
        <ele>628.2</ele>
        <time>2021-07-02T13:31:17Z</time>
      </trkpt>
      <trkpt lat="46.84111" lon="5.84931">
        <ele>628.8</ele>
        <time>2021-07-02T13:31:26Z</time>
      </trkpt>
      <trkpt lat="46.84115" lon="5.84936">
        <ele>627.5</ele>
        <time>2021-07-02T13:31:38Z</time>
      </trkpt>
      <trkpt lat="46.84115" lon="5.84945">
        <ele>628.5</ele>
        <time>2021-07-02T13:31:42Z</time>
      </trkpt>
      <trkpt lat="46.84117" lon="5.84951">
        <ele>630.5</ele>
        <time>2021-07-02T13:31:47Z</time>
      </trkpt>
      <trkpt lat="46.8412" lon="5.84957">
        <ele>633.3</ele>
        <time>2021-07-02T13:31:54Z</time>
      </trkpt>
      <trkpt lat="46.84124" lon="5.84962">
        <ele>635.6</ele>
        <time>2021-07-02T13:32:03Z</time>
      </trkpt>
      <trkpt lat="46.84125" lon="5.84968">
        <ele>636.6</ele>
        <time>2021-07-02T13:32:13Z</time>
      </trkpt>
      <trkpt lat="46.8413" lon="5.84971">
        <ele>636.9</ele>
        <time>2021-07-02T13:32:21Z</time>
      </trkpt>
      <trkpt lat="46.8413" lon="5.84964">
        <ele>637.9</ele>
        <time>2021-07-02T13:32:45Z</time>
      </trkpt>
      <trkpt lat="46.84135" lon="5.84965">
        <ele>637.7</ele>
        <time>2021-07-02T13:32:56Z</time>
      </trkpt>
      <trkpt lat="46.84137" lon="5.84972">
        <ele>637.5</ele>
        <time>2021-07-02T13:33:00Z</time>
      </trkpt>
      <trkpt lat="46.8413" lon="5.84969">
        <ele>637.6</ele>
        <time>2021-07-02T13:33:09Z</time>
      </trkpt>
      <trkpt lat="46.84136" lon="5.84957">
        <ele>637.1</ele>
        <time>2021-07-02T13:33:13Z</time>
      </trkpt>
      <trkpt lat="46.84137" lon="5.84964">
        <ele>636.7</ele>
        <time>2021-07-02T13:33:17Z</time>
      </trkpt>
      <trkpt lat="46.8414" lon="5.84976">
        <ele>636.5</ele>
        <time>2021-07-02T13:33:21Z</time>
      </trkpt>
      <trkpt lat="46.84136" lon="5.84983">
        <ele>636.9</ele>
        <time>2021-07-02T13:33:25Z</time>
      </trkpt>
      <trkpt lat="46.84132" lon="5.84987">
        <ele>637.3</ele>
        <time>2021-07-02T13:33:32Z</time>
      </trkpt>
      <trkpt lat="46.84128" lon="5.84982">
        <ele>638.6</ele>
        <time>2021-07-02T13:33:56Z</time>
      </trkpt>
      <trkpt lat="46.84123" lon="5.84983">
        <ele>637.9</ele>
        <time>2021-07-02T13:34:08Z</time>
      </trkpt>
      <trkpt lat="46.84118" lon="5.84984">
        <ele>637.5</ele>
        <time>2021-07-02T13:34:15Z</time>
      </trkpt>
      <trkpt lat="46.84113" lon="5.84983">
        <ele>636.3</ele>
        <time>2021-07-02T13:34:23Z</time>
      </trkpt>
      <trkpt lat="46.84108" lon="5.84984">
        <ele>635.8</ele>
        <time>2021-07-02T13:34:33Z</time>
      </trkpt>
      <trkpt lat="46.84105" lon="5.84989">
        <ele>634.9</ele>
        <time>2021-07-02T13:34:39Z</time>
      </trkpt>
      <trkpt lat="46.84099" lon="5.84992">
        <ele>634.5</ele>
        <time>2021-07-02T13:34:43Z</time>
      </trkpt>
      <trkpt lat="46.84094" lon="5.84992">
        <ele>634.2</ele>
        <time>2021-07-02T13:34:47Z</time>
      </trkpt>
      <trkpt lat="46.84089" lon="5.84992">
        <ele>634.1</ele>
        <time>2021-07-02T13:34:52Z</time>
      </trkpt>
      <trkpt lat="46.84084" lon="5.84993">
        <ele>633.5</ele>
        <time>2021-07-02T13:34:57Z</time>
      </trkpt>
      <trkpt lat="46.84079" lon="5.84995">
        <ele>632.9</ele>
        <time>2021-07-02T13:35:02Z</time>
      </trkpt>
      <trkpt lat="46.84074" lon="5.84999">
        <ele>632.3</ele>
        <time>2021-07-02T13:35:06Z</time>
      </trkpt>
      <trkpt lat="46.8407" lon="5.85004">
        <ele>631.5</ele>
        <time>2021-07-02T13:35:11Z</time>
      </trkpt>
      <trkpt lat="46.84065" lon="5.85006">
        <ele>630.3</ele>
        <time>2021-07-02T13:35:16Z</time>
      </trkpt>
      <trkpt lat="46.84062" lon="5.85012">
        <ele>629.4</ele>
        <time>2021-07-02T13:35:20Z</time>
      </trkpt>
      <trkpt lat="46.84059" lon="5.85019">
        <ele>629</ele>
        <time>2021-07-02T13:35:24Z</time>
      </trkpt>
      <trkpt lat="46.84057" lon="5.85025">
        <ele>630.1</ele>
        <time>2021-07-02T13:35:37Z</time>
      </trkpt>
      <trkpt lat="46.84058" lon="5.85032">
        <ele>634</ele>
        <time>2021-07-02T13:35:59Z</time>
      </trkpt>
      <trkpt lat="46.84056" lon="5.85038">
        <ele>633.6</ele>
        <time>2021-07-02T13:36:06Z</time>
      </trkpt>
      <trkpt lat="46.84059" lon="5.85044">
        <ele>633</ele>
        <time>2021-07-02T13:36:12Z</time>
      </trkpt>
      <trkpt lat="46.84063" lon="5.85049">
        <ele>632.7</ele>
        <time>2021-07-02T13:36:16Z</time>
      </trkpt>
      <trkpt lat="46.84066" lon="5.85055">
        <ele>632.4</ele>
        <time>2021-07-02T13:36:21Z</time>
      </trkpt>
      <trkpt lat="46.84068" lon="5.85061">
        <ele>632.7</ele>
        <time>2021-07-02T13:36:25Z</time>
      </trkpt>
      <trkpt lat="46.84072" lon="5.85066">
        <ele>633.5</ele>
        <time>2021-07-02T13:36:30Z</time>
      </trkpt>
      <trkpt lat="46.84076" lon="5.85071">
        <ele>634</ele>
        <time>2021-07-02T13:36:35Z</time>
      </trkpt>
      <trkpt lat="46.8408" lon="5.85076">
        <ele>634.4</ele>
        <time>2021-07-02T13:36:41Z</time>
      </trkpt>
      <trkpt lat="46.84082" lon="5.85083">
        <ele>634.6</ele>
        <time>2021-07-02T13:36:45Z</time>
      </trkpt>
      <trkpt lat="46.84085" lon="5.85089">
        <ele>634.7</ele>
        <time>2021-07-02T13:36:52Z</time>
      </trkpt>
      <trkpt lat="46.84087" lon="5.85095">
        <ele>634.7</ele>
        <time>2021-07-02T13:36:56Z</time>
      </trkpt>
      <trkpt lat="46.8409" lon="5.85101">
        <ele>634.3</ele>
        <time>2021-07-02T13:37:01Z</time>
      </trkpt>
      <trkpt lat="46.84091" lon="5.85108">
        <ele>635.3</ele>
        <time>2021-07-02T13:37:10Z</time>
      </trkpt>
      <trkpt lat="46.84093" lon="5.85116">
        <ele>636.2</ele>
        <time>2021-07-02T13:37:15Z</time>
      </trkpt>
      <trkpt lat="46.84097" lon="5.85121">
        <ele>636.2</ele>
        <time>2021-07-02T13:37:19Z</time>
      </trkpt>
      <trkpt lat="46.84101" lon="5.85126">
        <ele>635.9</ele>
        <time>2021-07-02T13:37:23Z</time>
      </trkpt>
      <trkpt lat="46.84103" lon="5.85133">
        <ele>635.7</ele>
        <time>2021-07-02T13:37:28Z</time>
      </trkpt>
      <trkpt lat="46.841" lon="5.8514">
        <ele>636.5</ele>
        <time>2021-07-02T13:37:35Z</time>
      </trkpt>
      <trkpt lat="46.841" lon="5.85147">
        <ele>637.5</ele>
        <time>2021-07-02T13:37:41Z</time>
      </trkpt>
      <trkpt lat="46.84101" lon="5.85155">
        <ele>638</ele>
        <time>2021-07-02T13:37:46Z</time>
      </trkpt>
      <trkpt lat="46.84099" lon="5.85162">
        <ele>638.8</ele>
        <time>2021-07-02T13:37:50Z</time>
      </trkpt>
      <trkpt lat="46.84097" lon="5.85168">
        <ele>640</ele>
        <time>2021-07-02T13:37:54Z</time>
      </trkpt>
      <trkpt lat="46.84098" lon="5.85175">
        <ele>640.8</ele>
        <time>2021-07-02T13:37:59Z</time>
      </trkpt>
      <trkpt lat="46.84098" lon="5.85182">
        <ele>641.9</ele>
        <time>2021-07-02T13:38:04Z</time>
      </trkpt>
      <trkpt lat="46.84096" lon="5.8519">
        <ele>643.2</ele>
        <time>2021-07-02T13:38:09Z</time>
      </trkpt>
      <trkpt lat="46.84096" lon="5.85198">
        <ele>643.7</ele>
        <time>2021-07-02T13:38:16Z</time>
      </trkpt>
      <trkpt lat="46.84097" lon="5.85204">
        <ele>643.7</ele>
        <time>2021-07-02T13:38:20Z</time>
      </trkpt>
      <trkpt lat="46.84098" lon="5.85212">
        <ele>643.4</ele>
        <time>2021-07-02T13:38:25Z</time>
      </trkpt>
      <trkpt lat="46.84097" lon="5.8522">
        <ele>642.6</ele>
        <time>2021-07-02T13:38:30Z</time>
      </trkpt>
      <trkpt lat="46.84098" lon="5.85226">
        <ele>642.1</ele>
        <time>2021-07-02T13:38:35Z</time>
      </trkpt>
      <trkpt lat="46.84101" lon="5.85233">
        <ele>642.8</ele>
        <time>2021-07-02T13:38:40Z</time>
      </trkpt>
      <trkpt lat="46.84103" lon="5.85239">
        <ele>643.7</ele>
        <time>2021-07-02T13:38:44Z</time>
      </trkpt>
      <trkpt lat="46.84104" lon="5.85247">
        <ele>644.8</ele>
        <time>2021-07-02T13:38:48Z</time>
      </trkpt>
      <trkpt lat="46.84107" lon="5.85253">
        <ele>645.3</ele>
        <time>2021-07-02T13:38:52Z</time>
      </trkpt>
      <trkpt lat="46.84108" lon="5.85261">
        <ele>645.3</ele>
        <time>2021-07-02T13:38:57Z</time>
      </trkpt>
      <trkpt lat="46.84108" lon="5.85267">
        <ele>645.3</ele>
        <time>2021-07-02T13:39:02Z</time>
      </trkpt>
      <trkpt lat="46.84105" lon="5.85272">
        <ele>645.1</ele>
        <time>2021-07-02T13:39:06Z</time>
      </trkpt>
      <trkpt lat="46.84101" lon="5.85277">
        <ele>644.8</ele>
        <time>2021-07-02T13:39:10Z</time>
      </trkpt>
      <trkpt lat="46.84098" lon="5.85283">
        <ele>644.4</ele>
        <time>2021-07-02T13:39:15Z</time>
      </trkpt>
      <trkpt lat="46.84096" lon="5.85289">
        <ele>644.4</ele>
        <time>2021-07-02T13:39:21Z</time>
      </trkpt>
      <trkpt lat="46.84093" lon="5.85294">
        <ele>644.2</ele>
        <time>2021-07-02T13:39:26Z</time>
      </trkpt>
      <trkpt lat="46.84089" lon="5.85298">
        <ele>643.6</ele>
        <time>2021-07-02T13:39:31Z</time>
      </trkpt>
      <trkpt lat="46.84087" lon="5.85304">
        <ele>642.8</ele>
        <time>2021-07-02T13:39:36Z</time>
      </trkpt>
      <trkpt lat="46.84084" lon="5.8531">
        <ele>641.6</ele>
        <time>2021-07-02T13:39:42Z</time>
      </trkpt>
      <trkpt lat="46.84081" lon="5.85317">
        <ele>640.5</ele>
        <time>2021-07-02T13:39:47Z</time>
      </trkpt>
      <trkpt lat="46.84084" lon="5.85323">
        <ele>639.3</ele>
        <time>2021-07-02T13:40:03Z</time>
      </trkpt>
      <trkpt lat="46.84084" lon="5.85331">
        <ele>639.6</ele>
        <time>2021-07-02T13:40:07Z</time>
      </trkpt>
      <trkpt lat="46.84084" lon="5.8534">
        <ele>640</ele>
        <time>2021-07-02T13:40:11Z</time>
      </trkpt>
      <trkpt lat="46.84085" lon="5.85346">
        <ele>640.5</ele>
        <time>2021-07-02T13:40:15Z</time>
      </trkpt>
      <trkpt lat="46.84086" lon="5.85354">
        <ele>642</ele>
        <time>2021-07-02T13:40:21Z</time>
      </trkpt>
      <trkpt lat="46.84084" lon="5.85361">
        <ele>642.9</ele>
        <time>2021-07-02T13:40:27Z</time>
      </trkpt>
      <trkpt lat="46.84083" lon="5.85369">
        <ele>643.6</ele>
        <time>2021-07-02T13:40:32Z</time>
      </trkpt>
      <trkpt lat="46.84084" lon="5.85377">
        <ele>643.5</ele>
        <time>2021-07-02T13:40:37Z</time>
      </trkpt>
      <trkpt lat="46.84087" lon="5.85382">
        <ele>642.2</ele>
        <time>2021-07-02T13:40:43Z</time>
      </trkpt>
      <trkpt lat="46.84092" lon="5.85377">
        <ele>640</ele>
        <time>2021-07-02T13:40:49Z</time>
      </trkpt>
      <trkpt lat="46.84096" lon="5.85374">
        <ele>638.5</ele>
        <time>2021-07-02T13:40:53Z</time>
      </trkpt>
      <trkpt lat="46.84101" lon="5.85373">
        <ele>636.1</ele>
        <time>2021-07-02T13:40:58Z</time>
      </trkpt>
      <trkpt lat="46.84102" lon="5.85379">
        <ele>632.6</ele>
        <time>2021-07-02T13:41:07Z</time>
      </trkpt>
      <trkpt lat="46.84105" lon="5.85386">
        <ele>632.2</ele>
        <time>2021-07-02T13:41:12Z</time>
      </trkpt>
      <trkpt lat="46.84108" lon="5.85391">
        <ele>632.4</ele>
        <time>2021-07-02T13:41:16Z</time>
      </trkpt>
      <trkpt lat="46.84111" lon="5.85398">
        <ele>633.9</ele>
        <time>2021-07-02T13:41:21Z</time>
      </trkpt>
      <trkpt lat="46.84111" lon="5.85405">
        <ele>635.5</ele>
        <time>2021-07-02T13:41:28Z</time>
      </trkpt>
      <trkpt lat="46.84111" lon="5.85412">
        <ele>635.8</ele>
        <time>2021-07-02T13:41:35Z</time>
      </trkpt>
      <trkpt lat="46.84112" lon="5.85418">
        <ele>634.6</ele>
        <time>2021-07-02T13:41:44Z</time>
      </trkpt>
      <trkpt lat="46.84113" lon="5.85424">
        <ele>634.1</ele>
        <time>2021-07-02T13:41:49Z</time>
      </trkpt>
      <trkpt lat="46.84116" lon="5.8543">
        <ele>634</ele>
        <time>2021-07-02T13:41:57Z</time>
      </trkpt>
      <trkpt lat="46.8412" lon="5.85433">
        <ele>634.2</ele>
        <time>2021-07-02T13:42:03Z</time>
      </trkpt>
      <trkpt lat="46.84124" lon="5.85439">
        <ele>634.4</ele>
        <time>2021-07-02T13:42:08Z</time>
      </trkpt>
      <trkpt lat="46.84122" lon="5.85445">
        <ele>633.9</ele>
        <time>2021-07-02T13:42:14Z</time>
      </trkpt>
      <trkpt lat="46.84118" lon="5.85451">
        <ele>633.9</ele>
        <time>2021-07-02T13:42:19Z</time>
      </trkpt>
      <trkpt lat="46.84115" lon="5.85456">
        <ele>633.9</ele>
        <time>2021-07-02T13:42:24Z</time>
      </trkpt>
      <trkpt lat="46.84111" lon="5.85461">
        <ele>633</ele>
        <time>2021-07-02T13:42:30Z</time>
      </trkpt>
      <trkpt lat="46.84112" lon="5.85468">
        <ele>632.7</ele>
        <time>2021-07-02T13:42:36Z</time>
      </trkpt>
      <trkpt lat="46.84111" lon="5.85475">
        <ele>632.4</ele>
        <time>2021-07-02T13:42:40Z</time>
      </trkpt>
      <trkpt lat="46.8411" lon="5.85483">
        <ele>631.9</ele>
        <time>2021-07-02T13:42:46Z</time>
      </trkpt>
      <trkpt lat="46.84109" lon="5.8549">
        <ele>632.2</ele>
        <time>2021-07-02T13:42:52Z</time>
      </trkpt>
      <trkpt lat="46.84109" lon="5.85498">
        <ele>632.7</ele>
        <time>2021-07-02T13:42:57Z</time>
      </trkpt>
      <trkpt lat="46.84106" lon="5.85506">
        <ele>634.6</ele>
        <time>2021-07-02T13:43:27Z</time>
      </trkpt>
      <trkpt lat="46.84107" lon="5.85513">
        <ele>636.2</ele>
        <time>2021-07-02T13:43:32Z</time>
      </trkpt>
      <trkpt lat="46.84109" lon="5.8552">
        <ele>636.7</ele>
        <time>2021-07-02T13:43:37Z</time>
      </trkpt>
      <trkpt lat="46.84109" lon="5.85527">
        <ele>636.6</ele>
        <time>2021-07-02T13:43:43Z</time>
      </trkpt>
      <trkpt lat="46.84106" lon="5.85532">
        <ele>636.8</ele>
        <time>2021-07-02T13:43:50Z</time>
      </trkpt>
      <trkpt lat="46.84104" lon="5.85538">
        <ele>636.7</ele>
        <time>2021-07-02T13:43:56Z</time>
      </trkpt>
      <trkpt lat="46.84103" lon="5.85546">
        <ele>636.5</ele>
        <time>2021-07-02T13:44:02Z</time>
      </trkpt>
      <trkpt lat="46.84105" lon="5.85553">
        <ele>636.8</ele>
        <time>2021-07-02T13:44:07Z</time>
      </trkpt>
      <trkpt lat="46.84108" lon="5.8556">
        <ele>637.5</ele>
        <time>2021-07-02T13:44:11Z</time>
      </trkpt>
      <trkpt lat="46.8411" lon="5.85569">
        <ele>638.3</ele>
        <time>2021-07-02T13:44:15Z</time>
      </trkpt>
      <trkpt lat="46.84112" lon="5.85576">
        <ele>638.9</ele>
        <time>2021-07-02T13:44:19Z</time>
      </trkpt>
      <trkpt lat="46.84117" lon="5.85578">
        <ele>640.1</ele>
        <time>2021-07-02T13:44:26Z</time>
      </trkpt>
      <trkpt lat="46.84122" lon="5.8558">
        <ele>641</ele>
        <time>2021-07-02T13:44:31Z</time>
      </trkpt>
      <trkpt lat="46.84125" lon="5.85585">
        <ele>641.9</ele>
        <time>2021-07-02T13:44:37Z</time>
      </trkpt>
      <trkpt lat="46.84127" lon="5.85592">
        <ele>641.9</ele>
        <time>2021-07-02T13:44:43Z</time>
      </trkpt>
      <trkpt lat="46.84127" lon="5.85598">
        <ele>641.5</ele>
        <time>2021-07-02T13:44:47Z</time>
      </trkpt>
      <trkpt lat="46.84126" lon="5.85605">
        <ele>640.9</ele>
        <time>2021-07-02T13:44:52Z</time>
      </trkpt>
      <trkpt lat="46.84123" lon="5.85611">
        <ele>640.4</ele>
        <time>2021-07-02T13:44:57Z</time>
      </trkpt>
      <trkpt lat="46.8412" lon="5.85617">
        <ele>639.9</ele>
        <time>2021-07-02T13:45:04Z</time>
      </trkpt>
      <trkpt lat="46.84118" lon="5.85624">
        <ele>639.8</ele>
        <time>2021-07-02T13:45:08Z</time>
      </trkpt>
      <trkpt lat="46.8412" lon="5.85631">
        <ele>639.8</ele>
        <time>2021-07-02T13:45:12Z</time>
      </trkpt>
      <trkpt lat="46.84122" lon="5.85637">
        <ele>640.1</ele>
        <time>2021-07-02T13:45:16Z</time>
      </trkpt>
      <trkpt lat="46.84125" lon="5.85643">
        <ele>640.9</ele>
        <time>2021-07-02T13:45:20Z</time>
      </trkpt>
      <trkpt lat="46.84129" lon="5.85645">
        <ele>641.6</ele>
        <time>2021-07-02T13:45:25Z</time>
      </trkpt>
      <trkpt lat="46.84133" lon="5.85648">
        <ele>642</ele>
        <time>2021-07-02T13:45:33Z</time>
      </trkpt>
      <trkpt lat="46.84138" lon="5.85648">
        <ele>642</ele>
        <time>2021-07-02T13:45:38Z</time>
      </trkpt>
      <trkpt lat="46.84143" lon="5.85648">
        <ele>642.9</ele>
        <time>2021-07-02T13:45:45Z</time>
      </trkpt>
      <trkpt lat="46.84148" lon="5.85647">
        <ele>643.8</ele>
        <time>2021-07-02T13:45:49Z</time>
      </trkpt>
      <trkpt lat="46.84154" lon="5.85649">
        <ele>644.8</ele>
        <time>2021-07-02T13:45:53Z</time>
      </trkpt>
      <trkpt lat="46.84156" lon="5.85654">
        <ele>645.9</ele>
        <time>2021-07-02T13:45:57Z</time>
      </trkpt>
      <trkpt lat="46.84161" lon="5.85658">
        <ele>646.6</ele>
        <time>2021-07-02T13:46:02Z</time>
      </trkpt>
      <trkpt lat="46.84164" lon="5.85662">
        <ele>646.8</ele>
        <time>2021-07-02T13:46:09Z</time>
      </trkpt>
      <trkpt lat="46.84168" lon="5.85665">
        <ele>646.3</ele>
        <time>2021-07-02T13:46:17Z</time>
      </trkpt>
      <trkpt lat="46.8417" lon="5.85673">
        <ele>645.4</ele>
        <time>2021-07-02T13:46:22Z</time>
      </trkpt>
      <trkpt lat="46.84173" lon="5.8568">
        <ele>645.2</ele>
        <time>2021-07-02T13:46:26Z</time>
      </trkpt>
      <trkpt lat="46.84175" lon="5.85686">
        <ele>645.3</ele>
        <time>2021-07-02T13:46:31Z</time>
      </trkpt>
      <trkpt lat="46.84177" lon="5.85692">
        <ele>646</ele>
        <time>2021-07-02T13:46:38Z</time>
      </trkpt>
      <trkpt lat="46.8418" lon="5.85699">
        <ele>646.6</ele>
        <time>2021-07-02T13:46:43Z</time>
      </trkpt>
      <trkpt lat="46.84182" lon="5.85705">
        <ele>647.1</ele>
        <time>2021-07-02T13:46:47Z</time>
      </trkpt>
      <trkpt lat="46.84182" lon="5.85712">
        <ele>647.8</ele>
        <time>2021-07-02T13:46:52Z</time>
      </trkpt>
      <trkpt lat="46.84182" lon="5.85719">
        <ele>648.5</ele>
        <time>2021-07-02T13:46:56Z</time>
      </trkpt>
      <trkpt lat="46.84183" lon="5.85726">
        <ele>649.4</ele>
        <time>2021-07-02T13:47:00Z</time>
      </trkpt>
      <trkpt lat="46.84183" lon="5.85733">
        <ele>650.2</ele>
        <time>2021-07-02T13:47:06Z</time>
      </trkpt>
      <trkpt lat="46.84185" lon="5.85739">
        <ele>649.8</ele>
        <time>2021-07-02T13:47:14Z</time>
      </trkpt>
      <trkpt lat="46.84187" lon="5.85747">
        <ele>648.8</ele>
        <time>2021-07-02T13:47:20Z</time>
      </trkpt>
      <trkpt lat="46.84189" lon="5.85754">
        <ele>647.7</ele>
        <time>2021-07-02T13:47:25Z</time>
      </trkpt>
      <trkpt lat="46.84195" lon="5.85755">
        <ele>646.2</ele>
        <time>2021-07-02T13:47:30Z</time>
      </trkpt>
      <trkpt lat="46.84198" lon="5.8576">
        <ele>645.1</ele>
        <time>2021-07-02T13:47:36Z</time>
      </trkpt>
      <trkpt lat="46.84202" lon="5.85764">
        <ele>643.7</ele>
        <time>2021-07-02T13:47:43Z</time>
      </trkpt>
      <trkpt lat="46.84207" lon="5.85766">
        <ele>642.4</ele>
        <time>2021-07-02T13:47:49Z</time>
      </trkpt>
      <trkpt lat="46.84211" lon="5.85769">
        <ele>640.4</ele>
        <time>2021-07-02T13:47:57Z</time>
      </trkpt>
      <trkpt lat="46.84216" lon="5.8577">
        <ele>639.3</ele>
        <time>2021-07-02T13:48:02Z</time>
      </trkpt>
      <trkpt lat="46.84221" lon="5.85771">
        <ele>639.5</ele>
        <time>2021-07-02T13:48:06Z</time>
      </trkpt>
      <trkpt lat="46.84226" lon="5.8577">
        <ele>640.2</ele>
        <time>2021-07-02T13:48:12Z</time>
      </trkpt>
      <trkpt lat="46.84232" lon="5.8577">
        <ele>640.7</ele>
        <time>2021-07-02T13:48:19Z</time>
      </trkpt>
      <trkpt lat="46.84237" lon="5.85766">
        <ele>641.3</ele>
        <time>2021-07-02T13:48:24Z</time>
      </trkpt>
      <trkpt lat="46.8424" lon="5.85761">
        <ele>642.2</ele>
        <time>2021-07-02T13:48:30Z</time>
      </trkpt>
      <trkpt lat="46.84244" lon="5.85756">
        <ele>643</ele>
        <time>2021-07-02T13:48:35Z</time>
      </trkpt>
      <trkpt lat="46.84247" lon="5.85751">
        <ele>643.6</ele>
        <time>2021-07-02T13:48:40Z</time>
      </trkpt>
      <trkpt lat="46.8425" lon="5.85747">
        <ele>643.8</ele>
        <time>2021-07-02T13:48:45Z</time>
      </trkpt>
      <trkpt lat="46.84254" lon="5.85742">
        <ele>643.5</ele>
        <time>2021-07-02T13:48:53Z</time>
      </trkpt>
      <trkpt lat="46.84256" lon="5.85735">
        <ele>643.3</ele>
        <time>2021-07-02T13:49:00Z</time>
      </trkpt>
      <trkpt lat="46.8426" lon="5.85729">
        <ele>643.1</ele>
        <time>2021-07-02T13:49:05Z</time>
      </trkpt>
      <trkpt lat="46.84263" lon="5.85724">
        <ele>642.4</ele>
        <time>2021-07-02T13:49:12Z</time>
      </trkpt>
      <trkpt lat="46.84268" lon="5.85721">
        <ele>641.6</ele>
        <time>2021-07-02T13:49:19Z</time>
      </trkpt>
      <trkpt lat="46.84272" lon="5.85719">
        <ele>640.5</ele>
        <time>2021-07-02T13:49:24Z</time>
      </trkpt>
      <trkpt lat="46.84276" lon="5.85715">
        <ele>638.6</ele>
        <time>2021-07-02T13:49:30Z</time>
      </trkpt>
      <trkpt lat="46.84281" lon="5.85712">
        <ele>637.3</ele>
        <time>2021-07-02T13:49:36Z</time>
      </trkpt>
      <trkpt lat="46.84286" lon="5.8571">
        <ele>636.7</ele>
        <time>2021-07-02T13:49:44Z</time>
      </trkpt>
      <trkpt lat="46.84293" lon="5.85709">
        <ele>636.7</ele>
        <time>2021-07-02T13:49:48Z</time>
      </trkpt>
      <trkpt lat="46.84299" lon="5.85706">
        <ele>636.6</ele>
        <time>2021-07-02T13:49:52Z</time>
      </trkpt>
      <trkpt lat="46.84303" lon="5.85704">
        <ele>636.4</ele>
        <time>2021-07-02T13:49:57Z</time>
      </trkpt>
      <trkpt lat="46.84308" lon="5.85703">
        <ele>636.5</ele>
        <time>2021-07-02T13:50:02Z</time>
      </trkpt>
      <trkpt lat="46.84314" lon="5.85701">
        <ele>636.8</ele>
        <time>2021-07-02T13:50:07Z</time>
      </trkpt>
      <trkpt lat="46.84319" lon="5.85699">
        <ele>637.4</ele>
        <time>2021-07-02T13:50:11Z</time>
      </trkpt>
      <trkpt lat="46.84324" lon="5.85697">
        <ele>637.9</ele>
        <time>2021-07-02T13:50:16Z</time>
      </trkpt>
      <trkpt lat="46.84328" lon="5.85692">
        <ele>638.6</ele>
        <time>2021-07-02T13:50:20Z</time>
      </trkpt>
      <trkpt lat="46.84332" lon="5.85688">
        <ele>639.4</ele>
        <time>2021-07-02T13:50:24Z</time>
      </trkpt>
      <trkpt lat="46.84337" lon="5.85684">
        <ele>640.3</ele>
        <time>2021-07-02T13:50:29Z</time>
      </trkpt>
      <trkpt lat="46.84341" lon="5.8568">
        <ele>640.6</ele>
        <time>2021-07-02T13:50:33Z</time>
      </trkpt>
      <trkpt lat="46.84345" lon="5.85675">
        <ele>640.4</ele>
        <time>2021-07-02T13:50:38Z</time>
      </trkpt>
      <trkpt lat="46.84348" lon="5.8567">
        <ele>639.4</ele>
        <time>2021-07-02T13:50:45Z</time>
      </trkpt>
      <trkpt lat="46.84351" lon="5.85664">
        <ele>638.6</ele>
        <time>2021-07-02T13:50:51Z</time>
      </trkpt>
      <trkpt lat="46.84354" lon="5.85658">
        <ele>637.8</ele>
        <time>2021-07-02T13:50:58Z</time>
      </trkpt>
      <trkpt lat="46.84359" lon="5.85655">
        <ele>637.2</ele>
        <time>2021-07-02T13:51:02Z</time>
      </trkpt>
      <trkpt lat="46.84364" lon="5.85655">
        <ele>636.4</ele>
        <time>2021-07-02T13:51:07Z</time>
      </trkpt>
      <trkpt lat="46.84366" lon="5.85661">
        <ele>635.6</ele>
        <time>2021-07-02T13:51:11Z</time>
      </trkpt>
      <trkpt lat="46.8437" lon="5.85667">
        <ele>635.1</ele>
        <time>2021-07-02T13:51:18Z</time>
      </trkpt>
      <trkpt lat="46.84374" lon="5.8567">
        <ele>635</ele>
        <time>2021-07-02T13:51:23Z</time>
      </trkpt>
      <trkpt lat="46.84377" lon="5.85676">
        <ele>635.3</ele>
        <time>2021-07-02T13:51:41Z</time>
      </trkpt>
      <trkpt lat="46.84372" lon="5.85672">
        <ele>636.2</ele>
        <time>2021-07-02T13:51:54Z</time>
      </trkpt>
      <trkpt lat="46.84368" lon="5.85668">
        <ele>634.7</ele>
        <time>2021-07-02T13:52:00Z</time>
      </trkpt>
      <trkpt lat="46.84373" lon="5.85669">
        <ele>635.2</ele>
        <time>2021-07-02T13:52:07Z</time>
      </trkpt>
      <trkpt lat="46.84378" lon="5.85669">
        <ele>636.2</ele>
        <time>2021-07-02T13:52:12Z</time>
      </trkpt>
      <trkpt lat="46.84382" lon="5.85674">
        <ele>636.4</ele>
        <time>2021-07-02T13:52:25Z</time>
      </trkpt>
      <trkpt lat="46.84386" lon="5.85678">
        <ele>636.1</ele>
        <time>2021-07-02T13:52:31Z</time>
      </trkpt>
      <trkpt lat="46.8439" lon="5.85681">
        <ele>636.4</ele>
        <time>2021-07-02T13:52:38Z</time>
      </trkpt>
      <trkpt lat="46.84394" lon="5.85687">
        <ele>637</ele>
        <time>2021-07-02T13:52:44Z</time>
      </trkpt>
      <trkpt lat="46.84401" lon="5.8569">
        <ele>637.2</ele>
        <time>2021-07-02T13:52:48Z</time>
      </trkpt>
      <trkpt lat="46.84405" lon="5.85694">
        <ele>637.6</ele>
        <time>2021-07-02T13:52:52Z</time>
      </trkpt>
      <trkpt lat="46.84408" lon="5.85699">
        <ele>638.9</ele>
        <time>2021-07-02T13:52:58Z</time>
      </trkpt>
      <trkpt lat="46.8441" lon="5.85706">
        <ele>640.2</ele>
        <time>2021-07-02T13:53:02Z</time>
      </trkpt>
      <trkpt lat="46.84413" lon="5.85711">
        <ele>641.2</ele>
        <time>2021-07-02T13:53:07Z</time>
      </trkpt>
      <trkpt lat="46.84415" lon="5.85718">
        <ele>640.9</ele>
        <time>2021-07-02T13:53:12Z</time>
      </trkpt>
      <trkpt lat="46.84419" lon="5.85723">
        <ele>640</ele>
        <time>2021-07-02T13:53:17Z</time>
      </trkpt>
      <trkpt lat="46.84422" lon="5.85729">
        <ele>639</ele>
        <time>2021-07-02T13:53:22Z</time>
      </trkpt>
      <trkpt lat="46.84423" lon="5.85736">
        <ele>638.2</ele>
        <time>2021-07-02T13:53:28Z</time>
      </trkpt>
      <trkpt lat="46.84423" lon="5.85743">
        <ele>638</ele>
        <time>2021-07-02T13:53:34Z</time>
      </trkpt>
      <trkpt lat="46.84421" lon="5.85751">
        <ele>638.2</ele>
        <time>2021-07-02T13:53:39Z</time>
      </trkpt>
      <trkpt lat="46.84418" lon="5.85759">
        <ele>638.5</ele>
        <time>2021-07-02T13:53:43Z</time>
      </trkpt>
      <trkpt lat="46.84416" lon="5.85767">
        <ele>638.6</ele>
        <time>2021-07-02T13:53:47Z</time>
      </trkpt>
      <trkpt lat="46.84414" lon="5.85773">
        <ele>638.8</ele>
        <time>2021-07-02T13:53:52Z</time>
      </trkpt>
      <trkpt lat="46.84413" lon="5.8578">
        <ele>638.3</ele>
        <time>2021-07-02T13:53:59Z</time>
      </trkpt>
      <trkpt lat="46.84412" lon="5.85787">
        <ele>637</ele>
        <time>2021-07-02T13:54:09Z</time>
      </trkpt>
      <trkpt lat="46.84411" lon="5.85796">
        <ele>636.7</ele>
        <time>2021-07-02T13:54:15Z</time>
      </trkpt>
      <trkpt lat="46.8441" lon="5.85804">
        <ele>636.5</ele>
        <time>2021-07-02T13:54:19Z</time>
      </trkpt>
      <trkpt lat="46.84409" lon="5.85811">
        <ele>636.6</ele>
        <time>2021-07-02T13:54:23Z</time>
      </trkpt>
      <trkpt lat="46.84409" lon="5.85818">
        <ele>636.9</ele>
        <time>2021-07-02T13:54:28Z</time>
      </trkpt>
      <trkpt lat="46.84408" lon="5.85826">
        <ele>637.3</ele>
        <time>2021-07-02T13:54:33Z</time>
      </trkpt>
      <trkpt lat="46.84405" lon="5.8583">
        <ele>637.4</ele>
        <time>2021-07-02T13:54:41Z</time>
      </trkpt>
      <trkpt lat="46.84406" lon="5.85837">
        <ele>637.1</ele>
        <time>2021-07-02T13:54:46Z</time>
      </trkpt>
      <trkpt lat="46.84407" lon="5.85844">
        <ele>636.8</ele>
        <time>2021-07-02T13:54:51Z</time>
      </trkpt>
      <trkpt lat="46.84405" lon="5.85852">
        <ele>636.3</ele>
        <time>2021-07-02T13:54:55Z</time>
      </trkpt>
      <trkpt lat="46.84403" lon="5.85859">
        <ele>635.9</ele>
        <time>2021-07-02T13:55:00Z</time>
      </trkpt>
      <trkpt lat="46.84401" lon="5.85865">
        <ele>636</ele>
        <time>2021-07-02T13:55:06Z</time>
      </trkpt>
      <trkpt lat="46.84401" lon="5.85873">
        <ele>636.1</ele>
        <time>2021-07-02T13:55:12Z</time>
      </trkpt>
      <trkpt lat="46.84405" lon="5.85877">
        <ele>636.2</ele>
        <time>2021-07-02T13:55:16Z</time>
      </trkpt>
      <trkpt lat="46.84409" lon="5.85881">
        <ele>636.3</ele>
        <time>2021-07-02T13:55:21Z</time>
      </trkpt>
      <trkpt lat="46.8441" lon="5.85887">
        <ele>635.4</ele>
        <time>2021-07-02T13:55:27Z</time>
      </trkpt>
      <trkpt lat="46.84412" lon="5.85894">
        <ele>635.2</ele>
        <time>2021-07-02T13:55:31Z</time>
      </trkpt>
      <trkpt lat="46.84414" lon="5.859">
        <ele>635.8</ele>
        <time>2021-07-02T13:55:42Z</time>
      </trkpt>
      <trkpt lat="46.84419" lon="5.85904">
        <ele>637.5</ele>
        <time>2021-07-02T13:56:19Z</time>
      </trkpt>
      <trkpt lat="46.84423" lon="5.85908">
        <ele>638.1</ele>
        <time>2021-07-02T13:56:24Z</time>
      </trkpt>
      <trkpt lat="46.84427" lon="5.85913">
        <ele>638.5</ele>
        <time>2021-07-02T13:56:29Z</time>
      </trkpt>
      <trkpt lat="46.84433" lon="5.85915">
        <ele>638.7</ele>
        <time>2021-07-02T13:56:33Z</time>
      </trkpt>
      <trkpt lat="46.84437" lon="5.85919">
        <ele>639.5</ele>
        <time>2021-07-02T13:56:38Z</time>
      </trkpt>
      <trkpt lat="46.84438" lon="5.85926">
        <ele>640.6</ele>
        <time>2021-07-02T13:56:46Z</time>
      </trkpt>
      <trkpt lat="46.84441" lon="5.85932">
        <ele>640.9</ele>
        <time>2021-07-02T13:56:54Z</time>
      </trkpt>
      <trkpt lat="46.84444" lon="5.85938">
        <ele>640.1</ele>
        <time>2021-07-02T13:57:01Z</time>
      </trkpt>
      <trkpt lat="46.84449" lon="5.85939">
        <ele>639.7</ele>
        <time>2021-07-02T13:57:09Z</time>
      </trkpt>
      <trkpt lat="46.84453" lon="5.85939">
        <ele>639.8</ele>
        <time>2021-07-02T13:57:13Z</time>
      </trkpt>
      <trkpt lat="46.84458" lon="5.85938">
        <ele>640</ele>
        <time>2021-07-02T13:57:18Z</time>
      </trkpt>
      <trkpt lat="46.84464" lon="5.85938">
        <ele>640.8</ele>
        <time>2021-07-02T13:57:26Z</time>
      </trkpt>
      <trkpt lat="46.84469" lon="5.8594">
        <ele>641</ele>
        <time>2021-07-02T13:57:31Z</time>
      </trkpt>
      <trkpt lat="46.84474" lon="5.85942">
        <ele>640.9</ele>
        <time>2021-07-02T13:57:37Z</time>
      </trkpt>
      <trkpt lat="46.84477" lon="5.85947">
        <ele>640.7</ele>
        <time>2021-07-02T13:57:43Z</time>
      </trkpt>
      <trkpt lat="46.84481" lon="5.85951">
        <ele>640.8</ele>
        <time>2021-07-02T13:57:47Z</time>
      </trkpt>
      <trkpt lat="46.84485" lon="5.85957">
        <ele>641.4</ele>
        <time>2021-07-02T13:57:51Z</time>
      </trkpt>
      <trkpt lat="46.84488" lon="5.85963">
        <ele>641.9</ele>
        <time>2021-07-02T13:57:55Z</time>
      </trkpt>
      <trkpt lat="46.84489" lon="5.8597">
        <ele>642.4</ele>
        <time>2021-07-02T13:57:59Z</time>
      </trkpt>
      <trkpt lat="46.8449" lon="5.85977">
        <ele>643.2</ele>
        <time>2021-07-02T13:58:04Z</time>
      </trkpt>
      <trkpt lat="46.8449" lon="5.85984">
        <ele>644.4</ele>
        <time>2021-07-02T13:58:10Z</time>
      </trkpt>
      <trkpt lat="46.84494" lon="5.8599">
        <ele>644.7</ele>
        <time>2021-07-02T13:58:19Z</time>
      </trkpt>
      <trkpt lat="46.84496" lon="5.85996">
        <ele>644.8</ele>
        <time>2021-07-02T13:58:25Z</time>
      </trkpt>
      <trkpt lat="46.84495" lon="5.86003">
        <ele>645.1</ele>
        <time>2021-07-02T13:58:31Z</time>
      </trkpt>
      <trkpt lat="46.84493" lon="5.86009">
        <ele>644.8</ele>
        <time>2021-07-02T13:58:36Z</time>
      </trkpt>
      <trkpt lat="46.84491" lon="5.86015">
        <ele>644.7</ele>
        <time>2021-07-02T13:58:41Z</time>
      </trkpt>
      <trkpt lat="46.84486" lon="5.86019">
        <ele>644.7</ele>
        <time>2021-07-02T13:58:46Z</time>
      </trkpt>
      <trkpt lat="46.84484" lon="5.86026">
        <ele>644.3</ele>
        <time>2021-07-02T13:58:51Z</time>
      </trkpt>
      <trkpt lat="46.8448" lon="5.8603">
        <ele>643.9</ele>
        <time>2021-07-02T13:58:56Z</time>
      </trkpt>
      <trkpt lat="46.84478" lon="5.86036">
        <ele>643.6</ele>
        <time>2021-07-02T13:59:04Z</time>
      </trkpt>
      <trkpt lat="46.84479" lon="5.86043">
        <ele>643.2</ele>
        <time>2021-07-02T13:59:09Z</time>
      </trkpt>
      <trkpt lat="46.8448" lon="5.8605">
        <ele>642.5</ele>
        <time>2021-07-02T13:59:16Z</time>
      </trkpt>
      <trkpt lat="46.84479" lon="5.86057">
        <ele>641</ele>
        <time>2021-07-02T13:59:24Z</time>
      </trkpt>
      <trkpt lat="46.84475" lon="5.86061">
        <ele>640.1</ele>
        <time>2021-07-02T13:59:28Z</time>
      </trkpt>
      <trkpt lat="46.84472" lon="5.86068">
        <ele>639.4</ele>
        <time>2021-07-02T13:59:33Z</time>
      </trkpt>
      <trkpt lat="46.84469" lon="5.86075">
        <ele>638.6</ele>
        <time>2021-07-02T13:59:38Z</time>
      </trkpt>
      <trkpt lat="46.84468" lon="5.86081">
        <ele>638</ele>
        <time>2021-07-02T13:59:43Z</time>
      </trkpt>
      <trkpt lat="46.8447" lon="5.86089">
        <ele>637.9</ele>
        <time>2021-07-02T13:59:48Z</time>
      </trkpt>
      <trkpt lat="46.84471" lon="5.86096">
        <ele>638.7</ele>
        <time>2021-07-02T13:59:52Z</time>
      </trkpt>
      <trkpt lat="46.84471" lon="5.86103">
        <ele>640.4</ele>
        <time>2021-07-02T13:59:58Z</time>
      </trkpt>
      <trkpt lat="46.84471" lon="5.86111">
        <ele>641.9</ele>
        <time>2021-07-02T14:00:04Z</time>
      </trkpt>
      <trkpt lat="46.84473" lon="5.86117">
        <ele>642.8</ele>
        <time>2021-07-02T14:00:08Z</time>
      </trkpt>
      <trkpt lat="46.84473" lon="5.86125">
        <ele>643.8</ele>
        <time>2021-07-02T14:00:14Z</time>
      </trkpt>
      <trkpt lat="46.84473" lon="5.86132">
        <ele>644.2</ele>
        <time>2021-07-02T14:00:20Z</time>
      </trkpt>
      <trkpt lat="46.84475" lon="5.86139">
        <ele>645.2</ele>
        <time>2021-07-02T14:00:27Z</time>
      </trkpt>
      <trkpt lat="46.84477" lon="5.86146">
        <ele>645.9</ele>
        <time>2021-07-02T14:00:33Z</time>
      </trkpt>
      <trkpt lat="46.84475" lon="5.86152">
        <ele>646.3</ele>
        <time>2021-07-02T14:00:38Z</time>
      </trkpt>
      <trkpt lat="46.84474" lon="5.86159">
        <ele>646.2</ele>
        <time>2021-07-02T14:00:44Z</time>
      </trkpt>
      <trkpt lat="46.84474" lon="5.86166">
        <ele>645.5</ele>
        <time>2021-07-02T14:00:50Z</time>
      </trkpt>
      <trkpt lat="46.84473" lon="5.86173">
        <ele>645.1</ele>
        <time>2021-07-02T14:00:54Z</time>
      </trkpt>
      <trkpt lat="46.84473" lon="5.8618">
        <ele>644.6</ele>
        <time>2021-07-02T14:00:58Z</time>
      </trkpt>
      <trkpt lat="46.84474" lon="5.86188">
        <ele>644.3</ele>
        <time>2021-07-02T14:01:02Z</time>
      </trkpt>
      <trkpt lat="46.84474" lon="5.86195">
        <ele>644.2</ele>
        <time>2021-07-02T14:01:09Z</time>
      </trkpt>
      <trkpt lat="46.84475" lon="5.86203">
        <ele>644.4</ele>
        <time>2021-07-02T14:01:14Z</time>
      </trkpt>
      <trkpt lat="46.84475" lon="5.8621">
        <ele>644.6</ele>
        <time>2021-07-02T14:01:18Z</time>
      </trkpt>
      <trkpt lat="46.84477" lon="5.86217">
        <ele>645.6</ele>
        <time>2021-07-02T14:01:28Z</time>
      </trkpt>
      <trkpt lat="46.84474" lon="5.86223">
        <ele>646.2</ele>
        <time>2021-07-02T14:01:34Z</time>
      </trkpt>
      <trkpt lat="46.84472" lon="5.8623">
        <ele>646.6</ele>
        <time>2021-07-02T14:01:39Z</time>
      </trkpt>
      <trkpt lat="46.8447" lon="5.86237">
        <ele>647</ele>
        <time>2021-07-02T14:01:43Z</time>
      </trkpt>
      <trkpt lat="46.84471" lon="5.86243">
        <ele>647.6</ele>
        <time>2021-07-02T14:01:47Z</time>
      </trkpt>
      <trkpt lat="46.84473" lon="5.86251">
        <ele>648.3</ele>
        <time>2021-07-02T14:01:51Z</time>
      </trkpt>
      <trkpt lat="46.84475" lon="5.86259">
        <ele>649.2</ele>
        <time>2021-07-02T14:01:56Z</time>
      </trkpt>
      <trkpt lat="46.84476" lon="5.86267">
        <ele>649.6</ele>
        <time>2021-07-02T14:02:00Z</time>
      </trkpt>
      <trkpt lat="46.84474" lon="5.86273">
        <ele>650.5</ele>
        <time>2021-07-02T14:02:08Z</time>
      </trkpt>
      <trkpt lat="46.84472" lon="5.86279">
        <ele>651.2</ele>
        <time>2021-07-02T14:02:12Z</time>
      </trkpt>
      <trkpt lat="46.84472" lon="5.86286">
        <ele>652.5</ele>
        <time>2021-07-02T14:02:18Z</time>
      </trkpt>
      <trkpt lat="46.84471" lon="5.86293">
        <ele>653.6</ele>
        <time>2021-07-02T14:02:25Z</time>
      </trkpt>
      <trkpt lat="46.84474" lon="5.86299">
        <ele>654.4</ele>
        <time>2021-07-02T14:02:36Z</time>
      </trkpt>
      <trkpt lat="46.84475" lon="5.86307">
        <ele>652.8</ele>
        <time>2021-07-02T14:02:48Z</time>
      </trkpt>
      <trkpt lat="46.84474" lon="5.86314">
        <ele>652.3</ele>
        <time>2021-07-02T14:02:52Z</time>
      </trkpt>
      <trkpt lat="46.84475" lon="5.86321">
        <ele>652.4</ele>
        <time>2021-07-02T14:02:56Z</time>
      </trkpt>
      <trkpt lat="46.84475" lon="5.86328">
        <ele>652.1</ele>
        <time>2021-07-02T14:03:02Z</time>
      </trkpt>
      <trkpt lat="46.84473" lon="5.86335">
        <ele>652.2</ele>
        <time>2021-07-02T14:03:09Z</time>
      </trkpt>
      <trkpt lat="46.84471" lon="5.86341">
        <ele>653.8</ele>
        <time>2021-07-02T14:03:21Z</time>
      </trkpt>
      <trkpt lat="46.84473" lon="5.86347">
        <ele>656.8</ele>
        <time>2021-07-02T14:03:29Z</time>
      </trkpt>
      <trkpt lat="46.84469" lon="5.86345">
        <ele>664</ele>
        <time>2021-07-02T14:03:51Z</time>
      </trkpt>
      <trkpt lat="46.84474" lon="5.86344">
        <ele>665.5</ele>
        <time>2021-07-02T14:04:17Z</time>
      </trkpt>
      <trkpt lat="46.84475" lon="5.8635">
        <ele>666</ele>
        <time>2021-07-02T14:04:28Z</time>
      </trkpt>
      <trkpt lat="46.84473" lon="5.86356">
        <ele>666</ele>
        <time>2021-07-02T14:04:33Z</time>
      </trkpt>
      <trkpt lat="46.84471" lon="5.86362">
        <ele>665.8</ele>
        <time>2021-07-02T14:04:38Z</time>
      </trkpt>
      <trkpt lat="46.84472" lon="5.8637">
        <ele>666</ele>
        <time>2021-07-02T14:04:44Z</time>
      </trkpt>
      <trkpt lat="46.84475" lon="5.86376">
        <ele>666.3</ele>
        <time>2021-07-02T14:04:50Z</time>
      </trkpt>
      <trkpt lat="46.84476" lon="5.86383">
        <ele>667</ele>
        <time>2021-07-02T14:04:55Z</time>
      </trkpt>
      <trkpt lat="46.84478" lon="5.8639">
        <ele>668.7</ele>
        <time>2021-07-02T14:05:01Z</time>
      </trkpt>
      <trkpt lat="46.84482" lon="5.86395">
        <ele>669.9</ele>
        <time>2021-07-02T14:05:07Z</time>
      </trkpt>
      <trkpt lat="46.84484" lon="5.86403">
        <ele>670.3</ele>
        <time>2021-07-02T14:05:12Z</time>
      </trkpt>
      <trkpt lat="46.84482" lon="5.8641">
        <ele>670.8</ele>
        <time>2021-07-02T14:05:18Z</time>
      </trkpt>
      <trkpt lat="46.84481" lon="5.86416">
        <ele>671.1</ele>
        <time>2021-07-02T14:05:22Z</time>
      </trkpt>
      <trkpt lat="46.84482" lon="5.86423">
        <ele>671.6</ele>
        <time>2021-07-02T14:05:31Z</time>
      </trkpt>
      <trkpt lat="46.84479" lon="5.86428">
        <ele>672.2</ele>
        <time>2021-07-02T14:05:37Z</time>
      </trkpt>
      <trkpt lat="46.84481" lon="5.86435">
        <ele>673</ele>
        <time>2021-07-02T14:05:47Z</time>
      </trkpt>
      <trkpt lat="46.84481" lon="5.86443">
        <ele>672.8</ele>
        <time>2021-07-02T14:05:51Z</time>
      </trkpt>
      <trkpt lat="46.8448" lon="5.86451">
        <ele>672.5</ele>
        <time>2021-07-02T14:05:55Z</time>
      </trkpt>
      <trkpt lat="46.84478" lon="5.86459">
        <ele>672</ele>
        <time>2021-07-02T14:05:59Z</time>
      </trkpt>
      <trkpt lat="46.84477" lon="5.86469">
        <ele>671.7</ele>
        <time>2021-07-02T14:06:03Z</time>
      </trkpt>
      <trkpt lat="46.84479" lon="5.86476">
        <ele>671.6</ele>
        <time>2021-07-02T14:06:08Z</time>
      </trkpt>
      <trkpt lat="46.84476" lon="5.86481">
        <ele>672.5</ele>
        <time>2021-07-02T14:06:17Z</time>
      </trkpt>
      <trkpt lat="46.84479" lon="5.86486">
        <ele>671.3</ele>
        <time>2021-07-02T14:06:26Z</time>
      </trkpt>
      <trkpt lat="46.84481" lon="5.86493">
        <ele>671.1</ele>
        <time>2021-07-02T14:06:31Z</time>
      </trkpt>
      <trkpt lat="46.84482" lon="5.86499">
        <ele>671</ele>
        <time>2021-07-02T14:06:36Z</time>
      </trkpt>
      <trkpt lat="46.84478" lon="5.86504">
        <ele>671.5</ele>
        <time>2021-07-02T14:06:44Z</time>
      </trkpt>
      <trkpt lat="46.84473" lon="5.86507">
        <ele>671</ele>
        <time>2021-07-02T14:06:50Z</time>
      </trkpt>
      <trkpt lat="46.84471" lon="5.86514">
        <ele>669.8</ele>
        <time>2021-07-02T14:06:56Z</time>
      </trkpt>
      <trkpt lat="46.84468" lon="5.86518">
        <ele>670</ele>
        <time>2021-07-02T14:07:00Z</time>
      </trkpt>
      <trkpt lat="46.84463" lon="5.86517">
        <ele>670.3</ele>
        <time>2021-07-02T14:07:13Z</time>
      </trkpt>
      <trkpt lat="46.84458" lon="5.86516">
        <ele>669.9</ele>
        <time>2021-07-02T14:07:19Z</time>
      </trkpt>
      <trkpt lat="46.84454" lon="5.86513">
        <ele>670.1</ele>
        <time>2021-07-02T14:07:25Z</time>
      </trkpt>
      <trkpt lat="46.84449" lon="5.86512">
        <ele>670</ele>
        <time>2021-07-02T14:07:30Z</time>
      </trkpt>
      <trkpt lat="46.84445" lon="5.8651">
        <ele>669.6</ele>
        <time>2021-07-02T14:07:36Z</time>
      </trkpt>
      <trkpt lat="46.8444" lon="5.86509">
        <ele>669.8</ele>
        <time>2021-07-02T14:07:40Z</time>
      </trkpt>
      <trkpt lat="46.84435" lon="5.8651">
        <ele>670</ele>
        <time>2021-07-02T14:07:44Z</time>
      </trkpt>
      <trkpt lat="46.8443" lon="5.8651">
        <ele>670.4</ele>
        <time>2021-07-02T14:07:48Z</time>
      </trkpt>
      <trkpt lat="46.84425" lon="5.86512">
        <ele>670.6</ele>
        <time>2021-07-02T14:07:53Z</time>
      </trkpt>
      <trkpt lat="46.8442" lon="5.86512">
        <ele>670.3</ele>
        <time>2021-07-02T14:08:00Z</time>
      </trkpt>
      <trkpt lat="46.84416" lon="5.86511">
        <ele>669.6</ele>
        <time>2021-07-02T14:08:08Z</time>
      </trkpt>
      <trkpt lat="46.84411" lon="5.86514">
        <ele>668.8</ele>
        <time>2021-07-02T14:08:12Z</time>
      </trkpt>
      <trkpt lat="46.84407" lon="5.86517">
        <ele>668.1</ele>
        <time>2021-07-02T14:08:16Z</time>
      </trkpt>
      <trkpt lat="46.84404" lon="5.86523">
        <ele>666.7</ele>
        <time>2021-07-02T14:08:24Z</time>
      </trkpt>
      <trkpt lat="46.844" lon="5.86529">
        <ele>665.9</ele>
        <time>2021-07-02T14:08:29Z</time>
      </trkpt>
      <trkpt lat="46.84396" lon="5.86531">
        <ele>666.1</ele>
        <time>2021-07-02T14:08:33Z</time>
      </trkpt>
      <trkpt lat="46.84391" lon="5.86531">
        <ele>667.8</ele>
        <time>2021-07-02T14:08:41Z</time>
      </trkpt>
      <trkpt lat="46.8439" lon="5.86538">
        <ele>671.3</ele>
        <time>2021-07-02T14:09:05Z</time>
      </trkpt>
      <trkpt lat="46.84394" lon="5.86541">
        <ele>671.5</ele>
        <time>2021-07-02T14:09:37Z</time>
      </trkpt>
      <trkpt lat="46.8439" lon="5.86542">
        <ele>672</ele>
        <time>2021-07-02T14:09:44Z</time>
      </trkpt>
      <trkpt lat="46.84395" lon="5.86541">
        <ele>677.1</ele>
        <time>2021-07-02T14:10:05Z</time>
      </trkpt>
      <trkpt lat="46.84399" lon="5.86538">
        <ele>678.3</ele>
        <time>2021-07-02T14:10:17Z</time>
      </trkpt>
      <trkpt lat="46.84404" lon="5.86536">
        <ele>676.7</ele>
        <time>2021-07-02T14:10:30Z</time>
      </trkpt>
      <trkpt lat="46.84409" lon="5.86537">
        <ele>677.6</ele>
        <time>2021-07-02T14:10:37Z</time>
      </trkpt>
      <trkpt lat="46.84411" lon="5.86542">
        <ele>678.2</ele>
        <time>2021-07-02T14:10:41Z</time>
      </trkpt>
      <trkpt lat="46.84413" lon="5.8655">
        <ele>678.9</ele>
        <time>2021-07-02T14:10:46Z</time>
      </trkpt>
      <trkpt lat="46.84416" lon="5.86555">
        <ele>679.7</ele>
        <time>2021-07-02T14:10:50Z</time>
      </trkpt>
      <trkpt lat="46.84421" lon="5.86559">
        <ele>680.5</ele>
        <time>2021-07-02T14:10:54Z</time>
      </trkpt>
      <trkpt lat="46.84428" lon="5.86564">
        <ele>681.8</ele>
        <time>2021-07-02T14:10:58Z</time>
      </trkpt>
      <trkpt lat="46.84429" lon="5.8657">
        <ele>683.7</ele>
        <time>2021-07-02T14:11:03Z</time>
      </trkpt>
      <trkpt lat="46.8443" lon="5.86577">
        <ele>685.3</ele>
        <time>2021-07-02T14:11:10Z</time>
      </trkpt>
      <trkpt lat="46.84427" lon="5.86583">
        <ele>685.2</ele>
        <time>2021-07-02T14:11:15Z</time>
      </trkpt>
      <trkpt lat="46.84423" lon="5.86587">
        <ele>684.9</ele>
        <time>2021-07-02T14:11:19Z</time>
      </trkpt>
      <trkpt lat="46.84418" lon="5.86589">
        <ele>684.9</ele>
        <time>2021-07-02T14:11:24Z</time>
      </trkpt>
      <trkpt lat="46.84413" lon="5.86591">
        <ele>685.4</ele>
        <time>2021-07-02T14:11:28Z</time>
      </trkpt>
      <trkpt lat="46.84409" lon="5.86596">
        <ele>686.4</ele>
        <time>2021-07-02T14:11:33Z</time>
      </trkpt>
      <trkpt lat="46.8441" lon="5.86603">
        <ele>688.3</ele>
        <time>2021-07-02T14:11:40Z</time>
      </trkpt>
      <trkpt lat="46.84408" lon="5.86611">
        <ele>688.7</ele>
        <time>2021-07-02T14:11:45Z</time>
      </trkpt>
      <trkpt lat="46.84411" lon="5.86616">
        <ele>689.6</ele>
        <time>2021-07-02T14:11:58Z</time>
      </trkpt>
      <trkpt lat="46.84415" lon="5.86614">
        <ele>689.4</ele>
        <time>2021-07-02T14:12:26Z</time>
      </trkpt>
      <trkpt lat="46.8442" lon="5.86614">
        <ele>688.7</ele>
        <time>2021-07-02T14:12:42Z</time>
      </trkpt>
      <trkpt lat="46.84416" lon="5.86617">
        <ele>687.9</ele>
        <time>2021-07-02T14:13:21Z</time>
      </trkpt>
      <trkpt lat="46.84411" lon="5.86619">
        <ele>687</ele>
        <time>2021-07-02T14:13:25Z</time>
      </trkpt>
      <trkpt lat="46.84404" lon="5.86622">
        <ele>683.3</ele>
        <time>2021-07-02T14:14:03Z</time>
      </trkpt>
      <trkpt lat="46.844" lon="5.86621">
        <ele>683.3</ele>
        <time>2021-07-02T14:14:08Z</time>
      </trkpt>
      <trkpt lat="46.84407" lon="5.86615">
        <ele>682.5</ele>
        <time>2021-07-02T14:14:27Z</time>
      </trkpt>
      <trkpt lat="46.84411" lon="5.86614">
        <ele>682.9</ele>
        <time>2021-07-02T14:14:31Z</time>
      </trkpt>
      <trkpt lat="46.84414" lon="5.8662">
        <ele>690.9</ele>
        <time>2021-07-02T14:15:07Z</time>
      </trkpt>
      <trkpt lat="46.84412" lon="5.86626">
        <ele>683.9</ele>
        <time>2021-07-02T14:15:33Z</time>
      </trkpt>
      <trkpt lat="46.84408" lon="5.86628">
        <ele>682.8</ele>
        <time>2021-07-02T14:15:54Z</time>
      </trkpt>
      <trkpt lat="46.84403" lon="5.86632">
        <ele>687.9</ele>
        <time>2021-07-02T14:16:14Z</time>
      </trkpt>
      <trkpt lat="46.84399" lon="5.86638">
        <ele>687.7</ele>
        <time>2021-07-02T14:16:18Z</time>
      </trkpt>
      <trkpt lat="46.84395" lon="5.86643">
        <ele>687.4</ele>
        <time>2021-07-02T14:16:22Z</time>
      </trkpt>
      <trkpt lat="46.84393" lon="5.86651">
        <ele>686.8</ele>
        <time>2021-07-02T14:16:26Z</time>
      </trkpt>
      <trkpt lat="46.84391" lon="5.86658">
        <ele>684.7</ele>
        <time>2021-07-02T14:16:32Z</time>
      </trkpt>
      <trkpt lat="46.84386" lon="5.86662">
        <ele>683.1</ele>
        <time>2021-07-02T14:16:37Z</time>
      </trkpt>
      <trkpt lat="46.84383" lon="5.86666">
        <ele>682.2</ele>
        <time>2021-07-02T14:16:41Z</time>
      </trkpt>
      <trkpt lat="46.8438" lon="5.86672">
        <ele>680.9</ele>
        <time>2021-07-02T14:16:46Z</time>
      </trkpt>
      <trkpt lat="46.84376" lon="5.86677">
        <ele>679.5</ele>
        <time>2021-07-02T14:16:53Z</time>
      </trkpt>
      <trkpt lat="46.84371" lon="5.8668">
        <ele>679.8</ele>
        <time>2021-07-02T14:16:58Z</time>
      </trkpt>
      <trkpt lat="46.84367" lon="5.86685">
        <ele>681</ele>
        <time>2021-07-02T14:17:03Z</time>
      </trkpt>
      <trkpt lat="46.84363" lon="5.86687">
        <ele>682.1</ele>
        <time>2021-07-02T14:17:07Z</time>
      </trkpt>
      <trkpt lat="46.84358" lon="5.86691">
        <ele>683</ele>
        <time>2021-07-02T14:17:13Z</time>
      </trkpt>
      <trkpt lat="46.84354" lon="5.86695">
        <ele>683.9</ele>
        <time>2021-07-02T14:17:21Z</time>
      </trkpt>
      <trkpt lat="46.8435" lon="5.867">
        <ele>684.6</ele>
        <time>2021-07-02T14:17:26Z</time>
      </trkpt>
      <trkpt lat="46.84347" lon="5.86705">
        <ele>687.8</ele>
        <time>2021-07-02T14:17:45Z</time>
      </trkpt>
      <trkpt lat="46.84349" lon="5.86711">
        <ele>691.9</ele>
        <time>2021-07-02T14:17:55Z</time>
      </trkpt>
      <trkpt lat="46.84352" lon="5.86718">
        <ele>693.1</ele>
        <time>2021-07-02T14:18:01Z</time>
      </trkpt>
      <trkpt lat="46.84354" lon="5.86724">
        <ele>692.9</ele>
        <time>2021-07-02T14:18:06Z</time>
      </trkpt>
      <trkpt lat="46.84358" lon="5.8673">
        <ele>692.8</ele>
        <time>2021-07-02T14:18:10Z</time>
      </trkpt>
      <trkpt lat="46.8436" lon="5.86737">
        <ele>692.3</ele>
        <time>2021-07-02T14:18:15Z</time>
      </trkpt>
      <trkpt lat="46.8436" lon="5.86744">
        <ele>691.3</ele>
        <time>2021-07-02T14:18:23Z</time>
      </trkpt>
      <trkpt lat="46.84359" lon="5.86752">
        <ele>690.2</ele>
        <time>2021-07-02T14:18:28Z</time>
      </trkpt>
      <trkpt lat="46.84359" lon="5.86759">
        <ele>688.7</ele>
        <time>2021-07-02T14:18:34Z</time>
      </trkpt>
      <trkpt lat="46.84356" lon="5.86765">
        <ele>688</ele>
        <time>2021-07-02T14:18:40Z</time>
      </trkpt>
      <trkpt lat="46.84353" lon="5.8677">
        <ele>688.3</ele>
        <time>2021-07-02T14:18:44Z</time>
      </trkpt>
      <trkpt lat="46.84349" lon="5.86775">
        <ele>688.8</ele>
        <time>2021-07-02T14:18:49Z</time>
      </trkpt>
      <trkpt lat="46.84345" lon="5.86778">
        <ele>688.9</ele>
        <time>2021-07-02T14:18:55Z</time>
      </trkpt>
      <trkpt lat="46.84342" lon="5.86784">
        <ele>688.8</ele>
        <time>2021-07-02T14:19:01Z</time>
      </trkpt>
      <trkpt lat="46.84338" lon="5.86789">
        <ele>688.4</ele>
        <time>2021-07-02T14:19:06Z</time>
      </trkpt>
      <trkpt lat="46.84335" lon="5.86795">
        <ele>687.9</ele>
        <time>2021-07-02T14:19:11Z</time>
      </trkpt>
      <trkpt lat="46.84333" lon="5.86801">
        <ele>686.4</ele>
        <time>2021-07-02T14:19:20Z</time>
      </trkpt>
      <trkpt lat="46.84328" lon="5.86802">
        <ele>683.2</ele>
        <time>2021-07-02T14:19:32Z</time>
      </trkpt>
      <trkpt lat="46.84322" lon="5.86803">
        <ele>682.9</ele>
        <time>2021-07-02T14:19:36Z</time>
      </trkpt>
      <trkpt lat="46.84317" lon="5.86803">
        <ele>683.1</ele>
        <time>2021-07-02T14:19:40Z</time>
      </trkpt>
      <trkpt lat="46.84312" lon="5.86806">
        <ele>683.6</ele>
        <time>2021-07-02T14:19:44Z</time>
      </trkpt>
      <trkpt lat="46.84308" lon="5.8681">
        <ele>684.5</ele>
        <time>2021-07-02T14:19:49Z</time>
      </trkpt>
      <trkpt lat="46.84305" lon="5.86815">
        <ele>685.7</ele>
        <time>2021-07-02T14:19:53Z</time>
      </trkpt>
      <trkpt lat="46.84302" lon="5.86821">
        <ele>687.4</ele>
        <time>2021-07-02T14:19:59Z</time>
      </trkpt>
      <trkpt lat="46.84298" lon="5.86823">
        <ele>688.1</ele>
        <time>2021-07-02T14:20:03Z</time>
      </trkpt>
      <trkpt lat="46.84295" lon="5.86817">
        <ele>689.5</ele>
        <time>2021-07-02T14:20:12Z</time>
      </trkpt>
      <trkpt lat="46.84294" lon="5.86809">
        <ele>689.6</ele>
        <time>2021-07-02T14:20:16Z</time>
      </trkpt>
      <trkpt lat="46.84297" lon="5.86804">
        <ele>689.9</ele>
        <time>2021-07-02T14:20:23Z</time>
      </trkpt>
      <trkpt lat="46.84296" lon="5.86797">
        <ele>688.2</ele>
        <time>2021-07-02T14:20:37Z</time>
      </trkpt>
      <trkpt lat="46.84294" lon="5.86791">
        <ele>689.6</ele>
        <time>2021-07-02T14:20:59Z</time>
      </trkpt>
      <trkpt lat="46.84293" lon="5.86799">
        <ele>691.3</ele>
        <time>2021-07-02T14:21:12Z</time>
      </trkpt>
      <trkpt lat="46.84291" lon="5.86805">
        <ele>691.7</ele>
        <time>2021-07-02T14:21:18Z</time>
      </trkpt>
      <trkpt lat="46.8429" lon="5.86812">
        <ele>692.3</ele>
        <time>2021-07-02T14:21:23Z</time>
      </trkpt>
      <trkpt lat="46.84292" lon="5.86819">
        <ele>693.2</ele>
        <time>2021-07-02T14:21:29Z</time>
      </trkpt>
      <trkpt lat="46.84291" lon="5.86826">
        <ele>693</ele>
        <time>2021-07-02T14:21:36Z</time>
      </trkpt>
      <trkpt lat="46.84294" lon="5.86835">
        <ele>692.1</ele>
        <time>2021-07-02T14:21:40Z</time>
      </trkpt>
      <trkpt lat="46.84296" lon="5.86842">
        <ele>691</ele>
        <time>2021-07-02T14:21:44Z</time>
      </trkpt>
      <trkpt lat="46.84295" lon="5.86849">
        <ele>689.9</ele>
        <time>2021-07-02T14:21:48Z</time>
      </trkpt>
      <trkpt lat="46.84293" lon="5.86856">
        <ele>689.4</ele>
        <time>2021-07-02T14:21:52Z</time>
      </trkpt>
      <trkpt lat="46.84291" lon="5.86863">
        <ele>689</ele>
        <time>2021-07-02T14:21:56Z</time>
      </trkpt>
      <trkpt lat="46.84291" lon="5.86869">
        <ele>687.8</ele>
        <time>2021-07-02T14:22:06Z</time>
      </trkpt>
      <trkpt lat="46.84292" lon="5.86876">
        <ele>686.8</ele>
        <time>2021-07-02T14:22:11Z</time>
      </trkpt>
      <trkpt lat="46.8429" lon="5.86886">
        <ele>686.2</ele>
        <time>2021-07-02T14:22:15Z</time>
      </trkpt>
      <trkpt lat="46.84289" lon="5.86895">
        <ele>686.1</ele>
        <time>2021-07-02T14:22:19Z</time>
      </trkpt>
      <trkpt lat="46.84288" lon="5.86902">
        <ele>686.5</ele>
        <time>2021-07-02T14:22:23Z</time>
      </trkpt>
      <trkpt lat="46.84285" lon="5.86911">
        <ele>688.2</ele>
        <time>2021-07-02T14:22:27Z</time>
      </trkpt>
      <trkpt lat="46.84282" lon="5.86916">
        <ele>690.8</ele>
        <time>2021-07-02T14:22:34Z</time>
      </trkpt>
      <trkpt lat="46.84283" lon="5.86925">
        <ele>690</ele>
        <time>2021-07-02T14:22:50Z</time>
      </trkpt>
      <trkpt lat="46.84282" lon="5.86934">
        <ele>690</ele>
        <time>2021-07-02T14:22:54Z</time>
      </trkpt>
      <trkpt lat="46.8428" lon="5.86941">
        <ele>690.1</ele>
        <time>2021-07-02T14:22:58Z</time>
      </trkpt>
      <trkpt lat="46.84276" lon="5.86944">
        <ele>690.8</ele>
        <time>2021-07-02T14:23:06Z</time>
      </trkpt>
      <trkpt lat="46.84272" lon="5.8695">
        <ele>691.5</ele>
        <time>2021-07-02T14:23:16Z</time>
      </trkpt>
      <trkpt lat="46.84269" lon="5.86959">
        <ele>691.8</ele>
        <time>2021-07-02T14:23:20Z</time>
      </trkpt>
      <trkpt lat="46.84267" lon="5.86965">
        <ele>691.8</ele>
        <time>2021-07-02T14:23:24Z</time>
      </trkpt>
      <trkpt lat="46.84263" lon="5.86968">
        <ele>691.3</ele>
        <time>2021-07-02T14:23:29Z</time>
      </trkpt>
      <trkpt lat="46.84263" lon="5.86961">
        <ele>690.9</ele>
        <time>2021-07-02T14:23:35Z</time>
      </trkpt>
      <trkpt lat="46.84262" lon="5.86968">
        <ele>691</ele>
        <time>2021-07-02T14:24:21Z</time>
      </trkpt>
      <trkpt lat="46.8426" lon="5.86976">
        <ele>690.2</ele>
        <time>2021-07-02T14:24:27Z</time>
      </trkpt>
      <trkpt lat="46.84258" lon="5.86983">
        <ele>689.5</ele>
        <time>2021-07-02T14:24:32Z</time>
      </trkpt>
      <trkpt lat="46.84256" lon="5.86989">
        <ele>689.1</ele>
        <time>2021-07-02T14:24:37Z</time>
      </trkpt>
      <trkpt lat="46.84254" lon="5.86996">
        <ele>688.8</ele>
        <time>2021-07-02T14:24:42Z</time>
      </trkpt>
      <trkpt lat="46.84251" lon="5.87002">
        <ele>688.7</ele>
        <time>2021-07-02T14:24:47Z</time>
      </trkpt>
      <trkpt lat="46.84247" lon="5.87007">
        <ele>688.6</ele>
        <time>2021-07-02T14:24:51Z</time>
      </trkpt>
      <trkpt lat="46.84244" lon="5.87012">
        <ele>688.2</ele>
        <time>2021-07-02T14:24:56Z</time>
      </trkpt>
      <trkpt lat="46.84241" lon="5.87018">
        <ele>687.9</ele>
        <time>2021-07-02T14:25:00Z</time>
      </trkpt>
      <trkpt lat="46.84238" lon="5.87024">
        <ele>687.9</ele>
        <time>2021-07-02T14:25:06Z</time>
      </trkpt>
      <trkpt lat="46.84235" lon="5.87031">
        <ele>688.2</ele>
        <time>2021-07-02T14:25:10Z</time>
      </trkpt>
      <trkpt lat="46.84233" lon="5.87036">
        <ele>688.7</ele>
        <time>2021-07-02T14:25:14Z</time>
      </trkpt>
      <trkpt lat="46.84229" lon="5.87041">
        <ele>689.9</ele>
        <time>2021-07-02T14:25:22Z</time>
      </trkpt>
      <trkpt lat="46.84226" lon="5.87047">
        <ele>690.8</ele>
        <time>2021-07-02T14:25:28Z</time>
      </trkpt>
      <trkpt lat="46.84224" lon="5.87054">
        <ele>691</ele>
        <time>2021-07-02T14:25:33Z</time>
      </trkpt>
      <trkpt lat="46.84221" lon="5.87059">
        <ele>690.9</ele>
        <time>2021-07-02T14:25:38Z</time>
      </trkpt>
      <trkpt lat="46.84217" lon="5.87065">
        <ele>690.5</ele>
        <time>2021-07-02T14:25:43Z</time>
      </trkpt>
      <trkpt lat="46.84213" lon="5.87068">
        <ele>690.1</ele>
        <time>2021-07-02T14:25:48Z</time>
      </trkpt>
      <trkpt lat="46.84209" lon="5.87071">
        <ele>690</ele>
        <time>2021-07-02T14:25:58Z</time>
      </trkpt>
      <trkpt lat="46.84207" lon="5.87078">
        <ele>691.3</ele>
        <time>2021-07-02T14:26:07Z</time>
      </trkpt>
      <trkpt lat="46.84204" lon="5.87083">
        <ele>691.9</ele>
        <time>2021-07-02T14:26:11Z</time>
      </trkpt>
      <trkpt lat="46.84201" lon="5.87088">
        <ele>691.5</ele>
        <time>2021-07-02T14:26:17Z</time>
      </trkpt>
      <trkpt lat="46.84198" lon="5.87094">
        <ele>691</ele>
        <time>2021-07-02T14:26:22Z</time>
      </trkpt>
      <trkpt lat="46.84195" lon="5.871">
        <ele>690.6</ele>
        <time>2021-07-02T14:26:28Z</time>
      </trkpt>
      <trkpt lat="46.84191" lon="5.87105">
        <ele>690.2</ele>
        <time>2021-07-02T14:26:32Z</time>
      </trkpt>
      <trkpt lat="46.84188" lon="5.87112">
        <ele>689.4</ele>
        <time>2021-07-02T14:26:36Z</time>
      </trkpt>
      <trkpt lat="46.84186" lon="5.8712">
        <ele>688.8</ele>
        <time>2021-07-02T14:26:40Z</time>
      </trkpt>
      <trkpt lat="46.84187" lon="5.87126">
        <ele>688.2</ele>
        <time>2021-07-02T14:26:44Z</time>
      </trkpt>
      <trkpt lat="46.84184" lon="5.87134">
        <ele>687.7</ele>
        <time>2021-07-02T14:26:48Z</time>
      </trkpt>
      <trkpt lat="46.84184" lon="5.87142">
        <ele>687</ele>
        <time>2021-07-02T14:26:53Z</time>
      </trkpt>
      <trkpt lat="46.84184" lon="5.87149">
        <ele>686.6</ele>
        <time>2021-07-02T14:26:58Z</time>
      </trkpt>
      <trkpt lat="46.84185" lon="5.87156">
        <ele>686.3</ele>
        <time>2021-07-02T14:27:02Z</time>
      </trkpt>
      <trkpt lat="46.84188" lon="5.87163">
        <ele>686.4</ele>
        <time>2021-07-02T14:27:06Z</time>
      </trkpt>
      <trkpt lat="46.84189" lon="5.8717">
        <ele>685.9</ele>
        <time>2021-07-02T14:27:10Z</time>
      </trkpt>
      <trkpt lat="46.84188" lon="5.87176">
        <ele>684.6</ele>
        <time>2021-07-02T14:27:16Z</time>
      </trkpt>
      <trkpt lat="46.84185" lon="5.87182">
        <ele>683.3</ele>
        <time>2021-07-02T14:27:22Z</time>
      </trkpt>
      <trkpt lat="46.84185" lon="5.87189">
        <ele>681.7</ele>
        <time>2021-07-02T14:27:29Z</time>
      </trkpt>
      <trkpt lat="46.84182" lon="5.87195">
        <ele>680.4</ele>
        <time>2021-07-02T14:27:34Z</time>
      </trkpt>
      <trkpt lat="46.84183" lon="5.87203">
        <ele>679.9</ele>
        <time>2021-07-02T14:27:38Z</time>
      </trkpt>
      <trkpt lat="46.84184" lon="5.87211">
        <ele>680.2</ele>
        <time>2021-07-02T14:27:42Z</time>
      </trkpt>
      <trkpt lat="46.84181" lon="5.87219">
        <ele>680.9</ele>
        <time>2021-07-02T14:27:46Z</time>
      </trkpt>
      <trkpt lat="46.84177" lon="5.87226">
        <ele>681.4</ele>
        <time>2021-07-02T14:27:50Z</time>
      </trkpt>
      <trkpt lat="46.84174" lon="5.87232">
        <ele>682.4</ele>
        <time>2021-07-02T14:27:54Z</time>
      </trkpt>
      <trkpt lat="46.84171" lon="5.87237">
        <ele>684.1</ele>
        <time>2021-07-02T14:28:00Z</time>
      </trkpt>
      <trkpt lat="46.84169" lon="5.87244">
        <ele>684.3</ele>
        <time>2021-07-02T14:28:06Z</time>
      </trkpt>
      <trkpt lat="46.84167" lon="5.87251">
        <ele>684.8</ele>
        <time>2021-07-02T14:28:11Z</time>
      </trkpt>
      <trkpt lat="46.84166" lon="5.87258">
        <ele>684.6</ele>
        <time>2021-07-02T14:28:17Z</time>
      </trkpt>
      <trkpt lat="46.84161" lon="5.87257">
        <ele>686</ele>
        <time>2021-07-02T14:28:30Z</time>
      </trkpt>
      <trkpt lat="46.84159" lon="5.87241">
        <ele>688.6</ele>
        <time>2021-07-02T14:28:34Z</time>
      </trkpt>
      <trkpt lat="46.8416" lon="5.87229">
        <ele>690.3</ele>
        <time>2021-07-02T14:28:38Z</time>
      </trkpt>
      <trkpt lat="46.84163" lon="5.87221">
        <ele>691.8</ele>
        <time>2021-07-02T14:28:42Z</time>
      </trkpt>
      <trkpt lat="46.84168" lon="5.8722">
        <ele>694.5</ele>
        <time>2021-07-02T14:28:47Z</time>
      </trkpt>
      <trkpt lat="46.84172" lon="5.87223">
        <ele>700.4</ele>
        <time>2021-07-02T14:28:54Z</time>
      </trkpt>
      <trkpt lat="46.84166" lon="5.87236">
        <ele>703.4</ele>
        <time>2021-07-02T14:28:58Z</time>
      </trkpt>
      <trkpt lat="46.8416" lon="5.8725">
        <ele>705.3</ele>
        <time>2021-07-02T14:29:02Z</time>
      </trkpt>
      <trkpt lat="46.84157" lon="5.87258">
        <ele>706</ele>
        <time>2021-07-02T14:29:06Z</time>
      </trkpt>
      <trkpt lat="46.84154" lon="5.87264">
        <ele>705.6</ele>
        <time>2021-07-02T14:29:10Z</time>
      </trkpt>
      <trkpt lat="46.8415" lon="5.87269">
        <ele>706</ele>
        <time>2021-07-02T14:29:37Z</time>
      </trkpt>
      <trkpt lat="46.84149" lon="5.87276">
        <ele>704.7</ele>
        <time>2021-07-02T14:29:49Z</time>
      </trkpt>
      <trkpt lat="46.84147" lon="5.87283">
        <ele>703</ele>
        <time>2021-07-02T14:29:58Z</time>
      </trkpt>
      <trkpt lat="46.84144" lon="5.87289">
        <ele>701</ele>
        <time>2021-07-02T14:30:04Z</time>
      </trkpt>
      <trkpt lat="46.84142" lon="5.87296">
        <ele>698.7</ele>
        <time>2021-07-02T14:30:09Z</time>
      </trkpt>
      <trkpt lat="46.84139" lon="5.87303">
        <ele>697.1</ele>
        <time>2021-07-02T14:30:13Z</time>
      </trkpt>
      <trkpt lat="46.84137" lon="5.87309">
        <ele>695.3</ele>
        <time>2021-07-02T14:30:18Z</time>
      </trkpt>
      <trkpt lat="46.84136" lon="5.87315">
        <ele>691.5</ele>
        <time>2021-07-02T14:30:33Z</time>
      </trkpt>
      <trkpt lat="46.84133" lon="5.87321">
        <ele>688.8</ele>
        <time>2021-07-02T14:30:40Z</time>
      </trkpt>
      <trkpt lat="46.84128" lon="5.87323">
        <ele>687.4</ele>
        <time>2021-07-02T14:30:45Z</time>
      </trkpt>
      <trkpt lat="46.84124" lon="5.87325">
        <ele>687</ele>
        <time>2021-07-02T14:30:49Z</time>
      </trkpt>
      <trkpt lat="46.84118" lon="5.87327">
        <ele>686.9</ele>
        <time>2021-07-02T14:30:53Z</time>
      </trkpt>
      <trkpt lat="46.84112" lon="5.87327">
        <ele>686.9</ele>
        <time>2021-07-02T14:30:57Z</time>
      </trkpt>
      <trkpt lat="46.84108" lon="5.87328">
        <ele>686.9</ele>
        <time>2021-07-02T14:31:01Z</time>
      </trkpt>
      <trkpt lat="46.84103" lon="5.87327">
        <ele>687.1</ele>
        <time>2021-07-02T14:31:06Z</time>
      </trkpt>
      <trkpt lat="46.84098" lon="5.87326">
        <ele>687.5</ele>
        <time>2021-07-02T14:31:11Z</time>
      </trkpt>
      <trkpt lat="46.84093" lon="5.87325">
        <ele>688.2</ele>
        <time>2021-07-02T14:31:16Z</time>
      </trkpt>
      <trkpt lat="46.84088" lon="5.87324">
        <ele>687.9</ele>
        <time>2021-07-02T14:31:21Z</time>
      </trkpt>
      <trkpt lat="46.84082" lon="5.87329">
        <ele>686.6</ele>
        <time>2021-07-02T14:31:28Z</time>
      </trkpt>
      <trkpt lat="46.84077" lon="5.87335">
        <ele>685.8</ele>
        <time>2021-07-02T14:31:32Z</time>
      </trkpt>
      <trkpt lat="46.84073" lon="5.87339">
        <ele>685</ele>
        <time>2021-07-02T14:31:36Z</time>
      </trkpt>
      <trkpt lat="46.84069" lon="5.87344">
        <ele>683.5</ele>
        <time>2021-07-02T14:31:44Z</time>
      </trkpt>
      <trkpt lat="46.84065" lon="5.87348">
        <ele>683.1</ele>
        <time>2021-07-02T14:31:48Z</time>
      </trkpt>
      <trkpt lat="46.84062" lon="5.87353">
        <ele>682.4</ele>
        <time>2021-07-02T14:31:54Z</time>
      </trkpt>
      <trkpt lat="46.84066" lon="5.87352">
        <ele>683.8</ele>
        <time>2021-07-02T14:32:08Z</time>
      </trkpt>
      <trkpt lat="46.84068" lon="5.87345">
        <ele>681.8</ele>
        <time>2021-07-02T14:32:43Z</time>
      </trkpt>
      <trkpt lat="46.84074" lon="5.87345">
        <ele>682.3</ele>
        <time>2021-07-02T14:32:48Z</time>
      </trkpt>
      <trkpt lat="46.84076" lon="5.87351">
        <ele>683</ele>
        <time>2021-07-02T14:32:53Z</time>
      </trkpt>
      <trkpt lat="46.84081" lon="5.87355">
        <ele>683.5</ele>
        <time>2021-07-02T14:32:59Z</time>
      </trkpt>
      <trkpt lat="46.84086" lon="5.87354">
        <ele>682.6</ele>
        <time>2021-07-02T14:33:04Z</time>
      </trkpt>
      <trkpt lat="46.84091" lon="5.87354">
        <ele>680.8</ele>
        <time>2021-07-02T14:33:10Z</time>
      </trkpt>
      <trkpt lat="46.84097" lon="5.87351">
        <ele>679.1</ele>
        <time>2021-07-02T14:33:14Z</time>
      </trkpt>
      <trkpt lat="46.84103" lon="5.87349">
        <ele>677.8</ele>
        <time>2021-07-02T14:33:18Z</time>
      </trkpt>
      <trkpt lat="46.84107" lon="5.87346">
        <ele>676.2</ele>
        <time>2021-07-02T14:33:27Z</time>
      </trkpt>
      <trkpt lat="46.84108" lon="5.87338">
        <ele>677.7</ele>
        <time>2021-07-02T14:33:49Z</time>
      </trkpt>
      <trkpt lat="46.84104" lon="5.87339">
        <ele>687</ele>
        <time>2021-07-02T14:34:19Z</time>
      </trkpt>
      <trkpt lat="46.84102" lon="5.87346">
        <ele>688.7</ele>
        <time>2021-07-02T14:34:23Z</time>
      </trkpt>
      <trkpt lat="46.84105" lon="5.87354">
        <ele>689.5</ele>
        <time>2021-07-02T14:34:27Z</time>
      </trkpt>
      <trkpt lat="46.84109" lon="5.87357">
        <ele>689.8</ele>
        <time>2021-07-02T14:34:31Z</time>
      </trkpt>
      <trkpt lat="46.84114" lon="5.87358">
        <ele>689.8</ele>
        <time>2021-07-02T14:34:35Z</time>
      </trkpt>
      <trkpt lat="46.84119" lon="5.87357">
        <ele>688.8</ele>
        <time>2021-07-02T14:34:40Z</time>
      </trkpt>
      <trkpt lat="46.84125" lon="5.87355">
        <ele>687.9</ele>
        <time>2021-07-02T14:34:45Z</time>
      </trkpt>
      <trkpt lat="46.84129" lon="5.87352">
        <ele>686.1</ele>
        <time>2021-07-02T14:34:51Z</time>
      </trkpt>
      <trkpt lat="46.84135" lon="5.87349">
        <ele>684.7</ele>
        <time>2021-07-02T14:34:55Z</time>
      </trkpt>
      <trkpt lat="46.84141" lon="5.87348">
        <ele>683.4</ele>
        <time>2021-07-02T14:34:59Z</time>
      </trkpt>
      <trkpt lat="46.84145" lon="5.87348">
        <ele>682.5</ele>
        <time>2021-07-02T14:35:03Z</time>
      </trkpt>
      <trkpt lat="46.8415" lon="5.8735">
        <ele>681.7</ele>
        <time>2021-07-02T14:35:07Z</time>
      </trkpt>
      <trkpt lat="46.84156" lon="5.8735">
        <ele>681.2</ele>
        <time>2021-07-02T14:35:11Z</time>
      </trkpt>
      <trkpt lat="46.84161" lon="5.87348">
        <ele>681.1</ele>
        <time>2021-07-02T14:35:15Z</time>
      </trkpt>
      <trkpt lat="46.84166" lon="5.87347">
        <ele>681.5</ele>
        <time>2021-07-02T14:35:19Z</time>
      </trkpt>
      <trkpt lat="46.84171" lon="5.87348">
        <ele>681.7</ele>
        <time>2021-07-02T14:35:23Z</time>
      </trkpt>
      <trkpt lat="46.84172" lon="5.87355">
        <ele>682.5</ele>
        <time>2021-07-02T14:35:31Z</time>
      </trkpt>
      <trkpt lat="46.84177" lon="5.87352">
        <ele>683</ele>
        <time>2021-07-02T14:35:47Z</time>
      </trkpt>
      <trkpt lat="46.84182" lon="5.87355">
        <ele>682.8</ele>
        <time>2021-07-02T14:35:51Z</time>
      </trkpt>
      <trkpt lat="46.84183" lon="5.87362">
        <ele>682</ele>
        <time>2021-07-02T14:36:02Z</time>
      </trkpt>
      <trkpt lat="46.84189" lon="5.87359">
        <ele>681.8</ele>
        <time>2021-07-02T14:36:11Z</time>
      </trkpt>
      <trkpt lat="46.84196" lon="5.87361">
        <ele>681.7</ele>
        <time>2021-07-02T14:36:15Z</time>
      </trkpt>
      <trkpt lat="46.84201" lon="5.87366">
        <ele>681.8</ele>
        <time>2021-07-02T14:36:19Z</time>
      </trkpt>
      <trkpt lat="46.84204" lon="5.87371">
        <ele>681</ele>
        <time>2021-07-02T14:36:25Z</time>
      </trkpt>
      <trkpt lat="46.84205" lon="5.87377">
        <ele>680.8</ele>
        <time>2021-07-02T14:36:30Z</time>
      </trkpt>
      <trkpt lat="46.84206" lon="5.87385">
        <ele>682.5</ele>
        <time>2021-07-02T14:36:44Z</time>
      </trkpt>
      <trkpt lat="46.84201" lon="5.8739">
        <ele>682.3</ele>
        <time>2021-07-02T14:36:50Z</time>
      </trkpt>
      <trkpt lat="46.84197" lon="5.87394">
        <ele>681.2</ele>
        <time>2021-07-02T14:36:56Z</time>
      </trkpt>
      <trkpt lat="46.84194" lon="5.87403">
        <ele>680.7</ele>
        <time>2021-07-02T14:37:00Z</time>
      </trkpt>
      <trkpt lat="46.84193" lon="5.87413">
        <ele>680.3</ele>
        <time>2021-07-02T14:37:04Z</time>
      </trkpt>
      <trkpt lat="46.84193" lon="5.87419">
        <ele>680.6</ele>
        <time>2021-07-02T14:37:08Z</time>
      </trkpt>
      <trkpt lat="46.84189" lon="5.87425">
        <ele>681.4</ele>
        <time>2021-07-02T14:37:16Z</time>
      </trkpt>
      <trkpt lat="46.84186" lon="5.8743">
        <ele>681.3</ele>
        <time>2021-07-02T14:37:21Z</time>
      </trkpt>
      <trkpt lat="46.84184" lon="5.87436">
        <ele>681.3</ele>
        <time>2021-07-02T14:37:27Z</time>
      </trkpt>
      <trkpt lat="46.84179" lon="5.8744">
        <ele>680.5</ele>
        <time>2021-07-02T14:37:32Z</time>
      </trkpt>
      <trkpt lat="46.84175" lon="5.87446">
        <ele>679.2</ele>
        <time>2021-07-02T14:37:38Z</time>
      </trkpt>
      <trkpt lat="46.84173" lon="5.87453">
        <ele>675</ele>
        <time>2021-07-02T14:37:51Z</time>
      </trkpt>
      <trkpt lat="46.84169" lon="5.87457">
        <ele>673.9</ele>
        <time>2021-07-02T14:37:55Z</time>
      </trkpt>
      <trkpt lat="46.84166" lon="5.87463">
        <ele>671.5</ele>
        <time>2021-07-02T14:38:01Z</time>
      </trkpt>
      <trkpt lat="46.84163" lon="5.87469">
        <ele>669.1</ele>
        <time>2021-07-02T14:38:06Z</time>
      </trkpt>
      <trkpt lat="46.84161" lon="5.87476">
        <ele>667.9</ele>
        <time>2021-07-02T14:38:10Z</time>
      </trkpt>
      <trkpt lat="46.84158" lon="5.87482">
        <ele>667</ele>
        <time>2021-07-02T14:38:14Z</time>
      </trkpt>
      <trkpt lat="46.84158" lon="5.8749">
        <ele>666.4</ele>
        <time>2021-07-02T14:38:18Z</time>
      </trkpt>
      <trkpt lat="46.84157" lon="5.87498">
        <ele>666.3</ele>
        <time>2021-07-02T14:38:22Z</time>
      </trkpt>
      <trkpt lat="46.84158" lon="5.87504">
        <ele>666.5</ele>
        <time>2021-07-02T14:38:26Z</time>
      </trkpt>
      <trkpt lat="46.84158" lon="5.87511">
        <ele>667.3</ele>
        <time>2021-07-02T14:38:30Z</time>
      </trkpt>
      <trkpt lat="46.84156" lon="5.87519">
        <ele>668</ele>
        <time>2021-07-02T14:38:34Z</time>
      </trkpt>
      <trkpt lat="46.84154" lon="5.87526">
        <ele>669.1</ele>
        <time>2021-07-02T14:38:39Z</time>
      </trkpt>
      <trkpt lat="46.84158" lon="5.8753">
        <ele>669.6</ele>
        <time>2021-07-02T14:38:47Z</time>
      </trkpt>
      <trkpt lat="46.8416" lon="5.87537">
        <ele>669.4</ele>
        <time>2021-07-02T14:38:51Z</time>
      </trkpt>
      <trkpt lat="46.8416" lon="5.87545">
        <ele>669.1</ele>
        <time>2021-07-02T14:38:55Z</time>
      </trkpt>
      <trkpt lat="46.84161" lon="5.87552">
        <ele>667.6</ele>
        <time>2021-07-02T14:39:02Z</time>
      </trkpt>
      <trkpt lat="46.8416" lon="5.8756">
        <ele>666.6</ele>
        <time>2021-07-02T14:39:08Z</time>
      </trkpt>
      <trkpt lat="46.84161" lon="5.87567">
        <ele>666.4</ele>
        <time>2021-07-02T14:39:13Z</time>
      </trkpt>
      <trkpt lat="46.84163" lon="5.87574">
        <ele>666.7</ele>
        <time>2021-07-02T14:39:17Z</time>
      </trkpt>
      <trkpt lat="46.84165" lon="5.8758">
        <ele>667.1</ele>
        <time>2021-07-02T14:39:21Z</time>
      </trkpt>
      <trkpt lat="46.84169" lon="5.87584">
        <ele>668.1</ele>
        <time>2021-07-02T14:39:28Z</time>
      </trkpt>
      <trkpt lat="46.84172" lon="5.87591">
        <ele>668.7</ele>
        <time>2021-07-02T14:39:34Z</time>
      </trkpt>
      <trkpt lat="46.84175" lon="5.87597">
        <ele>669</ele>
        <time>2021-07-02T14:39:39Z</time>
      </trkpt>
      <trkpt lat="46.84178" lon="5.87602">
        <ele>669.1</ele>
        <time>2021-07-02T14:39:43Z</time>
      </trkpt>
      <trkpt lat="46.84181" lon="5.87608">
        <ele>669.3</ele>
        <time>2021-07-02T14:39:47Z</time>
      </trkpt>
      <trkpt lat="46.84182" lon="5.87614">
        <ele>670.1</ele>
        <time>2021-07-02T14:39:52Z</time>
      </trkpt>
      <trkpt lat="46.84184" lon="5.8762">
        <ele>670.2</ele>
        <time>2021-07-02T14:39:56Z</time>
      </trkpt>
      <trkpt lat="46.84185" lon="5.87627">
        <ele>669.4</ele>
        <time>2021-07-02T14:40:01Z</time>
      </trkpt>
      <trkpt lat="46.84186" lon="5.87634">
        <ele>668.6</ele>
        <time>2021-07-02T14:40:06Z</time>
      </trkpt>
      <trkpt lat="46.84185" lon="5.87642">
        <ele>668.7</ele>
        <time>2021-07-02T14:40:11Z</time>
      </trkpt>
      <trkpt lat="46.84185" lon="5.87648">
        <ele>668.6</ele>
        <time>2021-07-02T14:40:16Z</time>
      </trkpt>
      <trkpt lat="46.84186" lon="5.87656">
        <ele>668.1</ele>
        <time>2021-07-02T14:40:22Z</time>
      </trkpt>
      <trkpt lat="46.84186" lon="5.87663">
        <ele>667.1</ele>
        <time>2021-07-02T14:40:27Z</time>
      </trkpt>
      <trkpt lat="46.84187" lon="5.8767">
        <ele>665.6</ele>
        <time>2021-07-02T14:40:33Z</time>
      </trkpt>
      <trkpt lat="46.84189" lon="5.87676">
        <ele>664.7</ele>
        <time>2021-07-02T14:40:38Z</time>
      </trkpt>
      <trkpt lat="46.84189" lon="5.87684">
        <ele>664.4</ele>
        <time>2021-07-02T14:40:42Z</time>
      </trkpt>
      <trkpt lat="46.8419" lon="5.8769">
        <ele>663.8</ele>
        <time>2021-07-02T14:40:46Z</time>
      </trkpt>
      <trkpt lat="46.84193" lon="5.87695">
        <ele>663.2</ele>
        <time>2021-07-02T14:40:51Z</time>
      </trkpt>
      <trkpt lat="46.84198" lon="5.87699">
        <ele>662.6</ele>
        <time>2021-07-02T14:40:56Z</time>
      </trkpt>
      <trkpt lat="46.84202" lon="5.877">
        <ele>662.2</ele>
        <time>2021-07-02T14:41:01Z</time>
      </trkpt>
      <trkpt lat="46.84204" lon="5.87706">
        <ele>663</ele>
        <time>2021-07-02T14:41:07Z</time>
      </trkpt>
      <trkpt lat="46.84202" lon="5.87715">
        <ele>663.9</ele>
        <time>2021-07-02T14:41:11Z</time>
      </trkpt>
      <trkpt lat="46.842" lon="5.87723">
        <ele>664.5</ele>
        <time>2021-07-02T14:41:15Z</time>
      </trkpt>
      <trkpt lat="46.842" lon="5.87729">
        <ele>664.6</ele>
        <time>2021-07-02T14:41:20Z</time>
      </trkpt>
      <trkpt lat="46.84199" lon="5.87736">
        <ele>664.5</ele>
        <time>2021-07-02T14:41:28Z</time>
      </trkpt>
      <trkpt lat="46.84197" lon="5.87744">
        <ele>664.4</ele>
        <time>2021-07-02T14:41:32Z</time>
      </trkpt>
      <trkpt lat="46.84199" lon="5.8775">
        <ele>663.7</ele>
        <time>2021-07-02T14:41:40Z</time>
      </trkpt>
      <trkpt lat="46.84202" lon="5.87756">
        <ele>663.8</ele>
        <time>2021-07-02T14:41:45Z</time>
      </trkpt>
      <trkpt lat="46.84207" lon="5.87755">
        <ele>663.7</ele>
        <time>2021-07-02T14:41:54Z</time>
      </trkpt>
      <trkpt lat="46.84212" lon="5.87753">
        <ele>664</ele>
        <time>2021-07-02T14:41:58Z</time>
      </trkpt>
      <trkpt lat="46.84215" lon="5.87759">
        <ele>664.8</ele>
        <time>2021-07-02T14:42:04Z</time>
      </trkpt>
      <trkpt lat="46.84215" lon="5.87767">
        <ele>665.2</ele>
        <time>2021-07-02T14:42:10Z</time>
      </trkpt>
      <trkpt lat="46.84218" lon="5.87772">
        <ele>665</ele>
        <time>2021-07-02T14:42:17Z</time>
      </trkpt>
      <trkpt lat="46.84223" lon="5.87771">
        <ele>664.9</ele>
        <time>2021-07-02T14:42:22Z</time>
      </trkpt>
      <trkpt lat="46.84228" lon="5.87769">
        <ele>665.1</ele>
        <time>2021-07-02T14:42:27Z</time>
      </trkpt>
      <trkpt lat="46.84233" lon="5.87773">
        <ele>665.2</ele>
        <time>2021-07-02T14:42:35Z</time>
      </trkpt>
      <trkpt lat="46.84234" lon="5.87783">
        <ele>665.3</ele>
        <time>2021-07-02T14:42:39Z</time>
      </trkpt>
      <trkpt lat="46.84235" lon="5.8779">
        <ele>665.9</ele>
        <time>2021-07-02T14:42:44Z</time>
      </trkpt>
      <trkpt lat="46.84235" lon="5.87797">
        <ele>667.4</ele>
        <time>2021-07-02T14:42:53Z</time>
      </trkpt>
      <trkpt lat="46.84235" lon="5.87804">
        <ele>667.2</ele>
        <time>2021-07-02T14:42:59Z</time>
      </trkpt>
      <trkpt lat="46.8423" lon="5.87809">
        <ele>666.9</ele>
        <time>2021-07-02T14:43:12Z</time>
      </trkpt>
      <trkpt lat="46.84228" lon="5.87817">
        <ele>666.9</ele>
        <time>2021-07-02T14:43:16Z</time>
      </trkpt>
      <trkpt lat="46.84228" lon="5.87824">
        <ele>667.1</ele>
        <time>2021-07-02T14:43:21Z</time>
      </trkpt>
      <trkpt lat="46.8423" lon="5.8783">
        <ele>668</ele>
        <time>2021-07-02T14:43:29Z</time>
      </trkpt>
      <trkpt lat="46.8423" lon="5.87837">
        <ele>668.4</ele>
        <time>2021-07-02T14:43:33Z</time>
      </trkpt>
      <trkpt lat="46.84234" lon="5.87837">
        <ele>669.7</ele>
        <time>2021-07-02T14:43:41Z</time>
      </trkpt>
      <trkpt lat="46.84229" lon="5.87838">
        <ele>676.7</ele>
        <time>2021-07-02T14:44:19Z</time>
      </trkpt>
      <trkpt lat="46.84226" lon="5.87831">
        <ele>675.6</ele>
        <time>2021-07-02T14:44:41Z</time>
      </trkpt>
      <trkpt lat="46.84221" lon="5.87832">
        <ele>674.1</ele>
        <time>2021-07-02T14:44:52Z</time>
      </trkpt>
      <trkpt lat="46.84216" lon="5.87836">
        <ele>674</ele>
        <time>2021-07-02T14:44:56Z</time>
      </trkpt>
      <trkpt lat="46.84212" lon="5.87841">
        <ele>672.2</ele>
        <time>2021-07-02T14:45:05Z</time>
      </trkpt>
      <trkpt lat="46.8421" lon="5.87846">
        <ele>669.4</ele>
        <time>2021-07-02T14:45:18Z</time>
      </trkpt>
      <trkpt lat="46.84205" lon="5.8785">
        <ele>669.5</ele>
        <time>2021-07-02T14:45:24Z</time>
      </trkpt>
      <trkpt lat="46.84204" lon="5.87857">
        <ele>669.2</ele>
        <time>2021-07-02T14:45:32Z</time>
      </trkpt>
      <trkpt lat="46.842" lon="5.87864">
        <ele>668.4</ele>
        <time>2021-07-02T14:45:38Z</time>
      </trkpt>
      <trkpt lat="46.84196" lon="5.87871">
        <ele>668.4</ele>
        <time>2021-07-02T14:45:42Z</time>
      </trkpt>
      <trkpt lat="46.84193" lon="5.87877">
        <ele>668.8</ele>
        <time>2021-07-02T14:45:46Z</time>
      </trkpt>
      <trkpt lat="46.8419" lon="5.87883">
        <ele>669.4</ele>
        <time>2021-07-02T14:45:51Z</time>
      </trkpt>
      <trkpt lat="46.84186" lon="5.87889">
        <ele>669.4</ele>
        <time>2021-07-02T14:45:55Z</time>
      </trkpt>
      <trkpt lat="46.84182" lon="5.87895">
        <ele>668.9</ele>
        <time>2021-07-02T14:45:59Z</time>
      </trkpt>
      <trkpt lat="46.84178" lon="5.87905">
        <ele>669</ele>
        <time>2021-07-02T14:46:03Z</time>
      </trkpt>
      <trkpt lat="46.84175" lon="5.87911">
        <ele>669.4</ele>
        <time>2021-07-02T14:46:08Z</time>
      </trkpt>
      <trkpt lat="46.8417" lon="5.87913">
        <ele>669.3</ele>
        <time>2021-07-02T14:46:15Z</time>
      </trkpt>
      <trkpt lat="46.84165" lon="5.87916">
        <ele>669.1</ele>
        <time>2021-07-02T14:46:19Z</time>
      </trkpt>
      <trkpt lat="46.84159" lon="5.8792">
        <ele>667.9</ele>
        <time>2021-07-02T14:46:23Z</time>
      </trkpt>
      <trkpt lat="46.84155" lon="5.87924">
        <ele>664.7</ele>
        <time>2021-07-02T14:46:31Z</time>
      </trkpt>
      <trkpt lat="46.84153" lon="5.87931">
        <ele>660.2</ele>
        <time>2021-07-02T14:46:41Z</time>
      </trkpt>
      <trkpt lat="46.8415" lon="5.8794">
        <ele>659.6</ele>
        <time>2021-07-02T14:46:45Z</time>
      </trkpt>
      <trkpt lat="46.84145" lon="5.87945">
        <ele>660</ele>
        <time>2021-07-02T14:46:49Z</time>
      </trkpt>
      <trkpt lat="46.84141" lon="5.8795">
        <ele>660.5</ele>
        <time>2021-07-02T14:46:53Z</time>
      </trkpt>
      <trkpt lat="46.84136" lon="5.87955">
        <ele>661.2</ele>
        <time>2021-07-02T14:46:57Z</time>
      </trkpt>
      <trkpt lat="46.84133" lon="5.8796">
        <ele>662.6</ele>
        <time>2021-07-02T14:47:02Z</time>
      </trkpt>
      <trkpt lat="46.84129" lon="5.87966">
        <ele>664.5</ele>
        <time>2021-07-02T14:47:06Z</time>
      </trkpt>
      <trkpt lat="46.84124" lon="5.87972">
        <ele>666.6</ele>
        <time>2021-07-02T14:47:10Z</time>
      </trkpt>
      <trkpt lat="46.84122" lon="5.87978">
        <ele>668.8</ele>
        <time>2021-07-02T14:47:14Z</time>
      </trkpt>
      <trkpt lat="46.84118" lon="5.87983">
        <ele>670.4</ele>
        <time>2021-07-02T14:47:19Z</time>
      </trkpt>
      <trkpt lat="46.84115" lon="5.87988">
        <ele>671.1</ele>
        <time>2021-07-02T14:47:24Z</time>
      </trkpt>
      <trkpt lat="46.84112" lon="5.87994">
        <ele>671.2</ele>
        <time>2021-07-02T14:47:29Z</time>
      </trkpt>
      <trkpt lat="46.84107" lon="5.87999">
        <ele>670.7</ele>
        <time>2021-07-02T14:47:33Z</time>
      </trkpt>
      <trkpt lat="46.84104" lon="5.88004">
        <ele>669.6</ele>
        <time>2021-07-02T14:47:37Z</time>
      </trkpt>
      <trkpt lat="46.84101" lon="5.88009">
        <ele>668.2</ele>
        <time>2021-07-02T14:47:42Z</time>
      </trkpt>
      <trkpt lat="46.841" lon="5.88017">
        <ele>667.3</ele>
        <time>2021-07-02T14:47:47Z</time>
      </trkpt>
      <trkpt lat="46.84098" lon="5.88024">
        <ele>667.2</ele>
        <time>2021-07-02T14:47:51Z</time>
      </trkpt>
      <trkpt lat="46.84093" lon="5.88031">
        <ele>667.1</ele>
        <time>2021-07-02T14:47:55Z</time>
      </trkpt>
      <trkpt lat="46.84088" lon="5.88035">
        <ele>667.2</ele>
        <time>2021-07-02T14:47:59Z</time>
      </trkpt>
      <trkpt lat="46.84085" lon="5.88041">
        <ele>667.5</ele>
        <time>2021-07-02T14:48:03Z</time>
      </trkpt>
      <trkpt lat="46.84082" lon="5.88048">
        <ele>668.1</ele>
        <time>2021-07-02T14:48:07Z</time>
      </trkpt>
      <trkpt lat="46.84079" lon="5.88055">
        <ele>668.7</ele>
        <time>2021-07-02T14:48:11Z</time>
      </trkpt>
      <trkpt lat="46.84075" lon="5.88061">
        <ele>670</ele>
        <time>2021-07-02T14:48:18Z</time>
      </trkpt>
      <trkpt lat="46.84072" lon="5.88067">
        <ele>670.8</ele>
        <time>2021-07-02T14:48:24Z</time>
      </trkpt>
      <trkpt lat="46.84069" lon="5.88072">
        <ele>671.3</ele>
        <time>2021-07-02T14:48:28Z</time>
      </trkpt>
      <trkpt lat="46.84066" lon="5.88079">
        <ele>671.8</ele>
        <time>2021-07-02T14:48:32Z</time>
      </trkpt>
      <trkpt lat="46.84063" lon="5.88085">
        <ele>672.3</ele>
        <time>2021-07-02T14:48:36Z</time>
      </trkpt>
      <trkpt lat="46.84059" lon="5.88091">
        <ele>673</ele>
        <time>2021-07-02T14:48:41Z</time>
      </trkpt>
      <trkpt lat="46.84055" lon="5.88093">
        <ele>673.7</ele>
        <time>2021-07-02T14:48:46Z</time>
      </trkpt>
      <trkpt lat="46.84052" lon="5.88099">
        <ele>674.4</ele>
        <time>2021-07-02T14:48:53Z</time>
      </trkpt>
      <trkpt lat="46.84048" lon="5.88103">
        <ele>674.1</ele>
        <time>2021-07-02T14:48:59Z</time>
      </trkpt>
      <trkpt lat="46.84044" lon="5.88109">
        <ele>674</ele>
        <time>2021-07-02T14:49:04Z</time>
      </trkpt>
      <trkpt lat="46.8404" lon="5.88113">
        <ele>673.5</ele>
        <time>2021-07-02T14:49:08Z</time>
      </trkpt>
      <trkpt lat="46.84034" lon="5.88118">
        <ele>673.1</ele>
        <time>2021-07-02T14:49:12Z</time>
      </trkpt>
      <trkpt lat="46.8403" lon="5.88123">
        <ele>672.5</ele>
        <time>2021-07-02T14:49:16Z</time>
      </trkpt>
      <trkpt lat="46.84027" lon="5.8813">
        <ele>671.7</ele>
        <time>2021-07-02T14:49:21Z</time>
      </trkpt>
      <trkpt lat="46.84024" lon="5.88135">
        <ele>670.7</ele>
        <time>2021-07-02T14:49:26Z</time>
      </trkpt>
      <trkpt lat="46.84022" lon="5.88141">
        <ele>666.9</ele>
        <time>2021-07-02T14:49:44Z</time>
      </trkpt>
      <trkpt lat="46.8402" lon="5.88147">
        <ele>667.1</ele>
        <time>2021-07-02T14:49:48Z</time>
      </trkpt>
      <trkpt lat="46.84017" lon="5.88153">
        <ele>667.4</ele>
        <time>2021-07-02T14:49:52Z</time>
      </trkpt>
      <trkpt lat="46.84014" lon="5.88158">
        <ele>667.8</ele>
        <time>2021-07-02T14:49:56Z</time>
      </trkpt>
      <trkpt lat="46.8401" lon="5.8816">
        <ele>668.1</ele>
        <time>2021-07-02T14:50:00Z</time>
      </trkpt>
      <trkpt lat="46.84006" lon="5.88164">
        <ele>668.3</ele>
        <time>2021-07-02T14:50:04Z</time>
      </trkpt>
      <trkpt lat="46.84" lon="5.88169">
        <ele>668.6</ele>
        <time>2021-07-02T14:50:08Z</time>
      </trkpt>
      <trkpt lat="46.83996" lon="5.88174">
        <ele>669</ele>
        <time>2021-07-02T14:50:12Z</time>
      </trkpt>
      <trkpt lat="46.83992" lon="5.8818">
        <ele>669.2</ele>
        <time>2021-07-02T14:50:16Z</time>
      </trkpt>
      <trkpt lat="46.8399" lon="5.88187">
        <ele>669.7</ele>
        <time>2021-07-02T14:50:21Z</time>
      </trkpt>
      <trkpt lat="46.83987" lon="5.88192">
        <ele>669.8</ele>
        <time>2021-07-02T14:50:25Z</time>
      </trkpt>
      <trkpt lat="46.83982" lon="5.88196">
        <ele>670</ele>
        <time>2021-07-02T14:50:30Z</time>
      </trkpt>
      <trkpt lat="46.83979" lon="5.88201">
        <ele>669.8</ele>
        <time>2021-07-02T14:50:36Z</time>
      </trkpt>
      <trkpt lat="46.83975" lon="5.88206">
        <ele>668.9</ele>
        <time>2021-07-02T14:50:42Z</time>
      </trkpt>
      <trkpt lat="46.83973" lon="5.88213">
        <ele>668.3</ele>
        <time>2021-07-02T14:50:47Z</time>
      </trkpt>
      <trkpt lat="46.83969" lon="5.88221">
        <ele>667.5</ele>
        <time>2021-07-02T14:50:51Z</time>
      </trkpt>
      <trkpt lat="46.83965" lon="5.88228">
        <ele>666.6</ele>
        <time>2021-07-02T14:50:55Z</time>
      </trkpt>
      <trkpt lat="46.83961" lon="5.88231">
        <ele>665.9</ele>
        <time>2021-07-02T14:50:59Z</time>
      </trkpt>
      <trkpt lat="46.83957" lon="5.88236">
        <ele>665.4</ele>
        <time>2021-07-02T14:51:04Z</time>
      </trkpt>
      <trkpt lat="46.83953" lon="5.88241">
        <ele>664.8</ele>
        <time>2021-07-02T14:51:09Z</time>
      </trkpt>
      <trkpt lat="46.83949" lon="5.88244">
        <ele>664.5</ele>
        <time>2021-07-02T14:51:13Z</time>
      </trkpt>
      <trkpt lat="46.83946" lon="5.8825">
        <ele>664.1</ele>
        <time>2021-07-02T14:51:17Z</time>
      </trkpt>
      <trkpt lat="46.83945" lon="5.88257">
        <ele>664.2</ele>
        <time>2021-07-02T14:51:23Z</time>
      </trkpt>
      <trkpt lat="46.83941" lon="5.88263">
        <ele>664.4</ele>
        <time>2021-07-02T14:51:28Z</time>
      </trkpt>
      <trkpt lat="46.83937" lon="5.88268">
        <ele>664.5</ele>
        <time>2021-07-02T14:51:32Z</time>
      </trkpt>
      <trkpt lat="46.83932" lon="5.88278">
        <ele>664.6</ele>
        <time>2021-07-02T14:51:36Z</time>
      </trkpt>
      <trkpt lat="46.83927" lon="5.88284">
        <ele>664.4</ele>
        <time>2021-07-02T14:51:40Z</time>
      </trkpt>
      <trkpt lat="46.83924" lon="5.88288">
        <ele>664</ele>
        <time>2021-07-02T14:51:46Z</time>
      </trkpt>
      <trkpt lat="46.8392" lon="5.88293">
        <ele>663.5</ele>
        <time>2021-07-02T14:51:52Z</time>
      </trkpt>
      <trkpt lat="46.83916" lon="5.88296">
        <ele>662.5</ele>
        <time>2021-07-02T14:51:58Z</time>
      </trkpt>
      <trkpt lat="46.83911" lon="5.88299">
        <ele>661.4</ele>
        <time>2021-07-02T14:52:04Z</time>
      </trkpt>
      <trkpt lat="46.83906" lon="5.88304">
        <ele>660.4</ele>
        <time>2021-07-02T14:52:08Z</time>
      </trkpt>
      <trkpt lat="46.83902" lon="5.8831">
        <ele>659.5</ele>
        <time>2021-07-02T14:52:12Z</time>
      </trkpt>
      <trkpt lat="46.839" lon="5.88316">
        <ele>658.8</ele>
        <time>2021-07-02T14:52:16Z</time>
      </trkpt>
      <trkpt lat="46.83896" lon="5.88322">
        <ele>658.1</ele>
        <time>2021-07-02T14:52:21Z</time>
      </trkpt>
      <trkpt lat="46.83894" lon="5.88328">
        <ele>657.7</ele>
        <time>2021-07-02T14:52:26Z</time>
      </trkpt>
      <trkpt lat="46.83891" lon="5.88334">
        <ele>657.1</ele>
        <time>2021-07-02T14:52:30Z</time>
      </trkpt>
      <trkpt lat="46.83888" lon="5.88339">
        <ele>656.7</ele>
        <time>2021-07-02T14:52:34Z</time>
      </trkpt>
      <trkpt lat="46.83884" lon="5.88345">
        <ele>656.5</ele>
        <time>2021-07-02T14:52:39Z</time>
      </trkpt>
      <trkpt lat="46.83881" lon="5.88351">
        <ele>656.6</ele>
        <time>2021-07-02T14:52:44Z</time>
      </trkpt>
      <trkpt lat="46.83877" lon="5.88357">
        <ele>656.9</ele>
        <time>2021-07-02T14:52:51Z</time>
      </trkpt>
      <trkpt lat="46.83874" lon="5.88363">
        <ele>656.8</ele>
        <time>2021-07-02T14:52:57Z</time>
      </trkpt>
      <trkpt lat="46.8387" lon="5.88368">
        <ele>656.5</ele>
        <time>2021-07-02T14:53:02Z</time>
      </trkpt>
      <trkpt lat="46.83866" lon="5.88373">
        <ele>656.1</ele>
        <time>2021-07-02T14:53:06Z</time>
      </trkpt>
      <trkpt lat="46.83863" lon="5.88379">
        <ele>656</ele>
        <time>2021-07-02T14:53:10Z</time>
      </trkpt>
      <trkpt lat="46.8386" lon="5.88385">
        <ele>656</ele>
        <time>2021-07-02T14:53:17Z</time>
      </trkpt>
      <trkpt lat="46.83857" lon="5.8839">
        <ele>656</ele>
        <time>2021-07-02T14:53:21Z</time>
      </trkpt>
      <trkpt lat="46.83854" lon="5.88397">
        <ele>656.2</ele>
        <time>2021-07-02T14:53:25Z</time>
      </trkpt>
      <trkpt lat="46.8385" lon="5.88404">
        <ele>657</ele>
        <time>2021-07-02T14:53:29Z</time>
      </trkpt>
      <trkpt lat="46.83846" lon="5.88409">
        <ele>658</ele>
        <time>2021-07-02T14:53:33Z</time>
      </trkpt>
      <trkpt lat="46.83842" lon="5.88414">
        <ele>658.8</ele>
        <time>2021-07-02T14:53:37Z</time>
      </trkpt>
      <trkpt lat="46.83838" lon="5.88418">
        <ele>659.7</ele>
        <time>2021-07-02T14:53:42Z</time>
      </trkpt>
      <trkpt lat="46.83835" lon="5.88424">
        <ele>660.3</ele>
        <time>2021-07-02T14:53:47Z</time>
      </trkpt>
      <trkpt lat="46.83833" lon="5.8843">
        <ele>660.7</ele>
        <time>2021-07-02T14:53:54Z</time>
      </trkpt>
      <trkpt lat="46.83829" lon="5.88436">
        <ele>660.7</ele>
        <time>2021-07-02T14:53:59Z</time>
      </trkpt>
      <trkpt lat="46.83825" lon="5.88441">
        <ele>660.5</ele>
        <time>2021-07-02T14:54:03Z</time>
      </trkpt>
      <trkpt lat="46.8382" lon="5.88443">
        <ele>660.5</ele>
        <time>2021-07-02T14:54:08Z</time>
      </trkpt>
      <trkpt lat="46.83816" lon="5.88448">
        <ele>660.4</ele>
        <time>2021-07-02T14:54:13Z</time>
      </trkpt>
      <trkpt lat="46.83812" lon="5.88453">
        <ele>660.3</ele>
        <time>2021-07-02T14:54:17Z</time>
      </trkpt>
      <trkpt lat="46.83808" lon="5.88459">
        <ele>660</ele>
        <time>2021-07-02T14:54:22Z</time>
      </trkpt>
      <trkpt lat="46.83804" lon="5.88463">
        <ele>659.5</ele>
        <time>2021-07-02T14:54:26Z</time>
      </trkpt>
      <trkpt lat="46.83801" lon="5.8847">
        <ele>659.2</ele>
        <time>2021-07-02T14:54:31Z</time>
      </trkpt>
      <trkpt lat="46.83798" lon="5.88475">
        <ele>658.9</ele>
        <time>2021-07-02T14:54:35Z</time>
      </trkpt>
      <trkpt lat="46.83795" lon="5.8848">
        <ele>658.1</ele>
        <time>2021-07-02T14:54:39Z</time>
      </trkpt>
      <trkpt lat="46.83791" lon="5.88485">
        <ele>656.9</ele>
        <time>2021-07-02T14:54:45Z</time>
      </trkpt>
      <trkpt lat="46.83787" lon="5.88488">
        <ele>655.4</ele>
        <time>2021-07-02T14:54:52Z</time>
      </trkpt>
      <trkpt lat="46.83783" lon="5.8849">
        <ele>654.2</ele>
        <time>2021-07-02T14:55:00Z</time>
      </trkpt>
      <trkpt lat="46.83779" lon="5.88497">
        <ele>653.6</ele>
        <time>2021-07-02T14:55:05Z</time>
      </trkpt>
      <trkpt lat="46.83776" lon="5.88502">
        <ele>652.7</ele>
        <time>2021-07-02T14:55:10Z</time>
      </trkpt>
      <trkpt lat="46.83773" lon="5.88508">
        <ele>651.6</ele>
        <time>2021-07-02T14:55:16Z</time>
      </trkpt>
      <trkpt lat="46.8377" lon="5.88515">
        <ele>651.2</ele>
        <time>2021-07-02T14:55:21Z</time>
      </trkpt>
      <trkpt lat="46.83766" lon="5.88521">
        <ele>651</ele>
        <time>2021-07-02T14:55:25Z</time>
      </trkpt>
      <trkpt lat="46.83764" lon="5.88528">
        <ele>651.2</ele>
        <time>2021-07-02T14:55:29Z</time>
      </trkpt>
      <trkpt lat="46.83761" lon="5.88535">
        <ele>652.1</ele>
        <time>2021-07-02T14:55:42Z</time>
      </trkpt>
      <trkpt lat="46.83759" lon="5.88541">
        <ele>652.3</ele>
        <time>2021-07-02T14:55:47Z</time>
      </trkpt>
      <trkpt lat="46.83754" lon="5.88545">
        <ele>652.9</ele>
        <time>2021-07-02T14:55:52Z</time>
      </trkpt>
      <trkpt lat="46.8375" lon="5.88548">
        <ele>653.4</ele>
        <time>2021-07-02T14:55:56Z</time>
      </trkpt>
      <trkpt lat="46.83746" lon="5.88552">
        <ele>654.3</ele>
        <time>2021-07-02T14:56:02Z</time>
      </trkpt>
      <trkpt lat="46.83742" lon="5.88556">
        <ele>655.2</ele>
        <time>2021-07-02T14:56:08Z</time>
      </trkpt>
      <trkpt lat="46.83739" lon="5.88562">
        <ele>655.6</ele>
        <time>2021-07-02T14:56:13Z</time>
      </trkpt>
      <trkpt lat="46.83736" lon="5.88567">
        <ele>655.9</ele>
        <time>2021-07-02T14:56:17Z</time>
      </trkpt>
      <trkpt lat="46.83734" lon="5.88573">
        <ele>656</ele>
        <time>2021-07-02T14:56:21Z</time>
      </trkpt>
      <trkpt lat="46.8373" lon="5.88579">
        <ele>656.1</ele>
        <time>2021-07-02T14:56:26Z</time>
      </trkpt>
      <trkpt lat="46.83727" lon="5.88585">
        <ele>656.1</ele>
        <time>2021-07-02T14:56:30Z</time>
      </trkpt>
      <trkpt lat="46.83723" lon="5.88589">
        <ele>656.2</ele>
        <time>2021-07-02T14:56:34Z</time>
      </trkpt>
      <trkpt lat="46.8372" lon="5.88593">
        <ele>656.2</ele>
        <time>2021-07-02T14:56:38Z</time>
      </trkpt>
      <trkpt lat="46.83717" lon="5.88598">
        <ele>656.4</ele>
        <time>2021-07-02T14:56:42Z</time>
      </trkpt>
      <trkpt lat="46.83713" lon="5.88602">
        <ele>656.1</ele>
        <time>2021-07-02T14:56:47Z</time>
      </trkpt>
      <trkpt lat="46.83709" lon="5.88607">
        <ele>655.8</ele>
        <time>2021-07-02T14:56:52Z</time>
      </trkpt>
      <trkpt lat="46.83706" lon="5.88613">
        <ele>655.7</ele>
        <time>2021-07-02T14:56:57Z</time>
      </trkpt>
      <trkpt lat="46.83702" lon="5.88619">
        <ele>655.4</ele>
        <time>2021-07-02T14:57:02Z</time>
      </trkpt>
      <trkpt lat="46.837" lon="5.88625">
        <ele>655.1</ele>
        <time>2021-07-02T14:57:08Z</time>
      </trkpt>
      <trkpt lat="46.83695" lon="5.8863">
        <ele>655</ele>
        <time>2021-07-02T14:57:12Z</time>
      </trkpt>
      <trkpt lat="46.8369" lon="5.88634">
        <ele>655</ele>
        <time>2021-07-02T14:57:16Z</time>
      </trkpt>
      <trkpt lat="46.83687" lon="5.8864">
        <ele>655.5</ele>
        <time>2021-07-02T14:57:25Z</time>
      </trkpt>
      <trkpt lat="46.83685" lon="5.88646">
        <ele>656.1</ele>
        <time>2021-07-02T14:57:30Z</time>
      </trkpt>
      <trkpt lat="46.83681" lon="5.8865">
        <ele>657</ele>
        <time>2021-07-02T14:57:35Z</time>
      </trkpt>
      <trkpt lat="46.83678" lon="5.88658">
        <ele>657.6</ele>
        <time>2021-07-02T14:57:39Z</time>
      </trkpt>
      <trkpt lat="46.83675" lon="5.88666">
        <ele>657.8</ele>
        <time>2021-07-02T14:57:43Z</time>
      </trkpt>
      <trkpt lat="46.83672" lon="5.88672">
        <ele>657.6</ele>
        <time>2021-07-02T14:57:47Z</time>
      </trkpt>
      <trkpt lat="46.83669" lon="5.88677">
        <ele>657.7</ele>
        <time>2021-07-02T14:57:51Z</time>
      </trkpt>
      <trkpt lat="46.83666" lon="5.88684">
        <ele>657.9</ele>
        <time>2021-07-02T14:57:56Z</time>
      </trkpt>
      <trkpt lat="46.83662" lon="5.88688">
        <ele>658.2</ele>
        <time>2021-07-02T14:58:01Z</time>
      </trkpt>
      <trkpt lat="46.83657" lon="5.88691">
        <ele>658.5</ele>
        <time>2021-07-02T14:58:06Z</time>
      </trkpt>
      <trkpt lat="46.83653" lon="5.88697">
        <ele>658.9</ele>
        <time>2021-07-02T14:58:11Z</time>
      </trkpt>
      <trkpt lat="46.8365" lon="5.88704">
        <ele>659.1</ele>
        <time>2021-07-02T14:58:16Z</time>
      </trkpt>
      <trkpt lat="46.83644" lon="5.88708">
        <ele>659.1</ele>
        <time>2021-07-02T14:58:20Z</time>
      </trkpt>
      <trkpt lat="46.8364" lon="5.88714">
        <ele>659.6</ele>
        <time>2021-07-02T14:58:24Z</time>
      </trkpt>
      <trkpt lat="46.83635" lon="5.88716">
        <ele>661.2</ele>
        <time>2021-07-02T14:58:41Z</time>
      </trkpt>
      <trkpt lat="46.83633" lon="5.88722">
        <ele>660</ele>
        <time>2021-07-02T14:58:47Z</time>
      </trkpt>
      <trkpt lat="46.83633" lon="5.88729">
        <ele>658.6</ele>
        <time>2021-07-02T14:58:54Z</time>
      </trkpt>
      <trkpt lat="46.83627" lon="5.88731">
        <ele>658.7</ele>
        <time>2021-07-02T14:58:58Z</time>
      </trkpt>
      <trkpt lat="46.83621" lon="5.88735">
        <ele>658.8</ele>
        <time>2021-07-02T14:59:02Z</time>
      </trkpt>
      <trkpt lat="46.83617" lon="5.8874">
        <ele>658.4</ele>
        <time>2021-07-02T14:59:06Z</time>
      </trkpt>
      <trkpt lat="46.83615" lon="5.88746">
        <ele>658.2</ele>
        <time>2021-07-02T14:59:12Z</time>
      </trkpt>
      <trkpt lat="46.83612" lon="5.88751">
        <ele>658</ele>
        <time>2021-07-02T14:59:18Z</time>
      </trkpt>
      <trkpt lat="46.83608" lon="5.88756">
        <ele>657.8</ele>
        <time>2021-07-02T14:59:22Z</time>
      </trkpt>
      <trkpt lat="46.83605" lon="5.88763">
        <ele>657.7</ele>
        <time>2021-07-02T14:59:26Z</time>
      </trkpt>
      <trkpt lat="46.83603" lon="5.88772">
        <ele>657.6</ele>
        <time>2021-07-02T14:59:30Z</time>
      </trkpt>
      <trkpt lat="46.836" lon="5.88781">
        <ele>657.5</ele>
        <time>2021-07-02T14:59:34Z</time>
      </trkpt>
      <trkpt lat="46.83596" lon="5.88786">
        <ele>657.4</ele>
        <time>2021-07-02T14:59:38Z</time>
      </trkpt>
      <trkpt lat="46.83592" lon="5.88791">
        <ele>657.1</ele>
        <time>2021-07-02T14:59:43Z</time>
      </trkpt>
      <trkpt lat="46.83589" lon="5.88795">
        <ele>656.6</ele>
        <time>2021-07-02T14:59:47Z</time>
      </trkpt>
      <trkpt lat="46.83584" lon="5.88799">
        <ele>656</ele>
        <time>2021-07-02T14:59:52Z</time>
      </trkpt>
      <trkpt lat="46.83581" lon="5.88803">
        <ele>655.5</ele>
        <time>2021-07-02T14:59:57Z</time>
      </trkpt>
      <trkpt lat="46.83577" lon="5.88806">
        <ele>655.3</ele>
        <time>2021-07-02T15:00:03Z</time>
      </trkpt>
      <trkpt lat="46.83573" lon="5.88811">
        <ele>655</ele>
        <time>2021-07-02T15:00:08Z</time>
      </trkpt>
      <trkpt lat="46.83569" lon="5.88816">
        <ele>654.7</ele>
        <time>2021-07-02T15:00:15Z</time>
      </trkpt>
      <trkpt lat="46.83567" lon="5.88823">
        <ele>654.3</ele>
        <time>2021-07-02T15:00:20Z</time>
      </trkpt>
      <trkpt lat="46.83565" lon="5.8883">
        <ele>652.9</ele>
        <time>2021-07-02T15:00:26Z</time>
      </trkpt>
      <trkpt lat="46.83562" lon="5.88835">
        <ele>651</ele>
        <time>2021-07-02T15:00:34Z</time>
      </trkpt>
      <trkpt lat="46.83558" lon="5.88839">
        <ele>650.1</ele>
        <time>2021-07-02T15:00:38Z</time>
      </trkpt>
      <trkpt lat="46.83561" lon="5.88834">
        <ele>646.1</ele>
        <time>2021-07-02T15:01:20Z</time>
      </trkpt>
      <trkpt lat="46.83556" lon="5.88834">
        <ele>646.2</ele>
        <time>2021-07-02T15:01:48Z</time>
      </trkpt>
      <trkpt lat="46.83555" lon="5.8884">
        <ele>645.6</ele>
        <time>2021-07-02T15:02:00Z</time>
      </trkpt>
      <trkpt lat="46.83558" lon="5.88845">
        <ele>645.2</ele>
        <time>2021-07-02T15:02:33Z</time>
      </trkpt>
      <trkpt lat="46.8356" lon="5.88839">
        <ele>644.5</ele>
        <time>2021-07-02T15:02:52Z</time>
      </trkpt>
      <trkpt lat="46.83561" lon="5.88831">
        <ele>645.3</ele>
        <time>2021-07-02T15:03:07Z</time>
      </trkpt>
      <trkpt lat="46.83554" lon="5.88829">
        <ele>645.9</ele>
        <time>2021-07-02T15:03:20Z</time>
      </trkpt>
      <trkpt lat="46.83559" lon="5.88829">
        <ele>648.1</ele>
        <time>2021-07-02T15:04:16Z</time>
      </trkpt>
      <trkpt lat="46.83564" lon="5.88831">
        <ele>648.3</ele>
        <time>2021-07-02T15:04:30Z</time>
      </trkpt>
      <trkpt lat="46.83568" lon="5.88835">
        <ele>648.4</ele>
        <time>2021-07-02T15:04:36Z</time>
      </trkpt>
      <trkpt lat="46.83564" lon="5.88837">
        <ele>654</ele>
        <time>2021-07-02T15:05:04Z</time>
      </trkpt>
      <trkpt lat="46.8356" lon="5.88841">
        <ele>656</ele>
        <time>2021-07-02T15:05:17Z</time>
      </trkpt>
      <trkpt lat="46.83555" lon="5.88849">
        <ele>656.3</ele>
        <time>2021-07-02T15:05:32Z</time>
      </trkpt>
      <trkpt lat="46.83552" lon="5.88854">
        <ele>655.5</ele>
        <time>2021-07-02T15:05:36Z</time>
      </trkpt>
      <trkpt lat="46.83548" lon="5.88857">
        <ele>653.4</ele>
        <time>2021-07-02T15:05:44Z</time>
      </trkpt>
      <trkpt lat="46.83544" lon="5.88862">
        <ele>652</ele>
        <time>2021-07-02T15:05:51Z</time>
      </trkpt>
      <trkpt lat="46.83539" lon="5.88866">
        <ele>651.3</ele>
        <time>2021-07-02T15:05:55Z</time>
      </trkpt>
      <trkpt lat="46.83535" lon="5.8887">
        <ele>650.9</ele>
        <time>2021-07-02T15:05:59Z</time>
      </trkpt>
      <trkpt lat="46.83531" lon="5.88875">
        <ele>650.4</ele>
        <time>2021-07-02T15:06:03Z</time>
      </trkpt>
      <trkpt lat="46.83528" lon="5.88881">
        <ele>649.8</ele>
        <time>2021-07-02T15:06:07Z</time>
      </trkpt>
      <trkpt lat="46.83524" lon="5.88885">
        <ele>648.3</ele>
        <time>2021-07-02T15:06:13Z</time>
      </trkpt>
      <trkpt lat="46.8352" lon="5.8889">
        <ele>647.3</ele>
        <time>2021-07-02T15:06:17Z</time>
      </trkpt>
      <trkpt lat="46.83515" lon="5.88896">
        <ele>646.9</ele>
        <time>2021-07-02T15:06:21Z</time>
      </trkpt>
      <trkpt lat="46.83512" lon="5.88902">
        <ele>647.1</ele>
        <time>2021-07-02T15:06:26Z</time>
      </trkpt>
      <trkpt lat="46.83507" lon="5.88909">
        <ele>647.2</ele>
        <time>2021-07-02T15:06:30Z</time>
      </trkpt>
      <trkpt lat="46.83503" lon="5.8891">
        <ele>647</ele>
        <time>2021-07-02T15:06:35Z</time>
      </trkpt>
      <trkpt lat="46.83498" lon="5.88912">
        <ele>646.5</ele>
        <time>2021-07-02T15:06:40Z</time>
      </trkpt>
      <trkpt lat="46.83495" lon="5.88918">
        <ele>645.3</ele>
        <time>2021-07-02T15:06:49Z</time>
      </trkpt>
      <trkpt lat="46.83492" lon="5.88925">
        <ele>644.8</ele>
        <time>2021-07-02T15:06:54Z</time>
      </trkpt>
      <trkpt lat="46.8349" lon="5.88931">
        <ele>643.8</ele>
        <time>2021-07-02T15:07:02Z</time>
      </trkpt>
      <trkpt lat="46.83487" lon="5.88935">
        <ele>643.6</ele>
        <time>2021-07-02T15:07:06Z</time>
      </trkpt>
      <trkpt lat="46.83482" lon="5.88938">
        <ele>643.4</ele>
        <time>2021-07-02T15:07:10Z</time>
      </trkpt>
      <trkpt lat="46.83478" lon="5.88942">
        <ele>643.1</ele>
        <time>2021-07-02T15:07:14Z</time>
      </trkpt>
      <trkpt lat="46.83474" lon="5.88948">
        <ele>643.3</ele>
        <time>2021-07-02T15:07:18Z</time>
      </trkpt>
      <trkpt lat="46.83469" lon="5.88957">
        <ele>644.1</ele>
        <time>2021-07-02T15:07:22Z</time>
      </trkpt>
      <trkpt lat="46.83465" lon="5.88965">
        <ele>645.1</ele>
        <time>2021-07-02T15:07:26Z</time>
      </trkpt>
      <trkpt lat="46.83463" lon="5.88971">
        <ele>645.9</ele>
        <time>2021-07-02T15:07:30Z</time>
      </trkpt>
      <trkpt lat="46.83459" lon="5.88977">
        <ele>644.4</ele>
        <time>2021-07-02T15:07:40Z</time>
      </trkpt>
      <trkpt lat="46.83455" lon="5.88981">
        <ele>643.1</ele>
        <time>2021-07-02T15:07:45Z</time>
      </trkpt>
      <trkpt lat="46.83451" lon="5.88984">
        <ele>642</ele>
        <time>2021-07-02T15:07:49Z</time>
      </trkpt>
      <trkpt lat="46.83447" lon="5.8899">
        <ele>641.2</ele>
        <time>2021-07-02T15:07:53Z</time>
      </trkpt>
      <trkpt lat="46.83443" lon="5.88997">
        <ele>640.9</ele>
        <time>2021-07-02T15:07:57Z</time>
      </trkpt>
      <trkpt lat="46.83441" lon="5.89004">
        <ele>640.8</ele>
        <time>2021-07-02T15:08:01Z</time>
      </trkpt>
      <trkpt lat="46.83438" lon="5.89011">
        <ele>640.5</ele>
        <time>2021-07-02T15:08:06Z</time>
      </trkpt>
      <trkpt lat="46.83434" lon="5.89016">
        <ele>640.4</ele>
        <time>2021-07-02T15:08:10Z</time>
      </trkpt>
      <trkpt lat="46.83427" lon="5.89025">
        <ele>640.6</ele>
        <time>2021-07-02T15:08:14Z</time>
      </trkpt>
      <trkpt lat="46.83423" lon="5.8903">
        <ele>641.2</ele>
        <time>2021-07-02T15:08:18Z</time>
      </trkpt>
      <trkpt lat="46.83419" lon="5.89034">
        <ele>641.7</ele>
        <time>2021-07-02T15:08:24Z</time>
      </trkpt>
      <trkpt lat="46.83414" lon="5.89036">
        <ele>641.8</ele>
        <time>2021-07-02T15:08:29Z</time>
      </trkpt>
      <trkpt lat="46.83409" lon="5.8904">
        <ele>641.4</ele>
        <time>2021-07-02T15:08:35Z</time>
      </trkpt>
      <trkpt lat="46.83404" lon="5.89044">
        <ele>641.4</ele>
        <time>2021-07-02T15:08:41Z</time>
      </trkpt>
      <trkpt lat="46.83399" lon="5.89047">
        <ele>642.7</ele>
        <time>2021-07-02T15:08:46Z</time>
      </trkpt>
      <trkpt lat="46.83399" lon="5.8904">
        <ele>649.2</ele>
        <time>2021-07-02T15:09:10Z</time>
      </trkpt>
      <trkpt lat="46.83398" lon="5.89033">
        <ele>649.5</ele>
        <time>2021-07-02T15:09:19Z</time>
      </trkpt>
      <trkpt lat="46.83394" lon="5.89029">
        <ele>648.2</ele>
        <time>2021-07-02T15:09:30Z</time>
      </trkpt>
      <trkpt lat="46.83389" lon="5.8903">
        <ele>648.1</ele>
        <time>2021-07-02T15:09:34Z</time>
      </trkpt>
      <trkpt lat="46.83384" lon="5.89032">
        <ele>648.2</ele>
        <time>2021-07-02T15:09:39Z</time>
      </trkpt>
      <trkpt lat="46.83378" lon="5.89035">
        <ele>648.6</ele>
        <time>2021-07-02T15:09:43Z</time>
      </trkpt>
      <trkpt lat="46.83372" lon="5.89036">
        <ele>648.8</ele>
        <time>2021-07-02T15:09:47Z</time>
      </trkpt>
      <trkpt lat="46.83367" lon="5.89032">
        <ele>646.8</ele>
        <time>2021-07-02T15:10:05Z</time>
      </trkpt>
      <trkpt lat="46.83362" lon="5.89034">
        <ele>647.6</ele>
        <time>2021-07-02T15:10:12Z</time>
      </trkpt>
      <trkpt lat="46.83363" lon="5.89027">
        <ele>652.9</ele>
        <time>2021-07-02T15:10:43Z</time>
      </trkpt>
      <trkpt lat="46.83361" lon="5.8902">
        <ele>654.9</ele>
        <time>2021-07-02T15:11:03Z</time>
      </trkpt>
      <trkpt lat="46.83358" lon="5.89012">
        <ele>653.2</ele>
        <time>2021-07-02T15:11:07Z</time>
      </trkpt>
      <trkpt lat="46.83355" lon="5.89001">
        <ele>650.9</ele>
        <time>2021-07-02T15:11:11Z</time>
      </trkpt>
      <trkpt lat="46.83352" lon="5.88992">
        <ele>648.8</ele>
        <time>2021-07-02T15:11:15Z</time>
      </trkpt>
      <trkpt lat="46.83347" lon="5.8899">
        <ele>646.1</ele>
        <time>2021-07-02T15:11:21Z</time>
      </trkpt>
      <trkpt lat="46.83342" lon="5.88987">
        <ele>645</ele>
        <time>2021-07-02T15:11:25Z</time>
      </trkpt>
      <trkpt lat="46.83339" lon="5.88983">
        <ele>644.1</ele>
        <time>2021-07-02T15:11:29Z</time>
      </trkpt>
      <trkpt lat="46.83334" lon="5.88979">
        <ele>642.4</ele>
        <time>2021-07-02T15:11:35Z</time>
      </trkpt>
      <trkpt lat="46.83331" lon="5.88971">
        <ele>641.4</ele>
        <time>2021-07-02T15:11:39Z</time>
      </trkpt>
      <trkpt lat="46.83328" lon="5.88966">
        <ele>640.6</ele>
        <time>2021-07-02T15:11:43Z</time>
      </trkpt>
      <trkpt lat="46.83325" lon="5.8896">
        <ele>639.7</ele>
        <time>2021-07-02T15:11:49Z</time>
      </trkpt>
      <trkpt lat="46.83322" lon="5.88953">
        <ele>638.6</ele>
        <time>2021-07-02T15:11:54Z</time>
      </trkpt>
      <trkpt lat="46.8332" lon="5.88947">
        <ele>637</ele>
        <time>2021-07-02T15:11:59Z</time>
      </trkpt>
      <trkpt lat="46.83316" lon="5.88943">
        <ele>635.7</ele>
        <time>2021-07-02T15:12:03Z</time>
      </trkpt>
      <trkpt lat="46.83312" lon="5.88939">
        <ele>635.1</ele>
        <time>2021-07-02T15:12:07Z</time>
      </trkpt>
      <trkpt lat="46.83308" lon="5.88934">
        <ele>635.3</ele>
        <time>2021-07-02T15:12:12Z</time>
      </trkpt>
      <trkpt lat="46.83305" lon="5.88929">
        <ele>635.5</ele>
        <time>2021-07-02T15:12:16Z</time>
      </trkpt>
      <trkpt lat="46.83301" lon="5.88925">
        <ele>636</ele>
        <time>2021-07-02T15:12:20Z</time>
      </trkpt>
      <trkpt lat="46.83297" lon="5.8892">
        <ele>636.6</ele>
        <time>2021-07-02T15:12:25Z</time>
      </trkpt>
      <trkpt lat="46.83293" lon="5.88915">
        <ele>636.7</ele>
        <time>2021-07-02T15:12:29Z</time>
      </trkpt>
      <trkpt lat="46.83289" lon="5.8891">
        <ele>636.7</ele>
        <time>2021-07-02T15:12:33Z</time>
      </trkpt>
      <trkpt lat="46.83285" lon="5.88905">
        <ele>636.8</ele>
        <time>2021-07-02T15:12:38Z</time>
      </trkpt>
      <trkpt lat="46.83282" lon="5.88899">
        <ele>637.1</ele>
        <time>2021-07-02T15:12:42Z</time>
      </trkpt>
      <trkpt lat="46.83279" lon="5.88893">
        <ele>637.2</ele>
        <time>2021-07-02T15:12:46Z</time>
      </trkpt>
      <trkpt lat="46.83275" lon="5.88889">
        <ele>637.1</ele>
        <time>2021-07-02T15:12:51Z</time>
      </trkpt>
      <trkpt lat="46.8327" lon="5.88885">
        <ele>636.9</ele>
        <time>2021-07-02T15:12:56Z</time>
      </trkpt>
      <trkpt lat="46.83266" lon="5.88879">
        <ele>636.9</ele>
        <time>2021-07-02T15:13:01Z</time>
      </trkpt>
      <trkpt lat="46.83263" lon="5.88873">
        <ele>637.2</ele>
        <time>2021-07-02T15:13:06Z</time>
      </trkpt>
      <trkpt lat="46.83259" lon="5.88868">
        <ele>637.8</ele>
        <time>2021-07-02T15:13:11Z</time>
      </trkpt>
      <trkpt lat="46.83255" lon="5.88863">
        <ele>638.4</ele>
        <time>2021-07-02T15:13:16Z</time>
      </trkpt>
      <trkpt lat="46.83251" lon="5.88858">
        <ele>638.8</ele>
        <time>2021-07-02T15:13:22Z</time>
      </trkpt>
      <trkpt lat="46.83248" lon="5.88853">
        <ele>638.9</ele>
        <time>2021-07-02T15:13:26Z</time>
      </trkpt>
      <trkpt lat="46.83245" lon="5.88848">
        <ele>638.6</ele>
        <time>2021-07-02T15:13:30Z</time>
      </trkpt>
      <trkpt lat="46.83241" lon="5.88843">
        <ele>638.4</ele>
        <time>2021-07-02T15:13:34Z</time>
      </trkpt>
      <trkpt lat="46.83237" lon="5.88838">
        <ele>638.2</ele>
        <time>2021-07-02T15:13:38Z</time>
      </trkpt>
      <trkpt lat="46.83233" lon="5.88834">
        <ele>637.9</ele>
        <time>2021-07-02T15:13:42Z</time>
      </trkpt>
      <trkpt lat="46.83229" lon="5.8883">
        <ele>637.5</ele>
        <time>2021-07-02T15:13:46Z</time>
      </trkpt>
      <trkpt lat="46.83225" lon="5.88826">
        <ele>637</ele>
        <time>2021-07-02T15:13:50Z</time>
      </trkpt>
      <trkpt lat="46.8322" lon="5.88821">
        <ele>636.3</ele>
        <time>2021-07-02T15:13:55Z</time>
      </trkpt>
      <trkpt lat="46.83216" lon="5.88818">
        <ele>635.8</ele>
        <time>2021-07-02T15:13:59Z</time>
      </trkpt>
      <trkpt lat="46.83211" lon="5.88816">
        <ele>635.3</ele>
        <time>2021-07-02T15:14:05Z</time>
      </trkpt>
      <trkpt lat="46.83206" lon="5.88815">
        <ele>635.1</ele>
        <time>2021-07-02T15:14:10Z</time>
      </trkpt>
      <trkpt lat="46.83203" lon="5.8881">
        <ele>634.9</ele>
        <time>2021-07-02T15:14:15Z</time>
      </trkpt>
      <trkpt lat="46.83199" lon="5.88807">
        <ele>635</ele>
        <time>2021-07-02T15:14:19Z</time>
      </trkpt>
      <trkpt lat="46.83194" lon="5.88805">
        <ele>635.2</ele>
        <time>2021-07-02T15:14:23Z</time>
      </trkpt>
      <trkpt lat="46.83189" lon="5.88803">
        <ele>635.3</ele>
        <time>2021-07-02T15:14:28Z</time>
      </trkpt>
      <trkpt lat="46.83184" lon="5.888">
        <ele>635.4</ele>
        <time>2021-07-02T15:14:33Z</time>
      </trkpt>
      <trkpt lat="46.8318" lon="5.88799">
        <ele>635.4</ele>
        <time>2021-07-02T15:14:37Z</time>
      </trkpt>
      <trkpt lat="46.83175" lon="5.88797">
        <ele>635.7</ele>
        <time>2021-07-02T15:14:42Z</time>
      </trkpt>
      <trkpt lat="46.8317" lon="5.88793">
        <ele>635.8</ele>
        <time>2021-07-02T15:14:47Z</time>
      </trkpt>
      <trkpt lat="46.83165" lon="5.88791">
        <ele>636</ele>
        <time>2021-07-02T15:14:51Z</time>
      </trkpt>
      <trkpt lat="46.8316" lon="5.88788">
        <ele>636.7</ele>
        <time>2021-07-02T15:14:56Z</time>
      </trkpt>
      <trkpt lat="46.83155" lon="5.88784">
        <ele>637</ele>
        <time>2021-07-02T15:15:00Z</time>
      </trkpt>
      <trkpt lat="46.83151" lon="5.88782">
        <ele>636.8</ele>
        <time>2021-07-02T15:15:04Z</time>
      </trkpt>
      <trkpt lat="46.83146" lon="5.8878">
        <ele>637.1</ele>
        <time>2021-07-02T15:15:08Z</time>
      </trkpt>
      <trkpt lat="46.83142" lon="5.88777">
        <ele>637.8</ele>
        <time>2021-07-02T15:15:12Z</time>
      </trkpt>
      <trkpt lat="46.83137" lon="5.88773">
        <ele>638.3</ele>
        <time>2021-07-02T15:15:16Z</time>
      </trkpt>
      <trkpt lat="46.83133" lon="5.88771">
        <ele>638.9</ele>
        <time>2021-07-02T15:15:22Z</time>
      </trkpt>
      <trkpt lat="46.83128" lon="5.88767">
        <ele>639.4</ele>
        <time>2021-07-02T15:15:27Z</time>
      </trkpt>
      <trkpt lat="46.83123" lon="5.88764">
        <ele>639.4</ele>
        <time>2021-07-02T15:15:31Z</time>
      </trkpt>
      <trkpt lat="46.83118" lon="5.8876">
        <ele>639.2</ele>
        <time>2021-07-02T15:15:35Z</time>
      </trkpt>
      <trkpt lat="46.83113" lon="5.88761">
        <ele>639.6</ele>
        <time>2021-07-02T15:15:40Z</time>
      </trkpt>
      <trkpt lat="46.83108" lon="5.88762">
        <ele>640.3</ele>
        <time>2021-07-02T15:15:46Z</time>
      </trkpt>
      <trkpt lat="46.83103" lon="5.8876">
        <ele>640.2</ele>
        <time>2021-07-02T15:15:52Z</time>
      </trkpt>
      <trkpt lat="46.83098" lon="5.88759">
        <ele>639.9</ele>
        <time>2021-07-02T15:15:57Z</time>
      </trkpt>
      <trkpt lat="46.83093" lon="5.88761">
        <ele>639.7</ele>
        <time>2021-07-02T15:16:01Z</time>
      </trkpt>
      <trkpt lat="46.83088" lon="5.88762">
        <ele>639</ele>
        <time>2021-07-02T15:16:05Z</time>
      </trkpt>
      <trkpt lat="46.83083" lon="5.8876">
        <ele>638.4</ele>
        <time>2021-07-02T15:16:09Z</time>
      </trkpt>
      <trkpt lat="46.83079" lon="5.88756">
        <ele>638</ele>
        <time>2021-07-02T15:16:13Z</time>
      </trkpt>
      <trkpt lat="46.83075" lon="5.88752">
        <ele>637.8</ele>
        <time>2021-07-02T15:16:17Z</time>
      </trkpt>
      <trkpt lat="46.8307" lon="5.88748">
        <ele>637.6</ele>
        <time>2021-07-02T15:16:22Z</time>
      </trkpt>
      <trkpt lat="46.83066" lon="5.88745">
        <ele>637.2</ele>
        <time>2021-07-02T15:16:28Z</time>
      </trkpt>
      <trkpt lat="46.83062" lon="5.8874">
        <ele>636.1</ele>
        <time>2021-07-02T15:16:33Z</time>
      </trkpt>
      <trkpt lat="46.83059" lon="5.88735">
        <ele>634.4</ele>
        <time>2021-07-02T15:16:40Z</time>
      </trkpt>
      <trkpt lat="46.83057" lon="5.88728">
        <ele>633.9</ele>
        <time>2021-07-02T15:16:45Z</time>
      </trkpt>
      <trkpt lat="46.83054" lon="5.88721">
        <ele>633.6</ele>
        <time>2021-07-02T15:16:49Z</time>
      </trkpt>
      <trkpt lat="46.8305" lon="5.88716">
        <ele>633.4</ele>
        <time>2021-07-02T15:16:53Z</time>
      </trkpt>
      <trkpt lat="46.83045" lon="5.88712">
        <ele>633.3</ele>
        <time>2021-07-02T15:16:58Z</time>
      </trkpt>
      <trkpt lat="46.8304" lon="5.88708">
        <ele>632.8</ele>
        <time>2021-07-02T15:17:03Z</time>
      </trkpt>
      <trkpt lat="46.83036" lon="5.88704">
        <ele>632.2</ele>
        <time>2021-07-02T15:17:07Z</time>
      </trkpt>
      <trkpt lat="46.83032" lon="5.887">
        <ele>631.9</ele>
        <time>2021-07-02T15:17:12Z</time>
      </trkpt>
      <trkpt lat="46.83027" lon="5.88696">
        <ele>631.6</ele>
        <time>2021-07-02T15:17:18Z</time>
      </trkpt>
      <trkpt lat="46.83023" lon="5.88693">
        <ele>631.4</ele>
        <time>2021-07-02T15:17:22Z</time>
      </trkpt>
      <trkpt lat="46.83018" lon="5.8869">
        <ele>631.3</ele>
        <time>2021-07-02T15:17:26Z</time>
      </trkpt>
      <trkpt lat="46.83014" lon="5.88686">
        <ele>631.4</ele>
        <time>2021-07-02T15:17:30Z</time>
      </trkpt>
      <trkpt lat="46.8301" lon="5.88683">
        <ele>631.4</ele>
        <time>2021-07-02T15:17:34Z</time>
      </trkpt>
      <trkpt lat="46.83006" lon="5.8868">
        <ele>631.2</ele>
        <time>2021-07-02T15:17:38Z</time>
      </trkpt>
      <trkpt lat="46.83001" lon="5.88678">
        <ele>631.1</ele>
        <time>2021-07-02T15:17:43Z</time>
      </trkpt>
      <trkpt lat="46.82997" lon="5.88675">
        <ele>631.1</ele>
        <time>2021-07-02T15:17:47Z</time>
      </trkpt>
      <trkpt lat="46.82992" lon="5.88674">
        <ele>631.1</ele>
        <time>2021-07-02T15:17:51Z</time>
      </trkpt>
      <trkpt lat="46.82987" lon="5.88672">
        <ele>631</ele>
        <time>2021-07-02T15:17:55Z</time>
      </trkpt>
      <trkpt lat="46.82982" lon="5.88669">
        <ele>630.8</ele>
        <time>2021-07-02T15:18:00Z</time>
      </trkpt>
      <trkpt lat="46.82976" lon="5.88667">
        <ele>630.6</ele>
        <time>2021-07-02T15:18:05Z</time>
      </trkpt>
      <trkpt lat="46.82971" lon="5.88665">
        <ele>630.5</ele>
        <time>2021-07-02T15:18:09Z</time>
      </trkpt>
      <trkpt lat="46.82967" lon="5.88663">
        <ele>630.6</ele>
        <time>2021-07-02T15:18:13Z</time>
      </trkpt>
      <trkpt lat="46.82962" lon="5.88659">
        <ele>630.7</ele>
        <time>2021-07-02T15:18:19Z</time>
      </trkpt>
      <trkpt lat="46.82959" lon="5.88654">
        <ele>630.8</ele>
        <time>2021-07-02T15:18:24Z</time>
      </trkpt>
      <trkpt lat="46.82955" lon="5.88649">
        <ele>630.6</ele>
        <time>2021-07-02T15:18:28Z</time>
      </trkpt>
      <trkpt lat="46.82952" lon="5.88643">
        <ele>630.5</ele>
        <time>2021-07-02T15:18:33Z</time>
      </trkpt>
      <trkpt lat="46.82948" lon="5.88638">
        <ele>630.7</ele>
        <time>2021-07-02T15:18:38Z</time>
      </trkpt>
      <trkpt lat="46.82944" lon="5.88632">
        <ele>631.5</ele>
        <time>2021-07-02T15:18:43Z</time>
      </trkpt>
      <trkpt lat="46.82941" lon="5.88626">
        <ele>632</ele>
        <time>2021-07-02T15:18:48Z</time>
      </trkpt>
      <trkpt lat="46.82937" lon="5.88621">
        <ele>632.4</ele>
        <time>2021-07-02T15:18:52Z</time>
      </trkpt>
      <trkpt lat="46.82934" lon="5.88616">
        <ele>632.8</ele>
        <time>2021-07-02T15:18:56Z</time>
      </trkpt>
      <trkpt lat="46.82931" lon="5.88611">
        <ele>633.3</ele>
        <time>2021-07-02T15:19:00Z</time>
      </trkpt>
      <trkpt lat="46.82928" lon="5.88606">
        <ele>633.9</ele>
        <time>2021-07-02T15:19:04Z</time>
      </trkpt>
      <trkpt lat="46.82925" lon="5.88601">
        <ele>634.4</ele>
        <time>2021-07-02T15:19:08Z</time>
      </trkpt>
      <trkpt lat="46.82922" lon="5.88596">
        <ele>634.9</ele>
        <time>2021-07-02T15:19:13Z</time>
      </trkpt>
      <trkpt lat="46.8292" lon="5.88588">
        <ele>634.8</ele>
        <time>2021-07-02T15:19:19Z</time>
      </trkpt>
      <trkpt lat="46.82917" lon="5.88582">
        <ele>634.3</ele>
        <time>2021-07-02T15:19:24Z</time>
      </trkpt>
      <trkpt lat="46.82914" lon="5.88577">
        <ele>633.8</ele>
        <time>2021-07-02T15:19:29Z</time>
      </trkpt>
      <trkpt lat="46.82911" lon="5.88571">
        <ele>633.6</ele>
        <time>2021-07-02T15:19:35Z</time>
      </trkpt>
      <trkpt lat="46.82908" lon="5.88566">
        <ele>634.4</ele>
        <time>2021-07-02T15:19:40Z</time>
      </trkpt>
      <trkpt lat="46.82904" lon="5.8856">
        <ele>635.1</ele>
        <time>2021-07-02T15:19:45Z</time>
      </trkpt>
      <trkpt lat="46.82901" lon="5.88554">
        <ele>635.5</ele>
        <time>2021-07-02T15:19:49Z</time>
      </trkpt>
      <trkpt lat="46.82899" lon="5.88547">
        <ele>635.7</ele>
        <time>2021-07-02T15:19:53Z</time>
      </trkpt>
      <trkpt lat="46.82897" lon="5.88541">
        <ele>636</ele>
        <time>2021-07-02T15:19:57Z</time>
      </trkpt>
      <trkpt lat="46.82894" lon="5.88534">
        <ele>636.7</ele>
        <time>2021-07-02T15:20:02Z</time>
      </trkpt>
      <trkpt lat="46.82893" lon="5.88526">
        <ele>637.1</ele>
        <time>2021-07-02T15:20:06Z</time>
      </trkpt>
      <trkpt lat="46.8289" lon="5.8852">
        <ele>637.3</ele>
        <time>2021-07-02T15:20:10Z</time>
      </trkpt>
      <trkpt lat="46.82888" lon="5.88513">
        <ele>637.5</ele>
        <time>2021-07-02T15:20:16Z</time>
      </trkpt>
      <trkpt lat="46.82886" lon="5.88507">
        <ele>637.6</ele>
        <time>2021-07-02T15:20:21Z</time>
      </trkpt>
      <trkpt lat="46.82884" lon="5.88501">
        <ele>637.4</ele>
        <time>2021-07-02T15:20:25Z</time>
      </trkpt>
      <trkpt lat="46.82882" lon="5.88493">
        <ele>636.7</ele>
        <time>2021-07-02T15:20:30Z</time>
      </trkpt>
      <trkpt lat="46.8288" lon="5.88486">
        <ele>636.4</ele>
        <time>2021-07-02T15:20:34Z</time>
      </trkpt>
      <trkpt lat="46.82877" lon="5.88479">
        <ele>635.9</ele>
        <time>2021-07-02T15:20:38Z</time>
      </trkpt>
      <trkpt lat="46.82876" lon="5.88472">
        <ele>635.5</ele>
        <time>2021-07-02T15:20:43Z</time>
      </trkpt>
      <trkpt lat="46.82874" lon="5.88464">
        <ele>635.2</ele>
        <time>2021-07-02T15:20:48Z</time>
      </trkpt>
      <trkpt lat="46.82873" lon="5.88457">
        <ele>635</ele>
        <time>2021-07-02T15:20:52Z</time>
      </trkpt>
      <trkpt lat="46.82871" lon="5.88452">
        <ele>635</ele>
        <time>2021-07-02T15:20:59Z</time>
      </trkpt>
      <trkpt lat="46.82867" lon="5.88447">
        <ele>634.8</ele>
        <time>2021-07-02T15:21:03Z</time>
      </trkpt>
      <trkpt lat="46.82864" lon="5.8844">
        <ele>634.2</ele>
        <time>2021-07-02T15:21:07Z</time>
      </trkpt>
      <trkpt lat="46.82862" lon="5.88434">
        <ele>633.6</ele>
        <time>2021-07-02T15:21:12Z</time>
      </trkpt>
      <trkpt lat="46.82862" lon="5.88426">
        <ele>633.1</ele>
        <time>2021-07-02T15:21:19Z</time>
      </trkpt>
      <trkpt lat="46.82862" lon="5.88418">
        <ele>633</ele>
        <time>2021-07-02T15:21:24Z</time>
      </trkpt>
      <trkpt lat="46.82861" lon="5.88412">
        <ele>633.1</ele>
        <time>2021-07-02T15:21:29Z</time>
      </trkpt>
      <trkpt lat="46.82857" lon="5.88407">
        <ele>632.6</ele>
        <time>2021-07-02T15:21:36Z</time>
      </trkpt>
      <trkpt lat="46.82857" lon="5.88399">
        <ele>632.3</ele>
        <time>2021-07-02T15:21:42Z</time>
      </trkpt>
      <trkpt lat="46.82858" lon="5.88391">
        <ele>632.2</ele>
        <time>2021-07-02T15:21:46Z</time>
      </trkpt>
      <trkpt lat="46.82858" lon="5.88383">
        <ele>632.3</ele>
        <time>2021-07-02T15:21:50Z</time>
      </trkpt>
      <trkpt lat="46.82857" lon="5.88375">
        <ele>632.4</ele>
        <time>2021-07-02T15:21:54Z</time>
      </trkpt>
      <trkpt lat="46.82856" lon="5.88368">
        <ele>632.5</ele>
        <time>2021-07-02T15:21:58Z</time>
      </trkpt>
      <trkpt lat="46.82856" lon="5.88361">
        <ele>632.8</ele>
        <time>2021-07-02T15:22:02Z</time>
      </trkpt>
      <trkpt lat="46.82857" lon="5.88353">
        <ele>633.1</ele>
        <time>2021-07-02T15:22:06Z</time>
      </trkpt>
      <trkpt lat="46.82859" lon="5.88346">
        <ele>633.4</ele>
        <time>2021-07-02T15:22:11Z</time>
      </trkpt>
      <trkpt lat="46.82859" lon="5.88337">
        <ele>634</ele>
        <time>2021-07-02T15:22:15Z</time>
      </trkpt>
      <trkpt lat="46.82857" lon="5.88329">
        <ele>634.8</ele>
        <time>2021-07-02T15:22:19Z</time>
      </trkpt>
      <trkpt lat="46.82856" lon="5.88322">
        <ele>635.6</ele>
        <time>2021-07-02T15:22:24Z</time>
      </trkpt>
      <trkpt lat="46.82858" lon="5.88316">
        <ele>636.3</ele>
        <time>2021-07-02T15:22:29Z</time>
      </trkpt>
      <trkpt lat="46.8286" lon="5.88309">
        <ele>636.9</ele>
        <time>2021-07-02T15:22:35Z</time>
      </trkpt>
      <trkpt lat="46.82862" lon="5.88302">
        <ele>637.6</ele>
        <time>2021-07-02T15:22:40Z</time>
      </trkpt>
      <trkpt lat="46.82864" lon="5.88295">
        <ele>638.2</ele>
        <time>2021-07-02T15:22:44Z</time>
      </trkpt>
      <trkpt lat="46.82867" lon="5.88287">
        <ele>639.2</ele>
        <time>2021-07-02T15:22:48Z</time>
      </trkpt>
      <trkpt lat="46.82866" lon="5.8828">
        <ele>640.1</ele>
        <time>2021-07-02T15:22:52Z</time>
      </trkpt>
      <trkpt lat="46.82866" lon="5.88273">
        <ele>640.8</ele>
        <time>2021-07-02T15:22:56Z</time>
      </trkpt>
      <trkpt lat="46.82866" lon="5.88265">
        <ele>641.8</ele>
        <time>2021-07-02T15:23:01Z</time>
      </trkpt>
      <trkpt lat="46.82866" lon="5.88259">
        <ele>642.6</ele>
        <time>2021-07-02T15:23:05Z</time>
      </trkpt>
      <trkpt lat="46.82867" lon="5.88251">
        <ele>643.8</ele>
        <time>2021-07-02T15:23:10Z</time>
      </trkpt>
      <trkpt lat="46.82865" lon="5.88244">
        <ele>644.6</ele>
        <time>2021-07-02T15:23:15Z</time>
      </trkpt>
      <trkpt lat="46.82862" lon="5.88237">
        <ele>645</ele>
        <time>2021-07-02T15:23:19Z</time>
      </trkpt>
      <trkpt lat="46.8286" lon="5.88231">
        <ele>644.8</ele>
        <time>2021-07-02T15:23:23Z</time>
      </trkpt>
      <trkpt lat="46.82856" lon="5.88225">
        <ele>644.4</ele>
        <time>2021-07-02T15:23:27Z</time>
      </trkpt>
      <trkpt lat="46.82854" lon="5.88218">
        <ele>644.4</ele>
        <time>2021-07-02T15:23:32Z</time>
      </trkpt>
      <trkpt lat="46.82852" lon="5.88212">
        <ele>644.6</ele>
        <time>2021-07-02T15:23:36Z</time>
      </trkpt>
      <trkpt lat="46.82852" lon="5.88204">
        <ele>645.1</ele>
        <time>2021-07-02T15:23:41Z</time>
      </trkpt>
      <trkpt lat="46.8285" lon="5.88198">
        <ele>645.4</ele>
        <time>2021-07-02T15:23:48Z</time>
      </trkpt>
      <trkpt lat="46.82849" lon="5.88192">
        <ele>645.9</ele>
        <time>2021-07-02T15:23:58Z</time>
      </trkpt>
      <trkpt lat="46.82848" lon="5.88186">
        <ele>646.4</ele>
        <time>2021-07-02T15:24:18Z</time>
      </trkpt>
      <trkpt lat="46.82846" lon="5.88178">
        <ele>646.5</ele>
        <time>2021-07-02T15:24:23Z</time>
      </trkpt>
      <trkpt lat="46.82844" lon="5.88171">
        <ele>646.8</ele>
        <time>2021-07-02T15:24:28Z</time>
      </trkpt>
      <trkpt lat="46.82842" lon="5.88165">
        <ele>646.9</ele>
        <time>2021-07-02T15:24:33Z</time>
      </trkpt>
      <trkpt lat="46.82839" lon="5.88159">
        <ele>647.4</ele>
        <time>2021-07-02T15:24:38Z</time>
      </trkpt>
      <trkpt lat="46.82838" lon="5.88152">
        <ele>648.1</ele>
        <time>2021-07-02T15:24:44Z</time>
      </trkpt>
      <trkpt lat="46.82836" lon="5.88144">
        <ele>648.2</ele>
        <time>2021-07-02T15:24:50Z</time>
      </trkpt>
      <trkpt lat="46.82834" lon="5.88138">
        <ele>648.3</ele>
        <time>2021-07-02T15:24:54Z</time>
      </trkpt>
      <trkpt lat="46.82831" lon="5.88131">
        <ele>648</ele>
        <time>2021-07-02T15:24:58Z</time>
      </trkpt>
      <trkpt lat="46.8283" lon="5.88125">
        <ele>647.8</ele>
        <time>2021-07-02T15:25:04Z</time>
      </trkpt>
      <trkpt lat="46.82826" lon="5.88119">
        <ele>647.2</ele>
        <time>2021-07-02T15:25:36Z</time>
      </trkpt>
      <trkpt lat="46.82822" lon="5.88115">
        <ele>647.5</ele>
        <time>2021-07-02T15:25:42Z</time>
      </trkpt>
      <trkpt lat="46.82823" lon="5.88109">
        <ele>649.5</ele>
        <time>2021-07-02T15:26:01Z</time>
      </trkpt>
      <trkpt lat="46.82821" lon="5.88102">
        <ele>650.4</ele>
        <time>2021-07-02T15:26:14Z</time>
      </trkpt>
      <trkpt lat="46.82819" lon="5.88096">
        <ele>650.7</ele>
        <time>2021-07-02T15:26:18Z</time>
      </trkpt>
      <trkpt lat="46.82817" lon="5.88087">
        <ele>651.2</ele>
        <time>2021-07-02T15:26:22Z</time>
      </trkpt>
      <trkpt lat="46.82815" lon="5.8808">
        <ele>651.9</ele>
        <time>2021-07-02T15:26:27Z</time>
      </trkpt>
      <trkpt lat="46.82814" lon="5.88073">
        <ele>652.3</ele>
        <time>2021-07-02T15:26:32Z</time>
      </trkpt>
      <trkpt lat="46.82813" lon="5.88065">
        <ele>652.6</ele>
        <time>2021-07-02T15:26:38Z</time>
      </trkpt>
      <trkpt lat="46.82812" lon="5.88058">
        <ele>653.2</ele>
        <time>2021-07-02T15:26:43Z</time>
      </trkpt>
      <trkpt lat="46.8281" lon="5.88052">
        <ele>653.8</ele>
        <time>2021-07-02T15:26:48Z</time>
      </trkpt>
      <trkpt lat="46.82809" lon="5.88044">
        <ele>654.1</ele>
        <time>2021-07-02T15:26:53Z</time>
      </trkpt>
      <trkpt lat="46.82808" lon="5.88037">
        <ele>654.3</ele>
        <time>2021-07-02T15:26:58Z</time>
      </trkpt>
      <trkpt lat="46.82808" lon="5.8803">
        <ele>654.7</ele>
        <time>2021-07-02T15:27:02Z</time>
      </trkpt>
      <trkpt lat="46.82807" lon="5.88023">
        <ele>655.2</ele>
        <time>2021-07-02T15:27:06Z</time>
      </trkpt>
      <trkpt lat="46.82805" lon="5.88017">
        <ele>655.8</ele>
        <time>2021-07-02T15:27:10Z</time>
      </trkpt>
      <trkpt lat="46.82804" lon="5.8801">
        <ele>656.1</ele>
        <time>2021-07-02T15:27:14Z</time>
      </trkpt>
      <trkpt lat="46.82803" lon="5.88004">
        <ele>656.5</ele>
        <time>2021-07-02T15:27:18Z</time>
      </trkpt>
      <trkpt lat="46.82801" lon="5.87997">
        <ele>656.7</ele>
        <time>2021-07-02T15:27:22Z</time>
      </trkpt>
      <trkpt lat="46.828" lon="5.87989">
        <ele>656.6</ele>
        <time>2021-07-02T15:27:26Z</time>
      </trkpt>
      <trkpt lat="46.82798" lon="5.87982">
        <ele>656.6</ele>
        <time>2021-07-02T15:27:30Z</time>
      </trkpt>
      <trkpt lat="46.82797" lon="5.87975">
        <ele>656.5</ele>
        <time>2021-07-02T15:27:35Z</time>
      </trkpt>
      <trkpt lat="46.82796" lon="5.87968">
        <ele>656.5</ele>
        <time>2021-07-02T15:27:40Z</time>
      </trkpt>
      <trkpt lat="46.82795" lon="5.87961">
        <ele>656.7</ele>
        <time>2021-07-02T15:27:44Z</time>
      </trkpt>
      <trkpt lat="46.82793" lon="5.87954">
        <ele>657</ele>
        <time>2021-07-02T15:27:49Z</time>
      </trkpt>
      <trkpt lat="46.82793" lon="5.87947">
        <ele>657.3</ele>
        <time>2021-07-02T15:27:53Z</time>
      </trkpt>
      <trkpt lat="46.82791" lon="5.87939">
        <ele>657.7</ele>
        <time>2021-07-02T15:27:58Z</time>
      </trkpt>
      <trkpt lat="46.8279" lon="5.87932">
        <ele>658</ele>
        <time>2021-07-02T15:28:02Z</time>
      </trkpt>
      <trkpt lat="46.82789" lon="5.87925">
        <ele>658.3</ele>
        <time>2021-07-02T15:28:06Z</time>
      </trkpt>
      <trkpt lat="46.82789" lon="5.87917">
        <ele>658.5</ele>
        <time>2021-07-02T15:28:10Z</time>
      </trkpt>
      <trkpt lat="46.82788" lon="5.8791">
        <ele>658.8</ele>
        <time>2021-07-02T15:28:14Z</time>
      </trkpt>
      <trkpt lat="46.82788" lon="5.87902">
        <ele>659.4</ele>
        <time>2021-07-02T15:28:19Z</time>
      </trkpt>
      <trkpt lat="46.82788" lon="5.87895">
        <ele>660.1</ele>
        <time>2021-07-02T15:28:25Z</time>
      </trkpt>
      <trkpt lat="46.82788" lon="5.87888">
        <ele>660.9</ele>
        <time>2021-07-02T15:28:29Z</time>
      </trkpt>
      <trkpt lat="46.82787" lon="5.8788">
        <ele>662.1</ele>
        <time>2021-07-02T15:28:34Z</time>
      </trkpt>
      <trkpt lat="46.82786" lon="5.87873">
        <ele>663.2</ele>
        <time>2021-07-02T15:28:38Z</time>
      </trkpt>
      <trkpt lat="46.82785" lon="5.87866">
        <ele>664</ele>
        <time>2021-07-02T15:28:42Z</time>
      </trkpt>
      <trkpt lat="46.82785" lon="5.87859">
        <ele>664.5</ele>
        <time>2021-07-02T15:28:46Z</time>
      </trkpt>
      <trkpt lat="46.82785" lon="5.87851">
        <ele>665.1</ele>
        <time>2021-07-02T15:28:51Z</time>
      </trkpt>
      <trkpt lat="46.82785" lon="5.87843">
        <ele>665.4</ele>
        <time>2021-07-02T15:28:56Z</time>
      </trkpt>
      <trkpt lat="46.82784" lon="5.87836">
        <ele>665.6</ele>
        <time>2021-07-02T15:29:00Z</time>
      </trkpt>
      <trkpt lat="46.82782" lon="5.87829">
        <ele>665.8</ele>
        <time>2021-07-02T15:29:04Z</time>
      </trkpt>
      <trkpt lat="46.82781" lon="5.87823">
        <ele>666</ele>
        <time>2021-07-02T15:29:09Z</time>
      </trkpt>
      <trkpt lat="46.8278" lon="5.87815">
        <ele>665.8</ele>
        <time>2021-07-02T15:29:14Z</time>
      </trkpt>
      <trkpt lat="46.82779" lon="5.87807">
        <ele>665.7</ele>
        <time>2021-07-02T15:29:18Z</time>
      </trkpt>
      <trkpt lat="46.82777" lon="5.87799">
        <ele>665.4</ele>
        <time>2021-07-02T15:29:22Z</time>
      </trkpt>
      <trkpt lat="46.82775" lon="5.87792">
        <ele>665</ele>
        <time>2021-07-02T15:29:26Z</time>
      </trkpt>
      <trkpt lat="46.82773" lon="5.87786">
        <ele>664.4</ele>
        <time>2021-07-02T15:29:31Z</time>
      </trkpt>
      <trkpt lat="46.82771" lon="5.8778">
        <ele>663.8</ele>
        <time>2021-07-02T15:29:35Z</time>
      </trkpt>
      <trkpt lat="46.82769" lon="5.87773">
        <ele>663.4</ele>
        <time>2021-07-02T15:29:39Z</time>
      </trkpt>
      <trkpt lat="46.82766" lon="5.87767">
        <ele>662.6</ele>
        <time>2021-07-02T15:29:45Z</time>
      </trkpt>
      <trkpt lat="46.82764" lon="5.87761">
        <ele>661.5</ele>
        <time>2021-07-02T15:29:51Z</time>
      </trkpt>
      <trkpt lat="46.82762" lon="5.87755">
        <ele>660.5</ele>
        <time>2021-07-02T15:29:55Z</time>
      </trkpt>
      <trkpt lat="46.8276" lon="5.87749">
        <ele>659.3</ele>
        <time>2021-07-02T15:29:59Z</time>
      </trkpt>
      <trkpt lat="46.82759" lon="5.87742">
        <ele>658.5</ele>
        <time>2021-07-02T15:30:03Z</time>
      </trkpt>
      <trkpt lat="46.82758" lon="5.87735">
        <ele>657.7</ele>
        <time>2021-07-02T15:30:07Z</time>
      </trkpt>
      <trkpt lat="46.82757" lon="5.87729">
        <ele>657.2</ele>
        <time>2021-07-02T15:30:11Z</time>
      </trkpt>
      <trkpt lat="46.82756" lon="5.87721">
        <ele>656.3</ele>
        <time>2021-07-02T15:30:16Z</time>
      </trkpt>
      <trkpt lat="46.82755" lon="5.87714">
        <ele>655.8</ele>
        <time>2021-07-02T15:30:21Z</time>
      </trkpt>
      <trkpt lat="46.82752" lon="5.87708">
        <ele>655.8</ele>
        <time>2021-07-02T15:30:28Z</time>
      </trkpt>
      <trkpt lat="46.82753" lon="5.877">
        <ele>656.3</ele>
        <time>2021-07-02T15:30:33Z</time>
      </trkpt>
      <trkpt lat="46.82752" lon="5.87693">
        <ele>656.6</ele>
        <time>2021-07-02T15:30:37Z</time>
      </trkpt>
      <trkpt lat="46.8275" lon="5.87683">
        <ele>656.9</ele>
        <time>2021-07-02T15:30:41Z</time>
      </trkpt>
      <trkpt lat="46.8275" lon="5.87675">
        <ele>657</ele>
        <time>2021-07-02T15:30:45Z</time>
      </trkpt>
      <trkpt lat="46.82749" lon="5.87668">
        <ele>657.1</ele>
        <time>2021-07-02T15:30:50Z</time>
      </trkpt>
      <trkpt lat="46.82749" lon="5.8766">
        <ele>657.3</ele>
        <time>2021-07-02T15:30:54Z</time>
      </trkpt>
      <trkpt lat="46.82749" lon="5.8765">
        <ele>657.5</ele>
        <time>2021-07-02T15:30:58Z</time>
      </trkpt>
      <trkpt lat="46.8275" lon="5.87642">
        <ele>658.2</ele>
        <time>2021-07-02T15:31:02Z</time>
      </trkpt>
      <trkpt lat="46.82752" lon="5.87635">
        <ele>659.6</ele>
        <time>2021-07-02T15:31:06Z</time>
      </trkpt>
      <trkpt lat="46.82753" lon="5.87629">
        <ele>660.2</ele>
        <time>2021-07-02T15:31:12Z</time>
      </trkpt>
      <trkpt lat="46.82754" lon="5.8762">
        <ele>660.3</ele>
        <time>2021-07-02T15:31:17Z</time>
      </trkpt>
      <trkpt lat="46.82754" lon="5.87613">
        <ele>660.4</ele>
        <time>2021-07-02T15:31:22Z</time>
      </trkpt>
      <trkpt lat="46.82755" lon="5.87606">
        <ele>660.2</ele>
        <time>2021-07-02T15:31:26Z</time>
      </trkpt>
      <trkpt lat="46.82755" lon="5.876">
        <ele>660</ele>
        <time>2021-07-02T15:31:30Z</time>
      </trkpt>
      <trkpt lat="46.82756" lon="5.87592">
        <ele>659.1</ele>
        <time>2021-07-02T15:31:36Z</time>
      </trkpt>
      <trkpt lat="46.82756" lon="5.87585">
        <ele>659</ele>
        <time>2021-07-02T15:31:40Z</time>
      </trkpt>
      <trkpt lat="46.82757" lon="5.87576">
        <ele>658.8</ele>
        <time>2021-07-02T15:31:44Z</time>
      </trkpt>
      <trkpt lat="46.82757" lon="5.87567">
        <ele>658.4</ele>
        <time>2021-07-02T15:31:48Z</time>
      </trkpt>
      <trkpt lat="46.82758" lon="5.87559">
        <ele>658.1</ele>
        <time>2021-07-02T15:31:52Z</time>
      </trkpt>
      <trkpt lat="46.82758" lon="5.87552">
        <ele>658</ele>
        <time>2021-07-02T15:31:56Z</time>
      </trkpt>
      <trkpt lat="46.82759" lon="5.87545">
        <ele>657.4</ele>
        <time>2021-07-02T15:32:02Z</time>
      </trkpt>
      <trkpt lat="46.82759" lon="5.87538">
        <ele>657.6</ele>
        <time>2021-07-02T15:32:06Z</time>
      </trkpt>
      <trkpt lat="46.82759" lon="5.87531">
        <ele>658.1</ele>
        <time>2021-07-02T15:32:10Z</time>
      </trkpt>
      <trkpt lat="46.82758" lon="5.87523">
        <ele>658.4</ele>
        <time>2021-07-02T15:32:14Z</time>
      </trkpt>
      <trkpt lat="46.82757" lon="5.87516">
        <ele>659.1</ele>
        <time>2021-07-02T15:32:18Z</time>
      </trkpt>
      <trkpt lat="46.82758" lon="5.87509">
        <ele>660</ele>
        <time>2021-07-02T15:32:22Z</time>
      </trkpt>
      <trkpt lat="46.82758" lon="5.87502">
        <ele>660.3</ele>
        <time>2021-07-02T15:32:29Z</time>
      </trkpt>
      <trkpt lat="46.82756" lon="5.87496">
        <ele>660.2</ele>
        <time>2021-07-02T15:32:33Z</time>
      </trkpt>
      <trkpt lat="46.82756" lon="5.87488">
        <ele>660.5</ele>
        <time>2021-07-02T15:32:38Z</time>
      </trkpt>
      <trkpt lat="46.82757" lon="5.87481">
        <ele>661.1</ele>
        <time>2021-07-02T15:32:42Z</time>
      </trkpt>
      <trkpt lat="46.82754" lon="5.87475">
        <ele>660.7</ele>
        <time>2021-07-02T15:32:46Z</time>
      </trkpt>
      <trkpt lat="46.82753" lon="5.87468">
        <ele>659.6</ele>
        <time>2021-07-02T15:32:51Z</time>
      </trkpt>
      <trkpt lat="46.82756" lon="5.87463">
        <ele>657.7</ele>
        <time>2021-07-02T15:32:58Z</time>
      </trkpt>
      <trkpt lat="46.82761" lon="5.87463">
        <ele>657.3</ele>
        <time>2021-07-02T15:33:04Z</time>
      </trkpt>
      <trkpt lat="46.82765" lon="5.87465">
        <ele>657.3</ele>
        <time>2021-07-02T15:33:08Z</time>
      </trkpt>
      <trkpt lat="46.8277" lon="5.87466">
        <ele>657.8</ele>
        <time>2021-07-02T15:33:13Z</time>
      </trkpt>
      <trkpt lat="46.82774" lon="5.8747">
        <ele>657.8</ele>
        <time>2021-07-02T15:33:19Z</time>
      </trkpt>
      <trkpt lat="46.82779" lon="5.87472">
        <ele>657.3</ele>
        <time>2021-07-02T15:33:24Z</time>
      </trkpt>
      <trkpt lat="46.82783" lon="5.87474">
        <ele>657.1</ele>
        <time>2021-07-02T15:33:28Z</time>
      </trkpt>
      <trkpt lat="46.82788" lon="5.87477">
        <ele>657.2</ele>
        <time>2021-07-02T15:33:33Z</time>
      </trkpt>
      <trkpt lat="46.82793" lon="5.8748">
        <ele>657.5</ele>
        <time>2021-07-02T15:33:38Z</time>
      </trkpt>
      <trkpt lat="46.82798" lon="5.87481">
        <ele>657.5</ele>
        <time>2021-07-02T15:33:43Z</time>
      </trkpt>
      <trkpt lat="46.82803" lon="5.87484">
        <ele>657.7</ele>
        <time>2021-07-02T15:33:47Z</time>
      </trkpt>
      <trkpt lat="46.82808" lon="5.87484">
        <ele>657.8</ele>
        <time>2021-07-02T15:33:52Z</time>
      </trkpt>
      <trkpt lat="46.82814" lon="5.87483">
        <ele>658</ele>
        <time>2021-07-02T15:33:56Z</time>
      </trkpt>
      <trkpt lat="46.8282" lon="5.87484">
        <ele>658.5</ele>
        <time>2021-07-02T15:34:00Z</time>
      </trkpt>
      <trkpt lat="46.82826" lon="5.87482">
        <ele>659.3</ele>
        <time>2021-07-02T15:34:04Z</time>
      </trkpt>
      <trkpt lat="46.8283" lon="5.87482">
        <ele>659.3</ele>
        <time>2021-07-02T15:34:08Z</time>
      </trkpt>
      <trkpt lat="46.82836" lon="5.87481">
        <ele>659.5</ele>
        <time>2021-07-02T15:34:12Z</time>
      </trkpt>
      <trkpt lat="46.8284" lon="5.87479">
        <ele>659.3</ele>
        <time>2021-07-02T15:34:16Z</time>
      </trkpt>
      <trkpt lat="46.82845" lon="5.87477">
        <ele>658.6</ele>
        <time>2021-07-02T15:34:22Z</time>
      </trkpt>
      <trkpt lat="46.8285" lon="5.87475">
        <ele>657.6</ele>
        <time>2021-07-02T15:34:28Z</time>
      </trkpt>
      <trkpt lat="46.82856" lon="5.87473">
        <ele>656.6</ele>
        <time>2021-07-02T15:34:34Z</time>
      </trkpt>
      <trkpt lat="46.82861" lon="5.87471">
        <ele>656.6</ele>
        <time>2021-07-02T15:34:39Z</time>
      </trkpt>
      <trkpt lat="46.82866" lon="5.87467">
        <ele>656.4</ele>
        <time>2021-07-02T15:34:45Z</time>
      </trkpt>
      <trkpt lat="46.8287" lon="5.87467">
        <ele>656.3</ele>
        <time>2021-07-02T15:34:49Z</time>
      </trkpt>
      <trkpt lat="46.82876" lon="5.87463">
        <ele>656.3</ele>
        <time>2021-07-02T15:34:53Z</time>
      </trkpt>
      <trkpt lat="46.8288" lon="5.87459">
        <ele>656.6</ele>
        <time>2021-07-02T15:34:57Z</time>
      </trkpt>
      <trkpt lat="46.82885" lon="5.87455">
        <ele>656.8</ele>
        <time>2021-07-02T15:35:01Z</time>
      </trkpt>
      <trkpt lat="46.82889" lon="5.87452">
        <ele>656.9</ele>
        <time>2021-07-02T15:35:05Z</time>
      </trkpt>
      <trkpt lat="46.82894" lon="5.8745">
        <ele>657.7</ele>
        <time>2021-07-02T15:35:11Z</time>
      </trkpt>
      <trkpt lat="46.82898" lon="5.87447">
        <ele>657.5</ele>
        <time>2021-07-02T15:35:16Z</time>
      </trkpt>
      <trkpt lat="46.82904" lon="5.87446">
        <ele>657.3</ele>
        <time>2021-07-02T15:35:20Z</time>
      </trkpt>
      <trkpt lat="46.82911" lon="5.87445">
        <ele>657.7</ele>
        <time>2021-07-02T15:35:24Z</time>
      </trkpt>
      <trkpt lat="46.82916" lon="5.87444">
        <ele>658.5</ele>
        <time>2021-07-02T15:35:28Z</time>
      </trkpt>
      <trkpt lat="46.82921" lon="5.87445">
        <ele>659.1</ele>
        <time>2021-07-02T15:35:32Z</time>
      </trkpt>
      <trkpt lat="46.82926" lon="5.87447">
        <ele>659.6</ele>
        <time>2021-07-02T15:35:37Z</time>
      </trkpt>
      <trkpt lat="46.82931" lon="5.87449">
        <ele>659.9</ele>
        <time>2021-07-02T15:35:41Z</time>
      </trkpt>
      <trkpt lat="46.82935" lon="5.87451">
        <ele>660.1</ele>
        <time>2021-07-02T15:35:45Z</time>
      </trkpt>
      <trkpt lat="46.8294" lon="5.87453">
        <ele>660</ele>
        <time>2021-07-02T15:35:50Z</time>
      </trkpt>
      <trkpt lat="46.82944" lon="5.87457">
        <ele>659.8</ele>
        <time>2021-07-02T15:35:55Z</time>
      </trkpt>
      <trkpt lat="46.82948" lon="5.87462">
        <ele>659.5</ele>
        <time>2021-07-02T15:36:00Z</time>
      </trkpt>
      <trkpt lat="46.82954" lon="5.87465">
        <ele>659.9</ele>
        <time>2021-07-02T15:36:04Z</time>
      </trkpt>
      <trkpt lat="46.82958" lon="5.87468">
        <ele>661.2</ele>
        <time>2021-07-02T15:36:08Z</time>
      </trkpt>
      <trkpt lat="46.82962" lon="5.87473">
        <ele>664.2</ele>
        <time>2021-07-02T15:36:26Z</time>
      </trkpt>
      <trkpt lat="46.82967" lon="5.87475">
        <ele>663.6</ele>
        <time>2021-07-02T15:36:31Z</time>
      </trkpt>
      <trkpt lat="46.82972" lon="5.87477">
        <ele>662.3</ele>
        <time>2021-07-02T15:36:36Z</time>
      </trkpt>
      <trkpt lat="46.82978" lon="5.87478">
        <ele>660.9</ele>
        <time>2021-07-02T15:36:41Z</time>
      </trkpt>
      <trkpt lat="46.82983" lon="5.87479">
        <ele>660</ele>
        <time>2021-07-02T15:36:45Z</time>
      </trkpt>
      <trkpt lat="46.82988" lon="5.8748">
        <ele>659.4</ele>
        <time>2021-07-02T15:36:49Z</time>
      </trkpt>
      <trkpt lat="46.82992" lon="5.87483">
        <ele>659</ele>
        <time>2021-07-02T15:36:54Z</time>
      </trkpt>
      <trkpt lat="46.82997" lon="5.87486">
        <ele>658.7</ele>
        <time>2021-07-02T15:36:59Z</time>
      </trkpt>
      <trkpt lat="46.83002" lon="5.87488">
        <ele>658.5</ele>
        <time>2021-07-02T15:37:03Z</time>
      </trkpt>
      <trkpt lat="46.83007" lon="5.8749">
        <ele>658.4</ele>
        <time>2021-07-02T15:37:07Z</time>
      </trkpt>
      <trkpt lat="46.83012" lon="5.87495">
        <ele>658.5</ele>
        <time>2021-07-02T15:37:11Z</time>
      </trkpt>
      <trkpt lat="46.83016" lon="5.87498">
        <ele>658.3</ele>
        <time>2021-07-02T15:37:16Z</time>
      </trkpt>
      <trkpt lat="46.8302" lon="5.87502">
        <ele>657.8</ele>
        <time>2021-07-02T15:37:22Z</time>
      </trkpt>
      <trkpt lat="46.83024" lon="5.87506">
        <ele>656.8</ele>
        <time>2021-07-02T15:37:28Z</time>
      </trkpt>
      <trkpt lat="46.83027" lon="5.87512">
        <ele>656.1</ele>
        <time>2021-07-02T15:37:33Z</time>
      </trkpt>
      <trkpt lat="46.83031" lon="5.87518">
        <ele>655.2</ele>
        <time>2021-07-02T15:37:38Z</time>
      </trkpt>
      <trkpt lat="46.83035" lon="5.87523">
        <ele>654</ele>
        <time>2021-07-02T15:37:43Z</time>
      </trkpt>
      <trkpt lat="46.83039" lon="5.8753">
        <ele>652.9</ele>
        <time>2021-07-02T15:37:48Z</time>
      </trkpt>
      <trkpt lat="46.83044" lon="5.87535">
        <ele>652.5</ele>
        <time>2021-07-02T15:37:52Z</time>
      </trkpt>
      <trkpt lat="46.83049" lon="5.87539">
        <ele>652.3</ele>
        <time>2021-07-02T15:37:56Z</time>
      </trkpt>
      <trkpt lat="46.83053" lon="5.87542">
        <ele>651.9</ele>
        <time>2021-07-02T15:38:00Z</time>
      </trkpt>
      <trkpt lat="46.83057" lon="5.87545">
        <ele>652.1</ele>
        <time>2021-07-02T15:38:04Z</time>
      </trkpt>
      <trkpt lat="46.8306" lon="5.87551">
        <ele>652.5</ele>
        <time>2021-07-02T15:38:08Z</time>
      </trkpt>
      <trkpt lat="46.83064" lon="5.87557">
        <ele>653</ele>
        <time>2021-07-02T15:38:13Z</time>
      </trkpt>
      <trkpt lat="46.83067" lon="5.87563">
        <ele>653.5</ele>
        <time>2021-07-02T15:38:17Z</time>
      </trkpt>
      <trkpt lat="46.83071" lon="5.87568">
        <ele>654.3</ele>
        <time>2021-07-02T15:38:21Z</time>
      </trkpt>
      <trkpt lat="46.83075" lon="5.87572">
        <ele>655.4</ele>
        <time>2021-07-02T15:38:26Z</time>
      </trkpt>
      <trkpt lat="46.83078" lon="5.87577">
        <ele>656.2</ele>
        <time>2021-07-02T15:38:31Z</time>
      </trkpt>
      <trkpt lat="46.83082" lon="5.87581">
        <ele>657</ele>
        <time>2021-07-02T15:38:36Z</time>
      </trkpt>
      <trkpt lat="46.83085" lon="5.87588">
        <ele>657.2</ele>
        <time>2021-07-02T15:38:42Z</time>
      </trkpt>
      <trkpt lat="46.83086" lon="5.87595">
        <ele>657.7</ele>
        <time>2021-07-02T15:38:48Z</time>
      </trkpt>
      <trkpt lat="46.8309" lon="5.876">
        <ele>658</ele>
        <time>2021-07-02T15:38:55Z</time>
      </trkpt>
      <trkpt lat="46.83091" lon="5.87607">
        <ele>657.9</ele>
        <time>2021-07-02T15:38:59Z</time>
      </trkpt>
      <trkpt lat="46.83098" lon="5.87614">
        <ele>657.2</ele>
        <time>2021-07-02T15:39:03Z</time>
      </trkpt>
      <trkpt lat="46.83099" lon="5.87622">
        <ele>656.5</ele>
        <time>2021-07-02T15:39:08Z</time>
      </trkpt>
      <trkpt lat="46.831" lon="5.8763">
        <ele>656.4</ele>
        <time>2021-07-02T15:39:13Z</time>
      </trkpt>
      <trkpt lat="46.831" lon="5.87637">
        <ele>656.7</ele>
        <time>2021-07-02T15:39:18Z</time>
      </trkpt>
      <trkpt lat="46.83103" lon="5.87644">
        <ele>656.6</ele>
        <time>2021-07-02T15:39:24Z</time>
      </trkpt>
      <trkpt lat="46.83101" lon="5.87638">
        <ele>656.5</ele>
        <time>2021-07-02T15:40:13Z</time>
      </trkpt>
      <trkpt lat="46.831" lon="5.87631">
        <ele>655.8</ele>
        <time>2021-07-02T15:40:17Z</time>
      </trkpt>
      <trkpt lat="46.83099" lon="5.87624">
        <ele>654.9</ele>
        <time>2021-07-02T15:40:21Z</time>
      </trkpt>
      <trkpt lat="46.83098" lon="5.87617">
        <ele>653.7</ele>
        <time>2021-07-02T15:40:26Z</time>
      </trkpt>
      <trkpt lat="46.83096" lon="5.87611">
        <ele>653.2</ele>
        <time>2021-07-02T15:40:30Z</time>
      </trkpt>
      <trkpt lat="46.83094" lon="5.87605">
        <ele>653.4</ele>
        <time>2021-07-02T15:40:35Z</time>
      </trkpt>
      <trkpt lat="46.83092" lon="5.87598">
        <ele>653.4</ele>
        <time>2021-07-02T15:40:39Z</time>
      </trkpt>
      <trkpt lat="46.83089" lon="5.87592">
        <ele>653.1</ele>
        <time>2021-07-02T15:40:44Z</time>
      </trkpt>
      <trkpt lat="46.83087" lon="5.87585">
        <ele>653.2</ele>
        <time>2021-07-02T15:40:49Z</time>
      </trkpt>
      <trkpt lat="46.83088" lon="5.87578">
        <ele>653.1</ele>
        <time>2021-07-02T15:40:54Z</time>
      </trkpt>
      <trkpt lat="46.83092" lon="5.87573">
        <ele>652.5</ele>
        <time>2021-07-02T15:40:59Z</time>
      </trkpt>
      <trkpt lat="46.83096" lon="5.8757">
        <ele>651.3</ele>
        <time>2021-07-02T15:41:03Z</time>
      </trkpt>
      <trkpt lat="46.83101" lon="5.87567">
        <ele>650.6</ele>
        <time>2021-07-02T15:41:09Z</time>
      </trkpt>
      <trkpt lat="46.831" lon="5.8756">
        <ele>656</ele>
        <time>2021-07-02T15:41:53Z</time>
      </trkpt>
      <trkpt lat="46.83102" lon="5.87553">
        <ele>655.7</ele>
        <time>2021-07-02T15:41:59Z</time>
      </trkpt>
      <trkpt lat="46.83107" lon="5.87553">
        <ele>654.5</ele>
        <time>2021-07-02T15:42:15Z</time>
      </trkpt>
      <trkpt lat="46.83103" lon="5.87548">
        <ele>658.3</ele>
        <time>2021-07-02T15:44:19Z</time>
      </trkpt>
      <trkpt lat="46.83105" lon="5.87554">
        <ele>659</ele>
        <time>2021-07-02T15:46:00Z</time>
      </trkpt>
      <trkpt lat="46.83108" lon="5.87548">
        <ele>657.2</ele>
        <time>2021-07-02T15:51:18Z</time>
      </trkpt>
      <trkpt lat="46.83103" lon="5.87546">
        <ele>655.2</ele>
        <time>2021-07-02T15:52:24Z</time>
      </trkpt>
      <trkpt lat="46.831" lon="5.87539">
        <ele>654</ele>
        <time>2021-07-02T15:52:28Z</time>
      </trkpt>
      <trkpt lat="46.831" lon="5.87546">
        <ele>653.7</ele>
        <time>2021-07-02T15:52:51Z</time>
      </trkpt>
      <trkpt lat="46.83105" lon="5.8755">
        <ele>655.4</ele>
        <time>2021-07-02T15:53:03Z</time>
      </trkpt>
      <trkpt lat="46.83105" lon="5.87543">
        <ele>655.9</ele>
        <time>2021-07-02T15:54:24Z</time>
      </trkpt>
      <trkpt lat="46.83107" lon="5.87537">
        <ele>656.6</ele>
        <time>2021-07-02T15:54:29Z</time>
      </trkpt>
      <trkpt lat="46.83109" lon="5.87531">
        <ele>656.7</ele>
        <time>2021-07-02T15:54:34Z</time>
      </trkpt>
      <trkpt lat="46.83112" lon="5.87524">
        <ele>656.3</ele>
        <time>2021-07-02T15:54:40Z</time>
      </trkpt>
      <trkpt lat="46.83112" lon="5.87516">
        <ele>655.9</ele>
        <time>2021-07-02T15:54:44Z</time>
      </trkpt>
      <trkpt lat="46.83115" lon="5.8751">
        <ele>655.4</ele>
        <time>2021-07-02T15:54:49Z</time>
      </trkpt>
      <trkpt lat="46.83118" lon="5.87504">
        <ele>656</ele>
        <time>2021-07-02T15:54:56Z</time>
      </trkpt>
      <trkpt lat="46.83122" lon="5.875">
        <ele>656.8</ele>
        <time>2021-07-02T15:55:02Z</time>
      </trkpt>
      <trkpt lat="46.83126" lon="5.87496">
        <ele>657.5</ele>
        <time>2021-07-02T15:55:08Z</time>
      </trkpt>
      <trkpt lat="46.83131" lon="5.87491">
        <ele>658.1</ele>
        <time>2021-07-02T15:55:13Z</time>
      </trkpt>
      <trkpt lat="46.83137" lon="5.87489">
        <ele>658.8</ele>
        <time>2021-07-02T15:55:17Z</time>
      </trkpt>
      <trkpt lat="46.83142" lon="5.87487">
        <ele>658.8</ele>
        <time>2021-07-02T15:55:21Z</time>
      </trkpt>
      <trkpt lat="46.83147" lon="5.87485">
        <ele>659.1</ele>
        <time>2021-07-02T15:55:25Z</time>
      </trkpt>
      <trkpt lat="46.83152" lon="5.87484">
        <ele>659</ele>
        <time>2021-07-02T15:55:29Z</time>
      </trkpt>
      <trkpt lat="46.83158" lon="5.87486">
        <ele>658.6</ele>
        <time>2021-07-02T15:55:33Z</time>
      </trkpt>
      <trkpt lat="46.83162" lon="5.87483">
        <ele>657.6</ele>
        <time>2021-07-02T15:55:38Z</time>
      </trkpt>
      <trkpt lat="46.83165" lon="5.87476">
        <ele>657.7</ele>
        <time>2021-07-02T15:55:43Z</time>
      </trkpt>
      <trkpt lat="46.83165" lon="5.87469">
        <ele>658.8</ele>
        <time>2021-07-02T15:55:47Z</time>
      </trkpt>
      <trkpt lat="46.83167" lon="5.87462">
        <ele>659.6</ele>
        <time>2021-07-02T15:55:52Z</time>
      </trkpt>
      <trkpt lat="46.83171" lon="5.87458">
        <ele>660.8</ele>
        <time>2021-07-02T15:55:56Z</time>
      </trkpt>
      <trkpt lat="46.83172" lon="5.8745">
        <ele>662.7</ele>
        <time>2021-07-02T15:56:01Z</time>
      </trkpt>
      <trkpt lat="46.83175" lon="5.87443">
        <ele>664.6</ele>
        <time>2021-07-02T15:56:06Z</time>
      </trkpt>
      <trkpt lat="46.83177" lon="5.87436">
        <ele>666.1</ele>
        <time>2021-07-02T15:56:10Z</time>
      </trkpt>
      <trkpt lat="46.8318" lon="5.87428">
        <ele>667.1</ele>
        <time>2021-07-02T15:56:14Z</time>
      </trkpt>
      <trkpt lat="46.83184" lon="5.87424">
        <ele>671.2</ele>
        <time>2021-07-02T15:56:28Z</time>
      </trkpt>
      <trkpt lat="46.83189" lon="5.87423">
        <ele>672.2</ele>
        <time>2021-07-02T15:56:36Z</time>
      </trkpt>
      <trkpt lat="46.83193" lon="5.87418">
        <ele>671.5</ele>
        <time>2021-07-02T15:56:43Z</time>
      </trkpt>
      <trkpt lat="46.83195" lon="5.87412">
        <ele>670.4</ele>
        <time>2021-07-02T15:56:48Z</time>
      </trkpt>
      <trkpt lat="46.83198" lon="5.87406">
        <ele>670</ele>
        <time>2021-07-02T15:56:55Z</time>
      </trkpt>
      <trkpt lat="46.83201" lon="5.87401">
        <ele>670.9</ele>
        <time>2021-07-02T15:57:01Z</time>
      </trkpt>
      <trkpt lat="46.83203" lon="5.87393">
        <ele>672.1</ele>
        <time>2021-07-02T15:57:05Z</time>
      </trkpt>
      <trkpt lat="46.83207" lon="5.87387">
        <ele>673.1</ele>
        <time>2021-07-02T15:57:09Z</time>
      </trkpt>
      <trkpt lat="46.8321" lon="5.87381">
        <ele>673.7</ele>
        <time>2021-07-02T15:57:13Z</time>
      </trkpt>
      <trkpt lat="46.83214" lon="5.87377">
        <ele>673.5</ele>
        <time>2021-07-02T15:57:18Z</time>
      </trkpt>
      <trkpt lat="46.83216" lon="5.87371">
        <ele>673.4</ele>
        <time>2021-07-02T15:57:24Z</time>
      </trkpt>
      <trkpt lat="46.83218" lon="5.87364">
        <ele>672.9</ele>
        <time>2021-07-02T15:57:29Z</time>
      </trkpt>
      <trkpt lat="46.8322" lon="5.87357">
        <ele>673</ele>
        <time>2021-07-02T15:57:35Z</time>
      </trkpt>
      <trkpt lat="46.83222" lon="5.8735">
        <ele>672.8</ele>
        <time>2021-07-02T15:57:39Z</time>
      </trkpt>
      <trkpt lat="46.83225" lon="5.87343">
        <ele>671.9</ele>
        <time>2021-07-02T15:57:44Z</time>
      </trkpt>
      <trkpt lat="46.83227" lon="5.87336">
        <ele>672</ele>
        <time>2021-07-02T15:57:49Z</time>
      </trkpt>
      <trkpt lat="46.83231" lon="5.87332">
        <ele>673</ele>
        <time>2021-07-02T15:57:55Z</time>
      </trkpt>
      <trkpt lat="46.83236" lon="5.87333">
        <ele>672.8</ele>
        <time>2021-07-02T15:57:59Z</time>
      </trkpt>
      <trkpt lat="46.83241" lon="5.87329">
        <ele>672.2</ele>
        <time>2021-07-02T15:58:04Z</time>
      </trkpt>
      <trkpt lat="46.83244" lon="5.87323">
        <ele>671.9</ele>
        <time>2021-07-02T15:58:09Z</time>
      </trkpt>
      <trkpt lat="46.83248" lon="5.87319">
        <ele>671.7</ele>
        <time>2021-07-02T15:58:13Z</time>
      </trkpt>
      <trkpt lat="46.83251" lon="5.87313">
        <ele>671.7</ele>
        <time>2021-07-02T15:58:17Z</time>
      </trkpt>
      <trkpt lat="46.83256" lon="5.87307">
        <ele>671</ele>
        <time>2021-07-02T15:58:21Z</time>
      </trkpt>
      <trkpt lat="46.83258" lon="5.87301">
        <ele>669.6</ele>
        <time>2021-07-02T15:58:27Z</time>
      </trkpt>
      <trkpt lat="46.83261" lon="5.87294">
        <ele>669.6</ele>
        <time>2021-07-02T15:58:32Z</time>
      </trkpt>
      <trkpt lat="46.83265" lon="5.8729">
        <ele>670.3</ele>
        <time>2021-07-02T15:58:36Z</time>
      </trkpt>
      <trkpt lat="46.83269" lon="5.87286">
        <ele>670.9</ele>
        <time>2021-07-02T15:58:40Z</time>
      </trkpt>
      <trkpt lat="46.83273" lon="5.87284">
        <ele>670.7</ele>
        <time>2021-07-02T15:58:45Z</time>
      </trkpt>
      <trkpt lat="46.83277" lon="5.87279">
        <ele>670.2</ele>
        <time>2021-07-02T15:58:51Z</time>
      </trkpt>
      <trkpt lat="46.8328" lon="5.87271">
        <ele>670.5</ele>
        <time>2021-07-02T15:58:55Z</time>
      </trkpt>
      <trkpt lat="46.83283" lon="5.87267">
        <ele>671</ele>
        <time>2021-07-02T15:58:59Z</time>
      </trkpt>
      <trkpt lat="46.83287" lon="5.87265">
        <ele>672.6</ele>
        <time>2021-07-02T15:59:05Z</time>
      </trkpt>
      <trkpt lat="46.8329" lon="5.87258">
        <ele>674.5</ele>
        <time>2021-07-02T15:59:11Z</time>
      </trkpt>
      <trkpt lat="46.83291" lon="5.87251">
        <ele>675.1</ele>
        <time>2021-07-02T15:59:15Z</time>
      </trkpt>
      <trkpt lat="46.83292" lon="5.87244">
        <ele>675.5</ele>
        <time>2021-07-02T15:59:21Z</time>
      </trkpt>
      <trkpt lat="46.83292" lon="5.87236">
        <ele>675.6</ele>
        <time>2021-07-02T15:59:25Z</time>
      </trkpt>
      <trkpt lat="46.83294" lon="5.87228">
        <ele>677</ele>
        <time>2021-07-02T15:59:29Z</time>
      </trkpt>
      <trkpt lat="46.83293" lon="5.8722">
        <ele>678.3</ele>
        <time>2021-07-02T15:59:33Z</time>
      </trkpt>
      <trkpt lat="46.83294" lon="5.87212">
        <ele>676.9</ele>
        <time>2021-07-02T15:59:43Z</time>
      </trkpt>
      <trkpt lat="46.83293" lon="5.87205">
        <ele>675.8</ele>
        <time>2021-07-02T15:59:47Z</time>
      </trkpt>
      <trkpt lat="46.83292" lon="5.87197">
        <ele>675.5</ele>
        <time>2021-07-02T15:59:52Z</time>
      </trkpt>
      <trkpt lat="46.83291" lon="5.87191">
        <ele>675.9</ele>
        <time>2021-07-02T15:59:56Z</time>
      </trkpt>
      <trkpt lat="46.83287" lon="5.87185">
        <ele>676.2</ele>
        <time>2021-07-02T16:00:01Z</time>
      </trkpt>
      <trkpt lat="46.83285" lon="5.87177">
        <ele>678</ele>
        <time>2021-07-02T16:00:06Z</time>
      </trkpt>
      <trkpt lat="46.83282" lon="5.87172">
        <ele>678.2</ele>
        <time>2021-07-02T16:00:10Z</time>
      </trkpt>
      <trkpt lat="46.8328" lon="5.87165">
        <ele>675.9</ele>
        <time>2021-07-02T16:00:20Z</time>
      </trkpt>
      <trkpt lat="46.83277" lon="5.87159">
        <ele>674.5</ele>
        <time>2021-07-02T16:00:26Z</time>
      </trkpt>
      <trkpt lat="46.83275" lon="5.87154">
        <ele>673.8</ele>
        <time>2021-07-02T16:00:31Z</time>
      </trkpt>
      <trkpt lat="46.83272" lon="5.87147">
        <ele>673</ele>
        <time>2021-07-02T16:00:37Z</time>
      </trkpt>
      <trkpt lat="46.8327" lon="5.8714">
        <ele>672.7</ele>
        <time>2021-07-02T16:00:41Z</time>
      </trkpt>
      <trkpt lat="46.83267" lon="5.87134">
        <ele>672.6</ele>
        <time>2021-07-02T16:00:46Z</time>
      </trkpt>
      <trkpt lat="46.83264" lon="5.87129">
        <ele>672.2</ele>
        <time>2021-07-02T16:00:52Z</time>
      </trkpt>
      <trkpt lat="46.8326" lon="5.87125">
        <ele>672.9</ele>
        <time>2021-07-02T16:01:02Z</time>
      </trkpt>
      <trkpt lat="46.83256" lon="5.8712">
        <ele>673.1</ele>
        <time>2021-07-02T16:01:08Z</time>
      </trkpt>
      <trkpt lat="46.83252" lon="5.87114">
        <ele>673.3</ele>
        <time>2021-07-02T16:01:14Z</time>
      </trkpt>
      <trkpt lat="46.83248" lon="5.8711">
        <ele>673.3</ele>
        <time>2021-07-02T16:01:19Z</time>
      </trkpt>
      <trkpt lat="46.83244" lon="5.87107">
        <ele>673.8</ele>
        <time>2021-07-02T16:01:24Z</time>
      </trkpt>
      <trkpt lat="46.83239" lon="5.87103">
        <ele>674.5</ele>
        <time>2021-07-02T16:01:29Z</time>
      </trkpt>
      <trkpt lat="46.83234" lon="5.87103">
        <ele>674.9</ele>
        <time>2021-07-02T16:01:34Z</time>
      </trkpt>
      <trkpt lat="46.83229" lon="5.87101">
        <ele>675.5</ele>
        <time>2021-07-02T16:01:39Z</time>
      </trkpt>
      <trkpt lat="46.83224" lon="5.871">
        <ele>676.8</ele>
        <time>2021-07-02T16:01:45Z</time>
      </trkpt>
      <trkpt lat="46.83219" lon="5.87098">
        <ele>680.1</ele>
        <time>2021-07-02T16:01:56Z</time>
      </trkpt>
      <trkpt lat="46.83216" lon="5.87092">
        <ele>680.4</ele>
        <time>2021-07-02T16:02:01Z</time>
      </trkpt>
      <trkpt lat="46.83211" lon="5.87088">
        <ele>680.8</ele>
        <time>2021-07-02T16:02:05Z</time>
      </trkpt>
      <trkpt lat="46.83205" lon="5.87084">
        <ele>680.9</ele>
        <time>2021-07-02T16:02:09Z</time>
      </trkpt>
      <trkpt lat="46.832" lon="5.87081">
        <ele>681</ele>
        <time>2021-07-02T16:02:13Z</time>
      </trkpt>
      <trkpt lat="46.83198" lon="5.87075">
        <ele>680.6</ele>
        <time>2021-07-02T16:02:18Z</time>
      </trkpt>
      <trkpt lat="46.83198" lon="5.87068">
        <ele>679.8</ele>
        <time>2021-07-02T16:02:22Z</time>
      </trkpt>
      <trkpt lat="46.83199" lon="5.8706">
        <ele>678.8</ele>
        <time>2021-07-02T16:02:26Z</time>
      </trkpt>
      <trkpt lat="46.83201" lon="5.87054">
        <ele>678.1</ele>
        <time>2021-07-02T16:02:30Z</time>
      </trkpt>
      <trkpt lat="46.83202" lon="5.87047">
        <ele>678.3</ele>
        <time>2021-07-02T16:02:35Z</time>
      </trkpt>
      <trkpt lat="46.83202" lon="5.8704">
        <ele>679</ele>
        <time>2021-07-02T16:02:43Z</time>
      </trkpt>
      <trkpt lat="46.83201" lon="5.87033">
        <ele>680.3</ele>
        <time>2021-07-02T16:02:48Z</time>
      </trkpt>
      <trkpt lat="46.832" lon="5.87025">
        <ele>681</ele>
        <time>2021-07-02T16:02:52Z</time>
      </trkpt>
      <trkpt lat="46.83202" lon="5.87019">
        <ele>681.3</ele>
        <time>2021-07-02T16:02:57Z</time>
      </trkpt>
      <trkpt lat="46.83205" lon="5.87014">
        <ele>681</ele>
        <time>2021-07-02T16:03:01Z</time>
      </trkpt>
      <trkpt lat="46.83208" lon="5.87007">
        <ele>679.9</ele>
        <time>2021-07-02T16:03:06Z</time>
      </trkpt>
      <trkpt lat="46.83209" lon="5.86997">
        <ele>678.8</ele>
        <time>2021-07-02T16:03:10Z</time>
      </trkpt>
      <trkpt lat="46.8321" lon="5.86987">
        <ele>678</ele>
        <time>2021-07-02T16:03:14Z</time>
      </trkpt>
      <trkpt lat="46.83213" lon="5.86982">
        <ele>676.4</ele>
        <time>2021-07-02T16:03:19Z</time>
      </trkpt>
      <trkpt lat="46.83216" lon="5.86976">
        <ele>674.3</ele>
        <time>2021-07-02T16:03:24Z</time>
      </trkpt>
      <trkpt lat="46.83218" lon="5.86969">
        <ele>671.8</ele>
        <time>2021-07-02T16:03:30Z</time>
      </trkpt>
      <trkpt lat="46.83222" lon="5.86966">
        <ele>670.6</ele>
        <time>2021-07-02T16:03:35Z</time>
      </trkpt>
      <trkpt lat="46.83227" lon="5.86965">
        <ele>668.7</ele>
        <time>2021-07-02T16:03:43Z</time>
      </trkpt>
      <trkpt lat="46.83231" lon="5.86959">
        <ele>668</ele>
        <time>2021-07-02T16:03:48Z</time>
      </trkpt>
      <trkpt lat="46.83236" lon="5.86958">
        <ele>668</ele>
        <time>2021-07-02T16:03:52Z</time>
      </trkpt>
      <trkpt lat="46.8324" lon="5.86952">
        <ele>668.7</ele>
        <time>2021-07-02T16:03:56Z</time>
      </trkpt>
      <trkpt lat="46.83242" lon="5.86944">
        <ele>669.8</ele>
        <time>2021-07-02T16:04:00Z</time>
      </trkpt>
      <trkpt lat="46.83241" lon="5.86936">
        <ele>670.5</ele>
        <time>2021-07-02T16:04:04Z</time>
      </trkpt>
      <trkpt lat="46.83243" lon="5.86929">
        <ele>671.9</ele>
        <time>2021-07-02T16:04:12Z</time>
      </trkpt>
      <trkpt lat="46.83249" lon="5.8693">
        <ele>672.6</ele>
        <time>2021-07-02T16:04:16Z</time>
      </trkpt>
      <trkpt lat="46.83255" lon="5.86932">
        <ele>673.2</ele>
        <time>2021-07-02T16:04:20Z</time>
      </trkpt>
      <trkpt lat="46.83262" lon="5.86932">
        <ele>674</ele>
        <time>2021-07-02T16:04:24Z</time>
      </trkpt>
      <trkpt lat="46.83268" lon="5.86934">
        <ele>674.5</ele>
        <time>2021-07-02T16:04:28Z</time>
      </trkpt>
      <trkpt lat="46.83273" lon="5.86935">
        <ele>674.5</ele>
        <time>2021-07-02T16:04:32Z</time>
      </trkpt>
      <trkpt lat="46.83278" lon="5.86937">
        <ele>673.6</ele>
        <time>2021-07-02T16:04:39Z</time>
      </trkpt>
      <trkpt lat="46.83283" lon="5.86941">
        <ele>671.8</ele>
        <time>2021-07-02T16:04:44Z</time>
      </trkpt>
      <trkpt lat="46.83288" lon="5.86944">
        <ele>670.1</ele>
        <time>2021-07-02T16:04:48Z</time>
      </trkpt>
      <trkpt lat="46.83293" lon="5.86945">
        <ele>669.3</ele>
        <time>2021-07-02T16:04:52Z</time>
      </trkpt>
      <trkpt lat="46.83297" lon="5.86943">
        <ele>669.1</ele>
        <time>2021-07-02T16:04:56Z</time>
      </trkpt>
      <trkpt lat="46.83302" lon="5.86942">
        <ele>669.2</ele>
        <time>2021-07-02T16:05:01Z</time>
      </trkpt>
      <trkpt lat="46.83307" lon="5.8694">
        <ele>669.8</ele>
        <time>2021-07-02T16:05:08Z</time>
      </trkpt>
      <trkpt lat="46.83312" lon="5.86941">
        <ele>670.5</ele>
        <time>2021-07-02T16:05:15Z</time>
      </trkpt>
      <trkpt lat="46.83317" lon="5.86942">
        <ele>671</ele>
        <time>2021-07-02T16:05:19Z</time>
      </trkpt>
      <trkpt lat="46.83322" lon="5.86944">
        <ele>671.5</ele>
        <time>2021-07-02T16:05:23Z</time>
      </trkpt>
      <trkpt lat="46.83327" lon="5.86942">
        <ele>671.9</ele>
        <time>2021-07-02T16:05:28Z</time>
      </trkpt>
      <trkpt lat="46.83331" lon="5.86946">
        <ele>672.2</ele>
        <time>2021-07-02T16:05:34Z</time>
      </trkpt>
      <trkpt lat="46.83336" lon="5.86947">
        <ele>672.2</ele>
        <time>2021-07-02T16:05:41Z</time>
      </trkpt>
      <trkpt lat="46.8334" lon="5.86948">
        <ele>671.6</ele>
        <time>2021-07-02T16:05:46Z</time>
      </trkpt>
      <trkpt lat="46.83345" lon="5.86948">
        <ele>670.6</ele>
        <time>2021-07-02T16:05:50Z</time>
      </trkpt>
      <trkpt lat="46.8335" lon="5.86947">
        <ele>669.8</ele>
        <time>2021-07-02T16:05:54Z</time>
      </trkpt>
      <trkpt lat="46.83355" lon="5.8695">
        <ele>669.9</ele>
        <time>2021-07-02T16:06:00Z</time>
      </trkpt>
      <trkpt lat="46.83358" lon="5.86955">
        <ele>666</ele>
        <time>2021-07-02T16:07:51Z</time>
      </trkpt>
      <trkpt lat="46.83363" lon="5.86952">
        <ele>668.8</ele>
        <time>2021-07-02T16:08:10Z</time>
      </trkpt>
      <trkpt lat="46.83368" lon="5.86953">
        <ele>670.1</ele>
        <time>2021-07-02T16:08:17Z</time>
      </trkpt>
      <trkpt lat="46.83372" lon="5.86953">
        <ele>671.1</ele>
        <time>2021-07-02T16:08:25Z</time>
      </trkpt>
      <trkpt lat="46.83377" lon="5.86955">
        <ele>671.6</ele>
        <time>2021-07-02T16:08:30Z</time>
      </trkpt>
      <trkpt lat="46.83383" lon="5.86958">
        <ele>671.8</ele>
        <time>2021-07-02T16:08:34Z</time>
      </trkpt>
      <trkpt lat="46.8339" lon="5.86962">
        <ele>672</ele>
        <time>2021-07-02T16:08:38Z</time>
      </trkpt>
      <trkpt lat="46.83395" lon="5.86966">
        <ele>672.1</ele>
        <time>2021-07-02T16:08:42Z</time>
      </trkpt>
      <trkpt lat="46.834" lon="5.8697">
        <ele>672.2</ele>
        <time>2021-07-02T16:08:47Z</time>
      </trkpt>
      <trkpt lat="46.83406" lon="5.86971">
        <ele>671.3</ele>
        <time>2021-07-02T16:08:51Z</time>
      </trkpt>
      <trkpt lat="46.8341" lon="5.86972">
        <ele>669.9</ele>
        <time>2021-07-02T16:08:56Z</time>
      </trkpt>
      <trkpt lat="46.83415" lon="5.86973">
        <ele>669.8</ele>
        <time>2021-07-02T16:09:02Z</time>
      </trkpt>
      <trkpt lat="46.8342" lon="5.86971">
        <ele>670</ele>
        <time>2021-07-02T16:09:09Z</time>
      </trkpt>
      <trkpt lat="46.83425" lon="5.8697">
        <ele>669.2</ele>
        <time>2021-07-02T16:09:15Z</time>
      </trkpt>
      <trkpt lat="46.8343" lon="5.86971">
        <ele>667.3</ele>
        <time>2021-07-02T16:09:20Z</time>
      </trkpt>
      <trkpt lat="46.83435" lon="5.86972">
        <ele>665.1</ele>
        <time>2021-07-02T16:09:28Z</time>
      </trkpt>
      <trkpt lat="46.83439" lon="5.86974">
        <ele>663.6</ele>
        <time>2021-07-02T16:09:33Z</time>
      </trkpt>
      <trkpt lat="46.83445" lon="5.86975">
        <ele>663.1</ele>
        <time>2021-07-02T16:09:37Z</time>
      </trkpt>
      <trkpt lat="46.83451" lon="5.86976">
        <ele>663.2</ele>
        <time>2021-07-02T16:09:41Z</time>
      </trkpt>
      <trkpt lat="46.83455" lon="5.86979">
        <ele>663.5</ele>
        <time>2021-07-02T16:09:45Z</time>
      </trkpt>
      <trkpt lat="46.83459" lon="5.86982">
        <ele>664</ele>
        <time>2021-07-02T16:09:49Z</time>
      </trkpt>
      <trkpt lat="46.83463" lon="5.86985">
        <ele>664.8</ele>
        <time>2021-07-02T16:09:53Z</time>
      </trkpt>
      <trkpt lat="46.83466" lon="5.86991">
        <ele>665.1</ele>
        <time>2021-07-02T16:09:59Z</time>
      </trkpt>
      <trkpt lat="46.83467" lon="5.86998">
        <ele>665</ele>
        <time>2021-07-02T16:10:03Z</time>
      </trkpt>
      <trkpt lat="46.83469" lon="5.87004">
        <ele>665.2</ele>
        <time>2021-07-02T16:10:07Z</time>
      </trkpt>
    </trkseg>
  </trk>
</gpx>